[[{"header":{"parameterUnit":"m.s-1","parameterCategory":1,"la1":30.6,"la2":28.766,"lo1":-90.7593,"lo2":-88.6598,"dy":0.0162,"dx":0.0183,"nx":116,"ny":114,"refTime":"2024-02-02T06:00:00:Z","depth":0,"parameterNumber":2,"parameterNumberName":"U-component_of_WINDS"},"data":[0.0,0.0,0.0,0.0,0.0,0.0,0.0,0.0,0.0,0.0,0.0,0.0,0.0,0.0,0.0,0.0,0.0,0.0,0.0,0.0,0.0,0.0,0.0,0.0,0.0,0.0,0.0,0.0,0.0,0.0,0.0,0.0,0.0,0.0,0.0,0.0,0.0,0.0,0.0,0.0,0.0,0.0,0.0,0.0,0.0,0.0,0.0,0.0,0.0,0.0,0.0,0.0,0.0,0.0,0.0,0.0,0.0,0.0,0.0,0.0,0.0,0.0,0.0,0.0,0.0,0.0,0.0,0.0,0.0,0.0,0.0,0.0,0.0,0.0,0.0,0.0,0.0,0.0,0.0,0.0,0.0,0.0,0.0,0.0,0.0,0.0,0.0,0.0,0.0,0.0,0.0,0.0,0.0,0.0,0.0,0.0,0.0,0.0,0.0,0.0,0.0,0.0,0.0,0.0,0.0,0.0,0.0,0.0,0.0,0.0,0.0,0.0,0.0,0.0,0.0,0.0,0.0,0.0,0.0,0.0,0.0,0.0,0.0,0.0,0.0,0.0,0.0,0.0,0.0,0.0,0.0,0.0,0.0,0.0,0.0,0.0,0.0,0.0,0.0,0.0,0.0,0.0,0.0,0.0,0.0,0.0,0.0,0.0,0.0,0.0,0.0,0.0,0.0,0.0,0.0,0.0,0.0,0.0,0.0,0.0,0.0,0.0,0.0,0.0,0.0,0.0,0.0,0.0,0.0,0.0,0.0,0.0,0.0,0.0,0.0,0.0,0.0,0.0,0.0,0.0,0.0,0.0,0.0,0.0,0.0,0.0,0.0,0.0,0.0,0.0,0.0,0.0,0.0,0.0,0.0,0.0,0.0,0.0,0.0,0.0,0.0,0.0,0.0,0.0,0.0,0.0,0.0,0.0,0.0,0.0,0.0,0.0,0.0,0.0,0.0,0.0,0.0,0.0,0.0,0.0,0.0,0.0,0.0,0.0,0.0,0.0,0.0,0.0,0.0,0.0,0.0,0.0,0.0,0.0,0.0,0.0,0.0,0.0,0.0,0.0,0.0,0.0,0.0,0.0,0.0,0.0,0.0,0.0,0.0,0.0,0.0,0.0,0.0,0.0,0.0,0.0,0.0,0.0,0.0,0.0,0.0,0.0,0.0,0.0,0.0,0.0,0.0,0.0,0.0,0.0,0.0,0.0,0.0,0.0,0.0,0.0,0.0,0.0,0.0,0.0,0.0,0.0,0.0,0.0,0.0,0.0,0.0,0.0,0.0,0.0,0.0,0.0,0.0,0.0,0.0,0.0,0.0,0.0,0.0,0.0,0.0,0.0,0.0,0.0,0.0,0.0,0.0,0.0,0.0,0.0,0.0,0.0,0.0,0.0,0.0,0.0,0.0,0.0,0.0,0.0,0.0,0.0,0.0,0.0,0.0,0.0,0.0,0.0,0.0,0.0,0.0,0.0,0.0,0.0,0.0,0.0,0.0,0.0,0.0,0.0,0.0,0.0,0.0,0.0,0.0,0.0,0.0,0.0,0.0,0.0,0.0,0.0,0.0,0.0,0.0,0.0,0.0,0.0,0.0,0.0,0.0,0.0,0.0,0.0,0.0,0.0,0.0,0.0,0.0,0.0,0.0,0.0,0.0,0.0,0.0,0.0,0.0,0.0,0.0,0.0,0.0,0.0,0.0,0.0,0.0,0.0,0.0,0.0,0.0,0.0,0.0,0.0,0.0,0.0,0.0,0.0,0.0,0.0,0.0,0.0,0.0,0.0,0.0,0.0,0.0,0.0,0.0,0.0,0.0,0.0,0.0,0.0,0.0,0.0,0.0,0.0,0.0,0.0,0.0,0.0,0.0,0.0,0.0,0.0,0.0,0.0,0.0,0.0,0.0,0.0,0.0,0.0,0.0,0.0,0.0,0.0,0.0,0.0,0.0,0.0,0.0,0.0,0.0,0.0,0.0,0.0,0.0,0.0,0.0,0.0,0.0,0.0,0.0,0.0,0.0,0.0,0.0,0.0,0.0,0.0,0.0,0.0,0.0,0.0,0.0,0.0,0.0,0.0,0.0,0.0,0.0,0.0,0.0,0.0,0.0,0.0,0.0,0.0,0.0,0.0,0.0,0.0,0.0,0.0,0.0,0.0,0.0,0.0,0.0,0.0,0.0,0.0,0.0,0.0,0.0,0.0,0.0,0.0,0.0,0.0,0.0,0.0,0.0,0.0,0.0,0.0,0.0,0.0,0.0,0.0,0.0,0.0,0.0,0.0,0.0,0.0,0.0,0.0,0.0,0.0,0.0,0.0,0.0,0.0,0.0,0.0,0.0,0.0,0.0,0.0,0.0,0.0,0.0,0.0,0.0,0.0,0.0,0.0,0.0,0.0,0.0,0.0,0.0,0.0,0.0,0.0,0.0,0.0,0.0,0.0,0.0,0.0,0.0,0.0,0.0,0.0,0.0,0.0,0.0,0.0,0.0,0.0,0.0,0.0,0.0,0.0,0.0,0.0,0.0,0.0,0.0,0.0,0.0,0.0,0.0,0.0,0.0,0.0,0.0,0.0,0.0,0.0,0.0,0.0,0.0,0.0,0.0,0.0,0.0,0.0,0.0,0.0,0.0,0.0,0.0,0.0,0.0,0.0,0.0,0.0,0.0,0.0,0.0,0.0,0.0,0.0,0.0,0.0,0.0,0.0,0.0,0.0,0.0,0.0,0.0,0.0,0.0,0.0,0.0,0.0,0.0,0.0,0.0,0.0,0.0,0.0,0.0,0.0,0.0,0.0,0.0,0.0,0.0,0.0,0.0,0.0,0.0,0.0,0.0,0.0,0.0,0.0,0.0,0.0,0.0,0.0,0.0,0.0,0.0,0.0,0.0,0.0,0.0,0.0,0.0,0.0,0.0,0.0,0.0,0.0,0.0,0.0,0.0,0.0,0.0,0.0,0.0,0.0,0.0,0.0,0.0,0.0,0.0,0.0,0.0,0.0,0.0,0.0,0.0,0.0,0.0,0.0,0.0,0.0,0.0,0.0,0.0,0.0,0.0,0.0,0.0,0.0,0.0,0.0,0.0,0.0,0.0,0.0,0.0,0.0,0.0,0.0,0.0,0.0,0.0,0.0,0.0,0.0,0.0,0.0,0.0,0.0,0.0,0.0,0.0,0.0,0.0,0.0,0.0,0.0,0.0,0.0,0.0,0.0,0.0,0.0,0.0,0.0,0.0,0.0,0.0,0.0,0.0,0.0,0.0,0.0,0.0,0.0,0.0,0.0,0.0,0.0,0.0,0.0,0.0,0.0,0.0,0.0,0.0,0.0,0.0,0.0,0.0,0.0,0.0,0.0,0.0,0.0,0.0,0.0,0.0,0.0,0.0,0.0,0.0,0.0,0.0,0.0,0.0,0.0,0.0,0.0,0.0,0.0,0.0,0.0,0.0,0.0,0.0,0.0,0.0,0.0,0.0,0.0,0.0,0.0,0.0,0.0,0.0,0.0,0.0,0.0,0.0,0.0,0.0,0.0,0.0,0.0,0.0,0.0,0.0,0.0,0.0,0.0,0.0,0.0,0.0,0.0,0.0,0.0,0.0,0.0,0.0,0.0,0.0,0.0,0.0,0.0,0.0,0.0,0.0,0.0,0.0,0.0,0.0,0.0,0.0,0.0,0.0,0.0,0.0,0.0,0.0,0.0,0.0,0.0,0.0,0.0,0.0,0.0,0.0,0.0,0.0,0.0,0.0,0.0,0.0,0.0,0.0,0.0,0.0,0.0,0.0,0.0,0.0,0.0,0.0,0.0,0.0,0.0,0.0,0.0,0.0,0.0,0.0,0.0,0.0,0.0,0.0,0.0,0.0,0.0,0.0,0.0,0.0,0.0,0.0,0.0,0.0,0.0,0.0,0.0,0.0,0.0,0.0,0.0,0.0,0.0,0.0,0.0,0.0,0.0,0.0,0.0,0.0,0.0,0.0,0.0,0.0,0.0,0.0,0.0,0.0,0.0,0.0,0.0,0.0,0.0,0.0,0.0,0.0,0.0,0.0,0.0,0.0,0.0,0.0,0.0,0.0,0.0,0.0,0.0,0.0,0.0,0.0,0.0,0.0,0.0,0.0,0.0,0.0,0.0,0.0,0.0,0.0,0.0,0.0,0.0,0.0,0.0,0.0,0.0,0.0,0.0,0.0,0.0,0.0,0.0,0.0,0.0,0.0,0.0,0.0,0.0,0.0,0.0,0.0,0.0,0.0,0.0,0.0,0.0,0.0,0.0,0.0,0.0,0.0,0.0,0.0,0.0,0.0,0.0,0.0,0.0,0.0,0.0,0.0,0.0,0.0,0.0,0.0,0.0,0.0,0.0,0.0,0.0,0.0,0.0,0.0,0.0,0.0,0.0,0.0,0.0,0.0,0.0,0.0,0.0,0.0,0.0,0.0,0.0,0.0,0.0,0.0,0.0,0.0,0.0,0.0,0.0,0.0,0.0,0.0,0.0,0.0,0.0,0.0,0.0,0.0,0.0,0.0,0.0,0.0,0.0,0.0,0.0,0.0,0.0,0.0,0.0,0.0,0.0,0.0,0.0,0.0,0.0,0.0,0.0,0.0,0.0,0.0,0.0,0.0,0.0,0.0,0.0,0.0,0.0,0.0,0.0,0.0,0.0,0.0,0.0,0.0,0.0,0.0,0.0,0.0,0.0,0.0,0.0,0.0,0.0,0.0,0.0,0.0,0.0,0.0,0.0,0.0,0.0,0.0,0.0,0.0,0.0,0.0,0.0,0.0,0.0,0.0,0.0,0.0,0.0,0.0,0.0,0.0,0.0,0.0,0.0,0.0,0.0,0.0,0.0,0.0,0.0,0.0,0.0,0.0,0.0,0.0,0.0,0.0,0.0,0.0,0.0,0.0,0.0,0.0,0.0,0.0,0.0,0.0,0.0,0.0,0.0,0.0,0.0,0.0,0.0,0.0,0.0,0.0,0.0,0.0,0.0,0.0,0.0,0.0,0.0,0.0,0.0,0.0,0.0,0.0,0.0,0.0,0.0,0.0,0.0,0.0,0.0,0.0,0.0,0.0,0.0,0.0,0.0,0.0,0.0,0.0,0.0,0.0,0.0,0.0,0.0,0.0,0.0,0.0,0.0,0.0,0.0,0.0,0.0,0.0,0.0,0.0,0.0,0.0,0.0,0.0,0.0,0.0,0.0,0.0,0.0,0.0,0.0,0.0,0.0,0.0,0.0,0.0,0.0,0.0,0.0,0.0,0.0,0.0,0.0,0.0,0.0,0.0,0.0,0.0,0.0,0.0,0.0,0.0,0.0,0.0,0.0,0.0,0.0,0.0,0.0,0.0,0.0,0.0,0.0,0.0,0.0,0.0,0.0,0.0,0.0,0.0,0.0,0.0,0.0,0.0,0.0,0.0,0.0,0.0,0.0,0.0,0.0,0.0,0.0,0.0,0.0,0.0,0.0,0.0,0.0,0.0,0.0,0.0,0.0,0.0,0.0,0.0,0.0,0.0,0.0,0.0,0.0,0.0,0.0,0.0,0.0,0.0,0.0,0.0,0.0,0.0,0.0,0.0,0.0,0.0,0.0,0.0,0.0,0.0,0.0,0.0,0.0,0.0,0.0,0.0,0.0,0.0,0.0,0.0,0.0,0.0,0.0,0.0,0.0,0.0,0.0,0.0,0.0,0.0,0.0,0.0,0.0,0.0,0.0,0.0,0.0,0.0,0.0,0.0,0.0,0.0,0.0,0.0,0.0,0.0,0.0,0.0,0.0,0.0,0.0,0.0,0.0,0.0,0.0,0.0,0.0,0.0,0.0,0.0,0.0,0.0,0.0,0.0,0.0,0.0,0.0,0.0,0.0,0.0,0.0,0.0,0.0,0.0,0.0,0.0,0.0,0.0,0.0,0.0,0.0,0.0,0.0,0.0,0.0,0.0,0.0,0.0,0.0,0.0,0.0,0.0,0.0,0.0,0.0,0.0,0.0,0.0,0.0,0.0,0.0,0.0,0.0,0.0,0.0,0.0,0.0,0.0,0.0,0.0,0.0,0.0,0.0,0.0,0.0,0.0,0.0,0.0,0.0,0.0,0.0,0.0,0.0,0.0,0.0,-0.0162,0.0,0.0,0.0,0.0,0.0,0.0,0.0,0.0,0.0,0.0,0.0,0.0,0.0,0.0,0.0,0.0,0.0,0.0,0.0,0.0,0.0,0.0,0.0,0.0,0.0,0.0,0.0,-0.3902,-0.4322,-0.4886,-0.5296,-0.5813,-0.656,-0.7001,-0.7155,-0.7019,-0.7542,-0.81,-0.8694,-0.8446,-0.8478,-0.8818,-0.9424,0.0,0.0,0.0,0.0,0.0,0.0,0.0,0.0,0.0,0.0,0.0,0.0,0.0,0.0,0.0,0.0,0.0,0.0,0.0,0.0,0.0,0.0,0.0,0.0,0.0,0.0,0.0,0.0,0.0,0.0,0.0,0.0,0.0,0.0,0.0,0.0,0.0,0.0,0.0,0.0,0.0,0.0,0.0,0.0,0.0,0.0,0.0,0.0,0.0,0.0,0.0,0.0,0.0,0.0,0.0,0.0,0.0,0.0,0.0,0.0,0.0,0.0,0.0,0.0,0.0,0.0,0.0,0.0,0.0,0.0,0.0,0.0,0.0,-0.0078,0.0,0.0,0.0,0.0,0.0,0.0,0.0,0.0,0.0,0.0,0.0,0.0,0.0,0.0,0.0,0.0,0.0,0.0,0.0,0.0,0.0,0.0,0.0,-0.4739,-0.4575,-0.476,-0.4711,-0.4912,-0.5526,-0.568,-0.6147,-0.6959,-0.7572,-0.7899,-0.7899,-0.8419,-0.9124,-0.9998,-0.9366,-0.9525,-1.041,-1.0787,0.0,0.0,0.0,0.0,0.0,0.0,0.0,0.0,0.0,0.0,0.0,0.0,0.0,0.0,0.0,0.0,0.0,0.0,0.0,0.0,0.0,0.0,0.0,0.0,0.0,0.0,0.0,0.0,0.0,0.0,0.0,0.0,0.0,0.0,0.0,0.0,0.0,0.0,0.0,0.0,0.0,0.0,0.0,0.0,0.0,0.0,0.0,0.0,0.0,0.0,0.0,0.0,0.0,0.0,0.0,0.0,0.0,0.0,0.0,0.0,0.0,0.0,0.0,0.0,0.0,0.0,-0.1924,-0.1931,-0.1958,-0.2052,-0.2028,-0.1884,-0.1385,-0.0823,-0.0275,0.0,0.0,0.0,0.0,0.0,0.0,0.0,0.0,0.0,0.0,0.0,0.0,0.0,0.0,0.0,0.0,0.0,0.0,0.0,0.0,0.0,0.0,-0.5361,-0.5022,-0.5516,-0.5652,-0.5736,-0.5851,-0.6455,-0.6864,-0.6993,-0.7572,-0.7899,-0.7899,-0.8419,-0.8984,-0.958,-0.9923,-1.0351,-1.084,-1.1285,-1.1318,-1.0998,-0.9937,0.0,0.0,0.0,0.0,0.0,0.0,0.0,0.0,0.0,0.0,0.0,0.0,0.0,0.0,0.0,0.0,0.0,0.0,0.0,0.0,0.0,0.0,0.0,0.0,0.0,0.0,0.0,0.0,0.0,0.0,0.0,0.0,0.0,0.0,0.0,0.0,0.0,0.0,0.0,0.0,0.0,0.0,0.0,-0.3011,-0.2218,0.0,0.0,0.0,0.0,0.0,0.0,0.0,0.0,0.0,0.0,0.0,0.0,0.0,-0.2979,-0.3202,-0.3205,-0.3228,-0.3251,-0.3254,-0.3005,-0.2596,-0.3058,-0.2957,-0.2435,-0.28,0.0,-0.1392,-0.1381,0.0,0.0,0.0,0.0,0.0,0.0,0.0,0.0,0.0,0.0,0.0,0.0,0.0,0.0,0.0,0.0,0.0,0.0,0.0,0.0,0.0,-0.74,-0.7178,-0.7263,-0.7775,-0.7634,-0.6578,-0.7317,-0.7562,-0.702,-0.7869,-0.8357,-0.8357,-0.9171,-0.9836,-1.0282,-1.1492,-1.2187,-1.2383,-1.3066,-1.3522,-1.3685,-1.292,-1.195,-1.0856,-0.9697,0.0,0.0,0.0,0.0,0.0,0.0,0.0,0.0,0.0,0.0,0.0,0.0,0.0,0.0,0.0,0.0,0.0,0.0,0.0,0.0,0.0,0.0,0.0,0.0,0.0,0.0,0.0,0.0,0.0,0.0,0.0,0.0,0.0,0.0,0.0,0.0,0.0,0.0,0.0,-0.3702,-0.3868,-0.2933,-0.3487,-0.3691,0.0,0.0,0.0,0.0,0.0,0.0,0.0,0.0,0.0,-0.4122,-0.4262,-0.4328,-0.4281,-0.4432,-0.447,-0.4395,-0.4403,-0.4324,-0.4172,-0.4403,-0.4358,-0.4095,-0.4314,-0.4092,-0.3484,-0.2378,-0.1688,-0.1296,0.0,0.0,0.0,0.0,-0.0828,-0.0407,0.0,0.0,0.0,0.0,0.0,0.0,0.0,0.0,0.0,0.0,0.0,0.0,-0.9312,-0.9346,-0.9408,-0.9557,-0.9848,-0.9371,-0.7926,-0.8096,-0.7994,-0.7354,-0.8204,-0.8765,-0.8906,-1.0211,-1.1064,-1.1406,-1.3298,-1.4286,-1.4346,-1.53,-1.5859,-1.6048,-1.5758,-1.4363,-1.2172,-1.0805,-1.0064,0.0,0.0,0.0,0.0,0.0,0.0,0.0,0.0,0.0,0.0,0.0,0.0,0.0,0.0,0.0,0.0,0.0,0.0,0.0,0.0,0.0,0.0,0.0,0.0,0.0,0.0,0.0,0.0,0.0,0.0,0.0,0.0,0.0,0.0,0.0,0.0,0.0,0.0,-0.4574,-0.4719,-0.3805,-0.4613,-0.4965,0.0,0.0,0.0,0.0,0.0,0.0,-0.6,-0.6141,-0.6177,-0.6077,-0.6163,-0.62,-0.6178,-0.616,-0.6218,-0.6321,-0.5993,-0.5891,-0.6013,-0.5914,-0.5749,-0.5536,-0.5617,-0.5471,-0.5076,-0.3559,-0.2649,-0.2229,-0.2219,-0.2149,-0.2073,-0.2345,-0.2341,-0.2255,0.0,0.0,0.0,0.0,0.0,0.0,0.0,0.0,0.0,0.0,0.0,-0.9185,-1.056,-1.0585,-1.1061,-1.2368,-1.1302,-1.0392,-1.0068,-0.8708,-0.803,-0.8239,-0.8532,-0.8947,-0.9448,-1.1511,-1.2649,-1.2798,-1.512,-1.6339,-1.6574,-1.7748,-1.8137,-1.7861,-1.784,-1.6596,-1.4411,-1.2626,-1.1549,-1.0915,0.0,0.0,0.0,0.0,0.0,0.0,0.0,0.0,0.0,0.0,0.0,0.0,0.0,0.0,0.0,0.0,0.0,0.0,0.0,0.0,0.0,0.0,0.0,0.0,0.0,0.0,0.0,0.0,0.0,0.0,0.0,0.0,0.0,0.0,0.0,0.0,0.0,0.0,0.0,-0.4875,-0.5606,0.0,0.0,0.0,0.0,-0.7741,-0.8936,-0.928,-0.8377,-0.8931,-0.9257,-0.9262,-0.8919,-0.9027,-0.9647,-0.8901,-0.8896,-0.9641,-0.8367,-0.7838,-0.7942,-0.7562,-0.6948,-0.6165,-0.6418,-0.6146,-0.545,-0.5106,-0.4861,-0.4712,-0.4723,-0.445,-0.4112,-0.4564,-0.4366,-0.3981,0.0,0.0,0.0,0.0,0.0,0.0,0.0,0.0,-0.7744,-0.7893,-0.9465,-1.0969,-1.2048,-1.2563,-1.3114,-1.3736,-1.3375,-1.2567,-1.1252,-1.0421,-0.9771,-0.935,-0.9512,-1.0122,-1.1198,-1.2272,-1.3341,-1.4393,-1.5514,-1.6809,-1.8254,-1.8688,-1.9171,-1.9667,-1.9094,-1.8235,-1.7034,-1.4412,-1.296,-1.219,-1.0066,-0.9531,0.0,0.0,0.0,0.0,0.0,0.0,0.0,0.0,0.0,0.0,0.0,0.0,0.0,0.0,0.0,0.0,0.0,0.0,0.0,0.0,0.0,0.0,0.0,0.0,0.0,0.0,0.0,0.0,0.0,0.0,0.0,0.0,0.0,0.0,0.0,0.0,0.0,-0.6603,-0.734,0.0,-0.7698,-0.8259,-0.8587,-0.8546,-0.9374,-0.9742,-0.9424,-0.9631,-0.9765,-0.9765,-0.9838,-0.9882,-0.9899,-0.9837,-0.986,-0.9945,-0.9432,-0.9225,-0.9251,-0.9095,-0.8535,-0.7679,-0.7786,-0.7432,-0.6777,-0.669,-0.5952,-0.4928,-0.5287,-0.5092,-0.4709,-0.5115,-0.5045,-0.4774,0.0,0.0,0.0,0.0,0.0,0.0,0.0,0.0,-0.8,-0.8512,-1.0465,-1.225,-1.3424,-1.4277,-1.5023,-1.5576,-1.4983,-1.4044,-1.2692,-1.1592,-1.0795,-1.0355,-1.065,-1.1303,-1.2418,-1.3233,-1.4205,-1.5266,-1.6521,-1.7889,-1.9388,-1.9927,-2.0479,-2.1005,-2.043,-1.9954,-1.9372,-1.6698,-1.4831,-1.3487,-1.1319,-1.0981,-1.1626,0.0,0.0,0.0,0.0,0.0,0.0,0.0,0.0,0.0,0.0,0.0,0.0,0.0,0.0,0.0,0.0,0.0,0.0,0.0,0.0,0.0,0.0,0.0,0.0,0.0,0.0,0.0,0.0,0.0,0.0,0.0,0.0,0.0,0.0,0.0,-0.8317,-0.8212,-0.9223,-0.9819,-0.9548,-1.0003,-1.0212,-0.999,-1.0682,-1.1019,-1.0805,-1.0872,-1.0917,-1.0917,-1.0972,-1.0972,-1.0917,-1.083,-1.0871,-1.0964,-1.0468,-1.0332,-1.0533,-1.0204,-0.9786,-0.9275,-0.9172,-0.8761,-0.8156,-0.8156,-0.726,-0.5946,-0.6308,-0.6179,-0.5818,-0.6186,-0.621,-0.6053,0.0,0.0,0.0,0.0,0.0,0.0,0.0,-0.6738,-0.768,-0.9169,-1.1034,-1.291,-1.4637,-1.5596,-1.6652,-1.7871,-1.6035,-1.4706,-1.4444,-1.2195,-1.0999,-1.1289,-1.1967,-1.2547,-1.2978,-1.4527,-1.5388,-1.5508,-1.8284,-1.9755,-2.0005,-2.1569,-2.2184,-2.1963,-2.1932,-2.1742,-2.1351,-1.949,-1.7287,-1.4939,-1.3654,-1.3432,-1.3641,0.0,0.0,0.0,0.0,0.0,0.0,0.0,0.0,0.0,0.0,0.0,0.0,0.0,0.0,0.0,0.0,0.0,0.0,0.0,0.0,0.0,0.0,0.0,0.0,0.0,0.0,0.0,0.0,0.0,0.0,0.0,0.0,0.0,-0.8877,-0.9532,-0.9987,-0.9714,-1.1133,-1.2024,-1.1744,-1.2564,-1.2831,-1.2186,-1.2971,-1.3234,-1.2568,-1.2782,-1.2915,-1.2915,-1.2457,-1.2437,-1.2895,-1.2054,-1.2054,-1.2871,-1.1513,-1.1209,-1.1796,-1.0888,-1.0605,-1.0805,-1.0531,-1.0044,-0.9426,-0.9426,-0.8849,-0.7963,-0.7939,-0.7762,-0.7544,-0.7806,-0.7925,-0.7841,0.0,0.0,0.0,0.0,0.0,0.0,0.0,-0.7545,-0.8543,-1.0294,-1.2068,-1.3728,-1.528,-1.6386,-1.7168,-1.7519,-1.6133,-1.507,-1.4706,-1.3308,-1.2707,-1.3299,-1.4564,-1.5146,-1.4932,-1.6738,-1.7805,-1.8092,-1.9483,-2.0682,-2.1658,-2.2093,-2.2705,-2.3412,-2.2766,-2.2636,-2.2854,-2.1688,-2.0798,-1.9803,-1.5576,-1.4525,-1.5233,0.0,0.0,0.0,0.0,0.0,0.0,0.0,0.0,0.0,0.0,0.0,0.0,0.0,0.0,0.0,0.0,0.0,0.0,0.0,0.0,0.0,0.0,0.0,0.0,0.0,0.0,0.0,0.0,0.0,0.0,0.0,0.0,-1.0924,-1.0749,-1.1192,-1.1579,-1.177,-1.2162,-1.2426,-1.2354,-1.28,-1.3041,-1.2831,-1.3498,-1.3723,-1.3259,-1.3297,-1.3203,-1.2915,-1.2754,-1.2778,-1.2915,-1.2661,-1.2661,-1.2915,-1.2517,-1.2421,-1.2584,-1.2323,-1.1864,-1.1214,-1.1155,-1.074,-1.0116,-1.0116,-0.9773,-0.9224,-0.8743,-0.8232,-0.7842,-0.8136,-0.8257,-0.8143,0.0,0.0,0.0,0.0,0.0,0.0,0.0,-0.7554,-0.8644,-1.0397,-1.244,-1.4294,-1.5709,-1.6603,-1.7187,-1.7363,-1.584,-1.4771,-1.4553,-1.4059,-1.4157,-1.5038,0.0,-1.6975,-1.6922,-1.8203,-1.9057,-1.9456,-2.0293,-2.1319,-2.2463,-2.282,-2.3502,-2.4299,-2.3796,-2.3896,-2.4326,-2.3461,-2.3317,-2.3386,-1.9738,-1.8388,-1.8261,-1.5536,-1.5256,-1.6134,-1.4455,-1.3769,-1.3476,-1.2262,0.0,0.0,0.0,0.0,0.0,0.0,0.0,0.0,0.0,0.0,0.0,0.0,0.0,0.0,0.0,0.0,0.0,0.0,0.0,0.0,0.0,0.0,0.0,0.0,-1.2289,-1.2767,-1.3337,-1.3219,-1.3212,-1.3595,-1.4028,-1.4315,-1.4315,-1.4337,-1.4354,-1.4354,-1.4388,-1.4219,-1.3763,-1.3588,-1.332,-1.2915,-1.2915,-1.2915,-1.2915,-1.2915,-1.2915,-1.2915,-1.2915,-1.2915,-1.2915,-1.2915,-1.259,0.0,-1.2035,-1.1634,-1.0988,-1.0988,-1.0681,0.0,0.0,0.0,0.0,0.0,-0.8482,-0.8485,0.0,0.0,0.0,0.0,0.0,0.0,0.0,-0.7307,-0.8525,-1.0162,-1.2469,-1.4473,-1.5822,-1.632,-1.6687,-1.7051,-1.537,-1.4373,-1.4537,-1.4818,-1.5494,-1.6646,-1.7676,-1.8405,-1.8788,-1.9412,-1.9901,-2.0226,-2.1077,-2.1998,-2.2951,-2.3709,-2.4381,-2.4876,-2.4951,-2.5285,-2.5753,-2.5032,-2.524,-2.5947,-2.4709,-2.3342,-2.1753,-1.8476,-1.8365,-1.9574,-1.6947,-1.6071,-1.5893,-1.4428,0.0,0.0,0.0,0.0,0.0,0.0,0.0,0.0,0.0,0.0,0.0,0.0,0.0,0.0,0.0,0.0,0.0,0.0,0.0,0.0,0.0,0.0,0.0,0.0,-1.3425,-1.4724,-1.6063,-1.5378,-1.4872,-1.5247,-1.6109,-1.6707,-1.6707,-1.6367,-1.6144,-1.6105,-1.5381,-1.4727,-1.4211,0.0,0.0,0.0,0.0,-1.2954,-1.2915,-1.2954,-1.2954,-1.2915,-1.2915,-1.2915,-1.2915,-1.2915,-1.2915,-1.2915,-1.2915,-1.2535,-1.1913,-1.1913,-1.1516,-1.0838,-1.009,-0.9248,-0.8456,-0.8456,-0.8591,-0.8778,0.0,0.0,0.0,0.0,0.0,0.0,0.0,-0.8363,-0.9563,-1.1736,-1.2682,-1.368,-1.5143,-1.551,-1.5566,-1.5312,-1.5449,-1.5859,-1.666,-1.6762,-1.7315,-1.8462,-1.9992,-2.0499,-1.9888,-2.154,-2.2292,-2.2162,-2.3039,-2.3785,-2.44,-2.4561,-2.4933,-2.546,-2.5971,-2.6474,-2.6992,-2.724,-2.7467,-2.7568,-2.65,-2.471,-2.2573,-2.1198,-2.0337,-1.9728,-1.8476,-1.8321,-1.8521,-1.7387,-1.6538,-1.5793,-1.4898,0.0,0.0,0.0,0.0,0.0,0.0,0.0,0.0,0.0,0.0,0.0,0.0,0.0,0.0,0.0,0.0,0.0,0.0,0.0,0.0,-1.391,-1.4918,-1.6022,-1.7012,-1.6954,-1.6703,-1.6401,-1.6585,-1.6707,-1.6707,-1.6629,-1.6445,-1.6124,-1.5948,-1.5498,-1.4707,-1.4231,0.0,-1.3398,-1.3379,-1.3223,-1.2915,-1.3223,-1.3223,-1.2915,0.0,0.0,-1.2915,-1.2915,-1.2915,-1.2915,-1.2915,-1.2822,-1.27,-1.27,-1.227,-1.1491,-1.0269,-0.9351,-0.8724,-0.8724,-0.8764,-0.8804,0.0,0.0,0.0,0.0,0.0,0.0,0.0,-0.8388,-0.9356,-1.1166,-1.2076,-1.2914,-1.3892,-1.4096,-1.4062,-1.3874,-1.4274,-1.521,-1.6765,-1.7654,-1.8907,-2.0588,-2.1995,-2.267,-2.2519,-2.3461,-2.3884,-2.3773,-2.4183,-2.4682,-2.5209,-2.5511,-2.5937,-2.6465,-2.7077,-2.7444,-2.772,-2.8273,-2.8524,-2.8474,-2.8272,-2.6808,-2.456,-2.3101,-2.2103,-2.1385,-2.0566,-2.0407,-2.0495,-1.958,-1.854,-1.7554,-1.6617,-1.4862,-1.2954,0.0,0.0,0.0,0.0,0.0,0.0,0.0,0.0,0.0,0.0,0.0,0.0,0.0,0.0,-1.268,0.0,0.0,-1.5244,-1.5642,-1.6459,-1.7376,-1.8223,-1.8144,-1.7852,-1.7389,-1.733,-1.733,-1.733,-1.7187,-1.6875,-1.6426,-1.6222,-1.5713,-1.4852,-1.457,-1.4258,-1.3802,-1.3802,-1.3685,-1.3516,-1.3685,-1.3685,-1.3516,-1.3516,-1.3398,-1.3203,-1.3203,-1.3086,-1.2915,-1.2915,-1.2915,-1.2915,-1.2915,-1.2486,-1.174,-1.1065,-1.0192,-0.9263,-0.8936,-0.8804,-0.8804,0.0,0.0,0.0,0.0,0.0,0.0,0.0,-0.8269,-0.9037,-1.0137,-1.127,-1.2148,-1.2602,-1.2641,-1.2776,-1.3094,-1.328,-1.4373,0.0,-1.8437,-2.0288,-2.2343,-2.3552,-2.4406,-2.4926,-2.4983,-2.5051,-2.531,-2.531,-2.5561,-2.6088,-2.66,-2.7052,-2.7469,-2.8021,-2.8273,-2.8298,-2.8813,-2.9063,-2.9126,-2.9603,-2.8593,-2.664,-2.4784,-2.3659,-2.2984,-2.2187,-2.1777,-2.1564,-2.084,-1.964,-1.8395,-1.7778,-1.6444,-1.482,-1.2997,-1.2161,0.0,0.0,0.0,0.0,0.0,0.0,0.0,0.0,0.0,-1.1538,-1.2479,-1.3575,-1.4373,-1.4442,-1.5538,-1.6657,-1.7214,-1.7781,-1.8379,-1.9062,-1.8789,-1.8364,-1.8047,-1.8008,-1.8008,-1.8008,-1.7695,-1.7324,-1.6863,-1.6445,-1.5889,-1.5107,-1.4883,-1.4629,-1.425,-1.4231,-1.4192,-1.4114,-1.4192,-1.4192,-1.4114,-1.4114,-1.3938,-1.3607,-1.3555,-1.332,-1.3008,-1.2935,-1.2915,-1.2915,-1.2993,-1.2575,-1.189,-1.1836,-1.1053,-0.9895,-0.9323,-0.8991,-0.8871,0.0,0.0,0.0,0.0,0.0,0.0,0.0,0.0,-0.9653,-1.0215,-1.0742,-1.123,-1.1682,-1.1763,-1.2345,-1.3828,-1.4003,0.0,-1.8486,-1.9835,-2.1242,-2.2945,-2.4098,-2.4983,-2.5511,-2.5511,-2.6013,-2.7017,-2.7017,-2.7293,-2.7821,-2.7896,-2.7946,-2.8047,-2.8562,-2.8787,-2.8838,-2.9453,-2.9704,-2.9704,-2.9754,-2.9028,-2.7804,-2.6594,-2.4893,-2.2984,-2.2187,-2.1387,-2.0742,-2.0644,-1.9962,-1.9226,-1.9498,-1.8275,-1.6544,-1.5537,0.0,-1.1076,-1.0483,-1.0037,-0.9997,-1.0899,-1.1192,-1.1604,0.0,0.0,-1.4123,-1.4641,-1.5638,-1.6325,-1.6094,-1.7002,-1.7935,-1.8337,-1.8484,-1.8559,-1.8656,-1.8305,-1.8066,-1.8008,-1.8008,-1.8008,-1.8008,-1.7969,-1.7773,-1.7344,-1.6914,-1.6445,-1.5968,-1.5224,-1.4793,-1.4707,-1.4707,-1.4531,-1.4114,-1.4512,-1.4512,-1.4114,-1.4114,-1.4094,-1.4016,-1.3646,-1.3477,-1.3418,-1.3071,-1.2915,-1.2935,-1.3281,-1.2959,-1.2227,-1.1981,-1.1356,-1.0559,-1.025,-0.9726,-0.9204,0.0,0.0,0.0,0.0,0.0,0.0,0.0,0.0,0.0,-0.9488,-0.9906,-1.0312,-1.0782,-1.0841,-1.1247,-1.2223,-1.3157,0.0,-1.7922,-2.0031,-2.2171,-2.4481,-2.5661,-2.6515,-2.7042,-2.7067,-2.7293,-2.777,-2.777,-2.7871,-2.8122,-2.8423,-2.8574,-2.8599,-2.9176,-2.9428,-2.9453,-2.9679,-2.9804,-2.9804,-2.9804,-2.9106,-2.7933,-2.6354,-2.444,-2.2452,-2.1471,-2.0605,0.0,0.0,-1.9004,-1.8906,-1.8828,-1.8089,-1.694,-1.5383,-1.3739,0.0,-1.0653,-1.0362,-1.0739,0.0,-1.2517,-1.3296,-1.5011,-1.547,-1.5734,-1.6603,-1.734,-1.7867,-1.8031,-1.8437,-1.8809,0.0,-1.9023,-1.9023,-1.9023,-1.8437,-1.8008,-1.8008,-1.7545,-1.7428,-1.7969,-1.8008,-1.7832,-1.7422,-1.7207,-1.6797,-1.6124,-1.5752,-1.5439,-1.5156,-1.5156,-1.5059,-1.4855,-1.5059,-1.5059,-1.4855,-1.4855,-1.4718,-1.4512,-1.4336,-1.4121,-1.3841,-1.3665,-1.3613,-1.3613,-1.3763,-1.3657,-1.334,-1.3221,-1.2863,-1.2183,-1.0549,-0.9741,-0.9512,0.0,0.0,0.0,0.0,0.0,0.0,0.0,0.0,0.0,0.0,-0.9151,-0.9544,-1.004,-1.0215,-1.0486,-1.0962,0.0,0.0,0.0,-1.9702,-2.2376,-2.4808,-2.6289,-2.7394,-2.8097,-2.8247,-2.8423,-2.8574,-2.8574,-2.8574,-2.8574,-2.8976,-2.9139,-2.9176,-2.9603,-2.9804,-2.9804,-2.9804,-2.9804,-2.9804,-2.9804,-2.9128,-2.7873,-2.5655,-2.3594,-2.166,-2.0366,-1.916,0.0,0.0,-1.7389,-1.7525,-1.75,-1.7266,-1.6772,-1.5317,-1.4008,-1.2671,-1.1078,-1.0872,-1.1537,-1.3263,-1.411,-1.4935,-1.6683,-1.7083,-1.737,-1.8197,-1.8691,-1.8987,-1.9102,-1.9199,-1.9238,-1.9121,-1.9102,-1.9102,-1.9102,-1.8379,-1.7832,-1.7832,-1.7155,-1.6999,-1.7773,-1.7832,-1.7754,-1.7578,-1.7441,-1.7142,-1.6496,-1.6339,-1.6113,-1.5751,-1.5781,-1.5781,-1.5781,-1.5781,-1.5781,-1.5781,-1.5644,-1.543,-1.5165,-1.493,-1.4551,-1.4114,-1.4114,-1.4114,-1.4114,-1.4231,-1.4154,-1.3963,-1.4078,-1.3839,-1.3194,-1.1313,-1.0566,-1.0508,0.0,0.0,0.0,0.0,0.0,0.0,0.0,0.0,0.0,0.0,0.0,0.0,0.0,-0.9981,-1.0486,0.0,0.0,0.0,0.0,-1.8908,-2.1443,-2.3095,-2.531,-2.7027,-2.8072,-2.8587,-2.9176,-2.9754,-2.9754,-2.9754,-2.9754,-2.9754,-2.9754,-2.9754,-2.9779,-2.9804,-2.9804,-2.9804,-2.9804,-2.9804,-2.9804,-2.9126,-2.7802,-2.5021,-2.2685,-2.0667,-1.8758,0.0,0.0,0.0,-1.5234,-1.5067,-1.5889,-1.6144,0.0,-1.6055,-1.4183,-1.2108,-1.2064,-1.1853,-1.2389,-1.5272,-1.6103,-1.6522,-1.7702,-1.8613,-1.9238,-1.9238,-1.959,-1.9629,-1.8773,-1.9004,-1.916,-1.8695,-1.8617,-1.8617,-1.8617,-1.793,-1.7435,-1.7435,-1.7012,-1.6882,0.0,-1.7435,-1.7559,-1.7949,-1.7617,-1.7396,-1.7376,-1.6934,-1.6668,-1.6668,-1.6668,-1.6668,-1.6668,-1.6668,-1.6668,-1.6648,-1.6281,-1.6065,-1.6026,-1.5185,-1.4551,-1.4114,-1.4114,-1.4114,-1.4133,-1.459,-1.4326,-1.3654,-1.4033,-1.37,-1.3023,-1.2915,-1.2731,-1.2543,0.0,0.0,0.0,0.0,0.0,0.0,0.0,0.0,0.0,0.0,0.0,0.0,0.0,0.0,0.0,0.0,0.0,0.0,0.0,-1.7702,-2.0143,-2.2468,-2.4381,-2.5887,-2.7027,-2.7544,-2.8122,-2.8674,-2.9051,-2.9189,-2.9189,-2.9603,-2.9804,-2.9804,-2.9804,-2.9804,-2.9804,-2.9804,-2.886,-2.7397,-2.7397,-2.6227,-2.4212,-2.1969,-2.016,-1.8515,0.0,0.0,0.0,0.0,0.0,0.0,-1.4277,-1.4375,-1.4223,-1.3414,-1.2228,-1.1373,-1.2208,-1.2914,-1.4025,-1.6496,-1.77,-1.8559,-1.9494,-1.9959,-2.0018,-1.9394,-1.918,-1.8676,-1.7545,-1.7734,-1.7891,-1.7408,-1.8052,-1.85,-1.8227,-1.8223,-1.7876,-1.7051,-1.707,0.0,0.0,0.0,0.0,-1.7969,-1.7871,-1.7676,-1.7402,-1.7246,-1.7031,-1.6707,-1.6707,-1.6707,-1.6707,-1.6707,-1.6707,-1.6707,-1.6551,-1.6348,-1.6085,-1.6074,-1.584,-1.543,-1.5693,-1.5654,-1.5449,-1.5898,-1.5748,-1.5308,-1.5697,-1.5543,-1.5104,-1.5352,-1.5018,-1.4326,0.0,0.0,0.0,0.0,0.0,0.0,0.0,0.0,0.0,0.0,0.0,0.0,0.0,0.0,0.0,0.0,0.0,0.0,0.0,0.0,-1.8531,-2.0415,-2.233,-2.3678,-2.4412,-2.4965,-2.5485,-2.6038,-2.6355,-2.6731,-2.7132,-2.7268,-2.7532,-2.7804,-2.7544,-2.7529,-2.77,-2.7791,-2.6724,-2.4921,-2.5035,-2.3675,-2.1358,-1.9482,-1.7994,0.0,0.0,0.0,0.0,0.0,0.0,-1.3281,-1.3281,-1.3272,-1.3051,-1.1889,-1.1402,-1.145,-1.2436,-1.3798,-1.5377,-1.737,-1.8824,-1.9881,-2.0234,-2.0253,-1.9862,-1.8809,-1.8262,-1.7525,-1.6239,-1.6387,-1.6582,-1.6278,-1.7038,-1.7793,-1.7988,-1.8105,-1.7954,-1.7447,-1.7519,-1.7559,0.0,0.0,0.0,-1.7988,-1.8008,-1.7891,-1.7617,-1.7598,-1.748,-1.7155,-1.7155,-1.7155,-1.7155,-1.7155,-1.7077,-1.6973,-1.6973,-1.6738,-1.6309,-1.657,-1.6551,-1.6328,-1.657,-1.6531,-1.6328,-1.659,-1.6562,-1.6328,-1.659,-1.6562,-1.6328,-1.659,-1.6336,-1.5729,0.0,0.0,0.0,0.0,0.0,0.0,0.0,0.0,0.0,0.0,0.0,0.0,0.0,0.0,0.0,0.0,0.0,0.0,0.0,0.0,0.0,-1.7099,-1.9277,-2.0461,-2.0511,-2.1037,-2.1587,-2.2163,-2.2135,-2.2739,-2.3816,-2.3108,-2.3254,-2.4086,-2.3421,-2.3324,-2.3771,-2.4048,-2.3461,-2.2363,-2.2686,-2.1452,-1.9216,-1.7581,0.0,0.0,0.0,0.0,0.0,0.0,0.0,-1.2935,-1.2935,-1.2913,-1.2686,-1.1708,-1.1776,-1.2294,-1.2863,-1.4532,-1.6431,-1.795,-1.9484,-2.0488,-1.998,-1.9531,-1.8867,-1.7611,-1.6953,-1.62,-1.4961,-1.5059,-1.5352,-1.5381,-1.584,-1.6633,-1.7871,-1.7754,-1.7812,0.0,0.0,0.0,0.0,0.0,0.0,-1.8066,0.0,-1.8047,-1.8066,-1.8066,-1.8066,-1.8066,-1.8066,-1.8066,-1.8066,-1.8047,-1.7852,-1.7441,-1.7422,-1.7187,-1.6746,-1.6765,-1.6746,-1.6746,-1.6765,-1.6746,-1.6746,-1.6765,-1.6746,-1.6746,-1.6765,-1.6746,-1.6746,-1.6765,-1.6746,-1.6707,0.0,0.0,0.0,0.0,0.0,0.0,0.0,0.0,0.0,0.0,0.0,0.0,0.0,0.0,0.0,0.0,0.0,0.0,0.0,0.0,0.0,0.0,0.0,0.0,0.0,0.0,0.0,-2.035,-2.0097,-2.0514,-2.1453,-2.133,-2.1393,-2.162,-2.1739,-2.1666,-2.1522,-2.1914,-2.0877,-1.8959,0.0,-1.7665,-1.5492,0.0,0.0,0.0,0.0,0.0,0.0,0.0,0.0,-1.334,-1.334,-1.2977,-1.253,-1.2679,-1.2347,-1.2368,-1.4193,-1.5888,-1.7417,-1.878,-1.9858,-2.041,-1.9609,-1.8867,-1.7969,-1.6692,-1.5831,-1.498,-1.4004,-1.4153,-1.464,-1.5284,-1.6602,0.0,-1.8344,-1.9219,0.0,-1.8695,0.0,-1.9182,-1.8656,-1.8828,0.0,0.0,-1.8617,-1.8578,-1.8945,-1.8965,-1.8965,-1.8965,-1.8965,-1.8965,-1.8965,-1.8633,-1.8383,-1.8286,-1.8008,-1.7637,-1.7227,-1.7539,-1.7519,-1.7227,-1.7539,-1.75,-1.7246,-1.7559,-1.75,-1.7246,-1.7559,-1.75,-1.7266,-1.7578,-1.7252,-1.6785,0.0,0.0,0.0,0.0,0.0,0.0,0.0,0.0,0.0,0.0,0.0,0.0,0.0,0.0,0.0,0.0,0.0,0.0,0.0,0.0,0.0,0.0,0.0,0.0,0.0,0.0,0.0,0.0,0.0,0.0,-1.8104,-1.8002,-1.8177,-1.8603,-1.8489,-1.8428,-1.8414,-1.8755,0.0,0.0,0.0,0.0,0.0,0.0,0.0,0.0,0.0,0.0,0.0,0.0,0.0,-1.4022,-1.3716,-1.3584,-1.351,-1.3315,0.0,-1.3142,-1.4455,-1.616,-1.7796,-1.8535,-1.9519,-2.0,-1.8965,-1.8066,-1.6999,-1.5527,-1.4687,-1.4023,-1.3359,-1.3418,-1.3841,0.0,0.0,0.0,-1.8188,-1.9473,-2.0156,0.0,-2.0371,0.0,-1.9806,-2.0,-2.0059,0.0,-1.9277,-1.9023,-1.9277,-1.9297,-1.9297,-1.9297,-1.9297,-1.9297,-1.9297,-1.9043,-1.8926,-1.889,-1.8691,-1.8437,-1.8223,-1.8457,-1.8437,-1.8277,0.0,-1.834,-1.7949,-1.8184,-1.8047,-1.7676,-1.791,-1.7871,-1.7695,-1.793,-1.7681,-1.733,0.0,0.0,0.0,0.0,0.0,0.0,0.0,0.0,0.0,0.0,0.0,0.0,0.0,0.0,0.0,0.0,0.0,0.0,0.0,0.0,0.0,0.0,0.0,0.0,0.0,0.0,0.0,0.0,0.0,0.0,0.0,0.0,0.0,0.0,0.0,0.0,0.0,0.0,0.0,0.0,0.0,0.0,0.0,0.0,0.0,0.0,0.0,0.0,0.0,0.0,-1.4512,-1.48,-1.4321,-1.4625,-1.4997,-1.4188,-1.4163,-1.4402,-1.4484,-1.6296,-1.8071,-1.7811,-1.8748,-1.9377,-1.8125,-1.7058,-1.5907,-1.4348,0.0,-1.332,-1.2949,-1.2954,-1.3262,-1.4133,0.0,-1.6161,-1.793,-1.9238,-2.0312,-2.1093,-2.1621,-2.1738,-2.1327,-2.1288,-2.1152,-2.0801,-2.0059,-1.9609,-1.9551,-1.9492,-1.9453,-1.9453,-1.9512,-1.9512,-1.9453,-1.9453,-1.9434,-1.9375,-1.9316,-1.9297,-1.9297,-1.9297,-1.9297,-1.9297,0.0,0.0,-1.8695,-1.8695,-1.8481,-1.8184,-1.8184,-1.8144,-1.8086,-1.8086,-1.8066,-1.8008,0.0,0.0,0.0,0.0,0.0,0.0,0.0,0.0,0.0,0.0,-0.7314,0.0,0.0,0.0,0.0,0.0,0.0,0.0,0.0,0.0,0.0,0.0,0.0,0.0,0.0,0.0,0.0,0.0,0.0,0.0,0.0,0.0,0.0,0.0,0.0,0.0,0.0,0.0,0.0,0.0,0.0,0.0,0.0,0.0,0.0,0.0,0.0,0.0,0.0,0.0,-1.4961,-1.542,-1.6004,-1.603,-1.602,-1.7114,-1.6702,-1.6048,-1.6536,-1.8186,-1.9428,-1.8003,-1.8219,-1.8481,-1.7213,-1.5693,0.0,0.0,-1.3281,-1.2993,-1.2915,-1.3164,-1.3789,-1.4972,0.0,0.0,0.0,0.0,-2.0644,0.0,0.0,0.0,0.0,0.0,0.0,0.0,0.0,-2.1269,-2.0878,-2.0547,-2.039,-2.039,-2.0703,-2.0723,-2.039,-2.039,-2.0156,-1.9805,-1.9453,-1.9297,-1.9297,-1.9297,-1.9297,-1.9297,-1.9297,0.0,-1.918,-1.918,-1.9121,-1.9062,-1.9062,-1.8848,-1.85,-1.85,-1.8266,-1.8066,0.0,0.0,0.0,0.0,0.0,0.0,0.0,0.0,0.0,0.0,-0.9408,-0.8576,0.0,0.0,0.0,0.0,0.0,0.0,0.0,0.0,0.0,0.0,0.0,0.0,0.0,0.0,0.0,0.0,0.0,0.0,0.0,0.0,0.0,0.0,0.0,0.0,0.0,0.0,0.0,0.0,0.0,0.0,0.0,0.0,0.0,0.0,0.0,0.0,0.0,0.0,-1.4727,-1.5303,-1.6464,-1.7117,-1.7535,-1.8158,-1.8011,-1.7711,-1.8277,-1.9215,-1.9853,-1.8815,-1.8428,-1.7935,-1.668,0.0,0.0,0.0,-1.3027,-1.2915,-1.2915,-1.3071,0.0,0.0,0.0,0.0,0.0,0.0,0.0,0.0,0.0,0.0,0.0,0.0,0.0,0.0,0.0,-2.2031,-2.1602,-2.1367,-2.129,-2.129,-2.1465,-2.1367,-2.0918,-2.1133,-2.0957,-2.0254,-2.0293,-2.0176,-1.9999,-1.9999,-1.9999,-1.9999,-1.9999,0.0,-1.9609,-1.9609,-1.9803,-2.0088,-2.0088,-2.023,-2.0477,-2.0477,-2.0329,-2.0215,0.0,0.0,0.0,0.0,0.0,0.0,0.0,-1.1314,-1.1516,-1.1619,-1.1358,-1.0422,-0.8398,-0.7592,-0.7113,0.0,0.0,0.0,0.0,0.0,0.0,0.0,0.0,0.0,0.0,0.0,0.0,0.0,0.0,0.0,0.0,0.0,0.0,0.0,0.0,0.0,0.0,0.0,0.0,0.0,0.0,0.0,0.0,0.0,0.0,0.0,0.0,0.0,0.0,0.0,-1.4328,-1.4897,-1.6333,-1.7513,-1.8311,-1.826,-1.846,-1.8786,-1.9282,-1.957,-1.9671,-1.9347,-1.8341,-1.7221,-1.618,-1.4863,0.0,0.0,-1.2915,-1.2915,-1.2915,-1.2915,-1.3208,0.0,-1.457,0.0,0.0,0.0,0.0,0.0,0.0,0.0,0.0,0.0,0.0,0.0,0.0,0.0,-2.1914,-2.1973,-2.1973,-2.1894,-2.1973,-2.1816,-2.1327,-2.1797,-2.1621,-2.0899,-2.1211,-2.1191,-2.0879,-2.0879,-2.084,-2.0742,-2.0976,0.0,0.0,-2.0604,-2.0937,-2.1361,-2.1361,-2.1791,-2.2364,-2.2364,-2.2297,-2.2207,0.0,0.0,0.0,0.0,0.0,0.0,0.0,-1.1288,-1.1991,-1.2579,-1.196,-1.0842,-0.9261,-0.8338,-0.7499,0.0,0.0,0.0,0.0,0.0,0.0,0.0,0.0,0.0,0.0,0.0,0.0,0.0,0.0,0.0,0.0,0.0,0.0,0.0,0.0,0.0,0.0,0.0,0.0,0.0,0.0,0.0,0.0,0.0,0.0,0.0,0.0,0.0,0.0,0.0,0.0,-1.4406,-1.5769,-1.6544,-1.7058,-1.7594,0.0,0.0,-1.8963,-1.904,-1.8873,-1.8778,-1.7239,-1.5677,-1.5523,0.0,0.0,-1.2915,-1.2915,-1.2915,-1.2915,-1.2915,-1.3306,0.0,0.0,-1.5547,0.0,0.0,0.0,0.0,0.0,0.0,0.0,0.0,0.0,0.0,0.0,0.0,-2.1934,-2.2246,-2.2285,-2.1894,-2.2246,-2.2246,-2.1836,-2.2246,-2.2227,-2.1758,-2.1797,-2.1797,-2.1758,-2.1758,-2.1543,-2.1212,-2.2103,0.0,0.0,-2.2774,-2.3194,-2.3245,-2.3245,-2.3086,-2.2848,-2.2848,-2.2555,-2.2252,0.0,0.0,0.0,0.0,0.0,0.0,0.0,-1.1761,-1.235,-1.3166,-1.285,-1.1798,-0.9951,-0.9111,-0.8192,0.0,0.0,0.0,0.0,0.0,0.0,0.0,0.0,0.0,0.0,0.0,0.0,0.0,0.0,0.0,0.0,0.0,0.0,0.0,0.0,0.0,0.0,0.0,0.0,0.0,0.0,0.0,0.0,0.0,0.0,0.0,0.0,0.0,0.0,0.0,0.0,0.0,-1.4011,-1.4649,0.0,0.0,-1.8527,-1.9155,-2.0429,-2.0515,-2.0191,-1.9895,-1.8018,-1.6077,-1.5526,0.0,-1.2915,-1.2915,-1.2915,-1.2915,-1.2915,-1.2915,-1.3203,0.0,0.0,0.0,0.0,0.0,0.0,0.0,0.0,0.0,0.0,0.0,0.0,0.0,0.0,0.0,-2.2656,-2.275,-2.2769,-2.2637,-2.2769,-2.2695,-2.2266,-2.2676,-2.2559,-2.1894,-2.2148,-2.2129,-2.1894,-2.1894,-2.1797,-2.1621,-2.2049,0.0,0.0,-2.2986,-2.3764,-2.4852,-2.4536,-2.4696,-2.5092,-2.5092,-2.4947,-2.4812,0.0,0.0,0.0,0.0,0.0,0.0,-1.1449,-1.2115,-1.2607,-1.3158,-1.313,-1.2274,-1.0306,-0.9337,-0.8445,-0.7508,0.0,0.0,0.0,0.0,0.0,0.0,0.0,0.0,0.0,0.0,0.0,0.0,0.0,0.0,0.0,0.0,0.0,0.0,0.0,0.0,0.0,0.0,0.0,0.0,0.0,0.0,0.0,0.0,0.0,0.0,0.0,0.0,0.0,0.0,0.0,0.0,0.0,0.0,0.0,0.0,-1.7662,-1.8726,-2.0232,-2.0294,-2.0024,-2.0314,-1.827,-1.6046,0.0,0.0,-1.2915,-1.2915,-1.2915,-1.2915,-1.2915,-1.2915,-1.3145,0.0,0.0,-1.4328,0.0,0.0,0.0,0.0,0.0,0.0,0.0,0.0,0.0,0.0,0.0,0.0,0.0,-2.3101,-2.3101,-2.3101,-2.3101,-2.2945,-2.2695,-2.2945,-2.2808,-2.2266,-2.2559,-2.2539,-2.2246,-2.2246,-2.2187,-2.2112,0.0,0.0,0.0,-2.4178,-2.5148,-2.6445,-2.6045,-2.6353,-2.6952,-2.6801,-2.6751,-2.6751,0.0,0.0,0.0,0.0,0.0,0.0,0.0,-1.2244,-1.2788,-1.2464,-1.2526,-1.1982,-1.0295,-0.8791,-0.8032,-0.8362,0.0,0.0,0.0,0.0,0.0,0.0,0.0,0.0,0.0,0.0,0.0,0.0,0.0,0.0,0.0,0.0,0.0,0.0,0.0,0.0,0.0,0.0,0.0,0.0,0.0,0.0,0.0,0.0,0.0,0.0,0.0,0.0,0.0,0.0,0.0,0.0,0.0,-1.232,-1.297,0.0,-1.4663,-1.644,-1.7475,-1.7337,-1.7419,-1.9392,-1.7392,-1.4996,0.0,0.0,-1.2915,-1.2915,-1.2915,-1.2915,-1.2915,-1.2915,-1.3145,-1.3977,0.0,0.0,0.0,0.0,0.0,0.0,0.0,0.0,0.0,0.0,0.0,0.0,0.0,0.0,0.0,-2.3101,-2.3101,-2.3101,-2.3101,-2.3101,-2.3081,-2.3101,-2.3081,-2.3081,-2.3081,-2.3081,-2.3081,-2.3081,-2.2847,0.0,0.0,0.0,0.0,-2.7199,-2.806,-2.8097,-2.806,-2.806,-2.8021,-2.7469,-2.7268,-2.7268,0.0,0.0,0.0,0.0,0.0,0.0,0.0,-1.0554,-1.066,-1.0871,-1.053,-1.0082,-0.9557,-0.8751,-0.8295,-0.8389,0.0,0.0,0.0,0.0,0.0,0.0,0.0,0.0,0.0,0.0,0.0,0.0,0.0,0.0,0.0,0.0,0.0,0.0,0.0,0.0,0.0,0.0,0.0,0.0,0.0,0.0,0.0,0.0,0.0,0.0,0.0,0.0,0.0,0.0,0.0,0.0,0.0,0.0,0.0,-1.2232,-1.3672,-1.5517,-1.6684,-1.6906,-1.6917,-1.7572,-1.6261,-1.4772,-1.4557,0.0,-1.2915,-1.2915,-1.2915,-1.2915,-1.2915,-1.2915,-1.3287,-1.4394,-1.457,0.0,0.0,0.0,0.0,0.0,0.0,0.0,0.0,0.0,0.0,0.0,0.0,0.0,0.0,-2.3101,-2.3101,-2.3101,-2.3101,-2.3101,-2.3101,-2.3101,-2.3101,-2.3101,-2.3101,-2.3101,-2.3101,-2.3101,0.0,0.0,0.0,0.0,0.0,-2.6306,-2.7277,-2.8587,-2.8247,-2.8097,-2.8047,-2.7494,-2.7293,-2.7293,0.0,0.0,0.0,0.0,0.0,0.0,0.0,-0.9615,-0.9431,-0.9468,-0.9166,-0.8974,-0.9059,-0.835,-0.8027,-0.8375,0.0,0.0,0.0,0.0,0.0,0.0,0.0,0.0,0.0,0.0,0.0,0.0,0.0,0.0,0.0,0.0,0.0,0.0,0.0,0.0,0.0,0.0,0.0,0.0,0.0,0.0,-0.7006,0.0,0.0,0.0,0.0,0.0,0.0,0.0,0.0,0.0,0.0,0.0,0.0,0.0,-1.2889,-1.4355,-1.5644,-1.6083,-1.6239,-1.6445,-1.5508,-1.4473,-1.4172,0.0,-1.2915,-1.2915,-1.2915,-1.2915,-1.2915,-1.2915,-1.3267,-1.4355,-1.4668,0.0,0.0,0.0,0.0,0.0,0.0,0.0,0.0,0.0,0.0,0.0,0.0,0.0,0.0,-2.3101,-2.3101,-2.3101,-2.3101,-2.3101,-2.3101,-2.3101,-2.3101,-2.3101,-2.3101,-2.3101,-2.3101,-2.3101,0.0,0.0,0.0,0.0,0.0,-2.6995,-2.7984,-2.9227,-2.8875,-2.875,-2.8674,-2.8122,-2.7896,-2.7896,0.0,0.0,0.0,0.0,0.0,0.0,0.0,0.0,0.0,0.0,-0.8333,-0.8464,-0.8668,-0.7659,-0.7361,0.0,0.0,0.0,0.0,0.0,0.0,0.0,0.0,0.0,0.0,0.0,0.0,-0.9715,-0.9699,-1.014,-1.0955,0.0,0.0,0.0,0.0,0.0,0.0,0.0,0.0,0.0,0.0,-0.7006,0.0,0.0,0.0,0.0,0.0,0.0,0.0,0.0,0.0,0.0,0.0,0.0,0.0,0.0,0.0,0.0,0.0,-1.4941,-1.5332,-1.5772,-1.4941,-1.4016,-1.4016,0.0,0.0,-1.2915,-1.2915,-1.2915,-1.2969,-1.2974,-1.3223,-1.4094,-1.4648,0.0,0.0,0.0,0.0,0.0,0.0,0.0,0.0,0.0,0.0,0.0,0.0,0.0,0.0,-2.3101,-2.3101,-2.3101,-2.3101,-2.3101,-2.3101,-2.3101,-2.3101,-2.3101,-2.3101,-2.3101,-2.3101,-2.3101,0.0,0.0,0.0,0.0,0.0,-2.8712,-2.9663,-2.9804,-2.9804,-2.9804,-2.9729,-2.9113,-2.8888,-2.8888,0.0,0.0,0.0,0.0,0.0,0.0,0.0,0.0,0.0,0.0,-0.7624,-0.7373,-0.7415,-0.7166,0.0,0.0,0.0,0.0,0.0,0.0,0.0,0.0,0.0,0.0,0.0,0.0,0.0,-0.9715,-0.9913,-1.0234,-1.0693,-1.0626,0.0,0.0,0.0,-0.7869,-0.7006,0.0,0.0,0.0,-0.7006,-0.7006,0.0,0.0,0.0,0.0,-0.7766,-0.8029,0.0,0.0,0.0,0.0,0.0,0.0,0.0,0.0,-1.1925,-1.2974,-1.3267,0.0,-1.3496,-1.3619,-1.3424,-1.3184,0.0,-1.3052,0.0,0.0,0.0,0.0,0.0,-1.3574,-1.3848,-1.54,-1.5977,-1.6551,0.0,0.0,0.0,0.0,0.0,0.0,0.0,0.0,0.0,0.0,0.0,0.0,0.0,-2.3101,-2.3101,-2.3101,-2.3101,-2.3101,-2.3101,-2.3101,-2.3101,-2.3101,-2.3101,-2.3101,-2.3101,-2.3101,0.0,0.0,0.0,0.0,-2.6565,-2.7058,-2.8251,-2.9804,-2.9804,-2.9804,-2.9729,-2.9113,-2.8888,-2.8888,0.0,0.0,0.0,0.0,0.0,0.0,0.0,0.0,0.0,0.0,0.0,0.0,0.0,0.0,0.0,0.0,0.0,0.0,0.0,0.0,0.0,0.0,0.0,0.0,0.0,0.0,0.0,0.0,0.0,-1.0675,0.0,0.0,0.0,0.0,-0.8537,-0.7816,-0.7228,-0.7228,-0.7148,-0.7006,-0.7006,0.0,0.0,0.0,0.0,0.0,-0.7976,-0.8243,0.0,-0.8711,-0.8804,-0.8857,0.0,0.0,0.0,0.0,-1.2049,-1.2915,-1.2915,-1.3027,-1.3164,-1.3164,-1.3164,-1.3164,-1.3164,0.0,0.0,0.0,0.0,0.0,0.0,0.0,-1.4004,-1.5508,-1.6309,0.0,0.0,0.0,0.0,0.0,0.0,0.0,0.0,0.0,0.0,0.0,0.0,0.0,0.0,-2.3101,-2.3101,-2.3101,-2.3101,-2.3101,-2.3101,-2.3101,-2.3101,-2.3101,-2.3101,-2.3101,-2.3101,-2.3101,-2.3101,0.0,0.0,0.0,-2.6565,-2.7035,-2.8251,-2.9804,-2.9804,-2.9804,-2.9754,-2.9428,-2.9327,-2.9327,0.0,0.0,0.0,0.0,0.0,0.0,0.0,0.0,0.0,0.0,0.0,0.0,0.0,0.0,0.0,0.0,0.0,0.0,0.0,0.0,0.0,0.0,0.0,0.0,0.0,0.0,0.0,0.0,0.0,0.0,0.0,0.0,-1.1369,0.0,-0.8605,-0.7802,-0.7513,-0.7437,-0.7255,-0.7006,-0.7006,0.0,0.0,0.0,0.0,0.0,0.0,0.0,0.0,-0.8711,-0.8804,-0.891,-0.9458,0.0,0.0,0.0,0.0,0.0,-1.2969,-1.334,-1.3652,-1.3457,-1.3457,-1.3464,-1.3343,0.0,0.0,0.0,0.0,0.0,0.0,-1.3848,0.0,0.0,0.0,0.0,0.0,0.0,0.0,0.0,0.0,0.0,0.0,0.0,0.0,0.0,0.0,0.0,0.0,-2.3101,-2.3101,-2.3101,-2.3101,-2.3101,-2.3101,-2.3101,-2.3101,-2.3101,-2.3101,-2.3101,-2.3101,-2.3101,-2.3101,0.0,0.0,0.0,-2.6607,-2.7643,-2.8767,-2.9804,-2.9804,-2.9804,-2.9804,-2.9804,-2.9804,-2.9804,0.0,0.0,0.0,0.0,0.0,0.0,0.0,0.0,0.0,0.0,0.0,0.0,0.0,0.0,0.0,0.0,0.0,0.0,0.0,0.0,0.0,0.0,0.0,0.0,0.0,0.0,0.0,0.0,0.0,0.0,-1.1549,-1.2545,-1.1971,-1.006,-0.8844,-0.8013,-0.7477,-0.7201,-0.7046,-0.7006,-0.7006,0.0,0.0,0.0,0.0,0.0,0.0,0.0,0.0,-0.8711,-0.8804,-0.8804,-0.8936,0.0,0.0,0.0,0.0,0.0,-1.332,-1.3984,-1.4336,-1.3242,-1.3242,-1.3317,-1.2646,-1.2952,0.0,0.0,0.0,0.0,0.0,-1.541,-1.6007,0.0,0.0,0.0,0.0,0.0,0.0,0.0,0.0,0.0,0.0,0.0,0.0,0.0,0.0,0.0,0.0,-2.3101,-2.3101,-2.3101,-2.3101,-2.3101,-2.3101,-2.3101,-2.3101,-2.3101,-2.3101,-2.3101,-2.3101,-2.3101,-2.3101,0.0,0.0,-2.5462,-2.6607,-2.7643,-2.8767,-2.9804,-2.9804,-2.9804,-2.9804,-2.9804,-2.9804,-2.9804,0.0,0.0,0.0,0.0,0.0,0.0,0.0,0.0,0.0,0.0,0.0,0.0,0.0,0.0,0.0,0.0,0.0,0.0,0.0,0.0,0.0,0.0,0.0,0.0,0.0,0.0,0.0,0.0,0.0,-1.2064,-1.2385,-1.2131,-1.1329,-1.003,-0.8898,-0.8147,-0.7695,-0.7388,-0.7174,-0.7006,0.0,0.0,0.0,0.0,0.0,0.0,0.0,0.0,0.0,0.0,-0.8804,-0.8936,-0.9666,0.0,0.0,0.0,0.0,0.0,-1.315,-1.3613,-1.4004,-1.3652,-1.4043,-1.4305,-1.3468,-1.3559,0.0,0.0,0.0,0.0,0.0,0.0,0.0,0.0,0.0,0.0,0.0,0.0,0.0,0.0,0.0,0.0,0.0,0.0,0.0,0.0,0.0,0.0,0.0,0.0,-2.3101,-2.3101,-2.3101,-2.3101,-2.3101,-2.3101,-2.3101,-2.3101,-2.3101,-2.3101,-2.3101,-2.3101,-2.343,-2.4039,0.0,-2.5775,-2.74,-2.7884,-2.8767,-2.9804,-2.9804,-2.9804,-2.9804,-2.9804,-2.9804,-2.9804,0.0,0.0,0.0,0.0,0.0,0.0,0.0,0.0,0.0,0.0,0.0,0.0,0.0,0.0,0.0,0.0,0.0,0.0,0.0,0.0,0.0,0.0,0.0,0.0,0.0,0.0,-1.064,-1.2114,-1.2438,-1.2852,-1.324,-1.1864,-1.0848,-1.0167,-0.9072,-0.8337,-0.7885,-0.7625,-0.7295,-0.7006,0.0,0.0,0.0,0.0,0.0,0.0,0.0,0.0,0.0,0.0,0.0,0.0,0.0,0.0,0.0,-1.185,-1.2387,-1.2671,-1.2767,-1.3214,-1.3685,-1.3899,-1.4445,-1.4885,-1.4629,-1.4559,0.0,0.0,0.0,0.0,0.0,0.0,0.0,0.0,0.0,0.0,0.0,0.0,0.0,0.0,0.0,0.0,0.0,0.0,0.0,0.0,0.0,0.0,0.0,0.0,-2.3101,-2.3101,-2.3003,-2.3003,-2.3101,-2.3003,-2.3003,-2.3101,-2.3101,-2.3101,-2.3101,-2.3101,-2.3714,-2.483,-2.5083,-2.6273,-2.8124,-2.8386,-2.9028,-2.9804,-2.9804,-2.9804,-2.9804,-2.9804,-2.9804,-2.9804,0.0,0.0,0.0,0.0,0.0,0.0,0.0,0.0,0.0,0.0,0.0,0.0,0.0,0.0,0.0,0.0,0.0,0.0,0.0,0.0,0.0,0.0,0.0,0.0,0.0,-1.0935,-1.1256,-1.2717,-1.3267,-1.3533,-1.3547,-1.2371,-1.1377,-1.0519,-0.9579,-0.8685,-0.7885,-0.7625,-0.7295,-0.7006,-0.7006,0.0,0.0,0.0,0.0,0.0,0.0,0.0,0.0,0.0,0.0,0.0,0.0,0.0,-0.9899,-0.9987,-1.0906,-1.1966,-1.2422,-1.328,-1.3977,-1.3627,-1.3594,-1.405,-1.5597,-1.5965,0.0,-1.7599,0.0,0.0,0.0,0.0,0.0,0.0,0.0,0.0,0.0,0.0,0.0,0.0,0.0,0.0,0.0,0.0,0.0,0.0,0.0,0.0,0.0,0.0,0.0,-2.3101,-2.2711,-2.2711,-2.3081,-2.2711,-2.2711,-2.3101,-2.3101,-2.3101,-2.3101,-2.3101,-2.3714,-2.4872,-2.5922,-2.7035,-2.8164,-2.9248,-2.9702,-2.9804,-2.9804,-2.9804,-2.9804,-2.9804,-2.9804,-2.9804,0.0,0.0,0.0,0.0,0.0,0.0,0.0,0.0,0.0,0.0,0.0,0.0,0.0,0.0,0.0,0.0,0.0,0.0,0.0,0.0,0.0,0.0,0.0,-1.0167,-1.1557,-1.1846,-1.2677,-1.4164,-1.4162,-1.3866,-1.3307,-1.1971,0.0,0.0,-0.9178,-0.8524,-0.819,-0.7882,-0.7575,-0.7316,-0.7316,-0.7482,0.0,0.0,0.0,0.0,0.0,0.0,0.0,0.0,-0.8523,-0.8735,0.0,0.0,0.0,0.0,-1.1065,-1.1843,-1.2013,-1.3058,-1.4133,-1.4277,-1.4492,0.0,0.0,-1.6529,-1.7278,-1.8586,-1.9308,0.0,0.0,0.0,0.0,0.0,0.0,0.0,0.0,0.0,0.0,0.0,0.0,0.0,0.0,0.0,0.0,0.0,0.0,0.0,0.0,0.0,0.0,-2.2363,-2.2207,-2.2324,-2.2711,-2.2598,-2.2672,-2.3101,-2.3101,-2.3101,-2.3101,-2.3101,-2.3714,-2.4872,-2.6005,-2.7116,-2.8164,-2.9326,-2.9804,-2.9804,-2.9804,-2.9804,-2.9804,-2.9804,-2.9804,-2.9804,0.0,0.0,0.0,0.0,0.0,0.0,0.0,0.0,0.0,0.0,0.0,0.0,0.0,0.0,0.0,0.0,0.0,0.0,0.0,0.0,0.0,0.0,0.0,-1.014,-1.1129,-1.2141,-1.3239,-1.4402,-1.4295,-1.3748,-1.2759,0.0,0.0,0.0,-0.9272,-0.8817,-0.8791,-0.8377,-0.7976,-0.7638,-0.7638,-0.7736,0.0,0.0,0.0,0.0,0.0,0.0,0.0,0.0,-0.8536,0.0,0.0,0.0,0.0,0.0,-1.0965,-1.1541,-1.174,-1.2833,-1.4016,-1.4473,0.0,0.0,-1.6887,-1.7572,-1.8457,-2.0156,-2.041,0.0,0.0,0.0,0.0,0.0,0.0,0.0,0.0,0.0,0.0,0.0,0.0,0.0,0.0,0.0,0.0,0.0,0.0,0.0,0.0,0.0,0.0,0.0,-2.1758,-2.1953,-2.25,-2.2246,-2.2418,-2.3101,-2.2964,-2.2964,-2.3101,-2.3101,-2.393,-2.5378,-2.613,-2.7302,-2.8688,-2.9482,-2.9804,-2.9804,-2.9804,-2.9804,-2.9804,-2.9804,-2.9804,-2.9804,0.0,0.0,0.0,0.0,0.0,0.0,0.0,0.0,0.0,0.0,0.0,0.0,0.0,0.0,0.0,0.0,0.0,0.0,0.0,0.0,0.0,0.0,0.0,-0.9983,-1.0559,-1.169,-1.2585,-1.3213,-1.3453,-1.3026,-1.1886,-1.1263,0.0,0.0,-1.0074,-0.9715,-0.9675,-0.9058,-0.8445,-0.7912,-0.7912,-0.7912,-0.7912,0.0,0.0,0.0,0.0,0.0,0.0,0.0,-0.8402,0.0,0.0,0.0,0.0,0.0,-1.0269,-1.0939,-1.1616,-1.262,-1.3588,-1.4016,0.0,0.0,-1.8809,-1.9297,-2.0019,-2.2555,0.0,-2.1463,-2.2363,0.0,0.0,0.0,0.0,0.0,0.0,0.0,0.0,0.0,0.0,0.0,0.0,0.0,0.0,0.0,0.0,0.0,0.0,0.0,0.0,0.0,-2.1465,-2.16,-2.248,-2.1619,-2.1834,-2.3081,-2.2672,-2.2691,-2.3101,-2.3101,-2.436,-2.6483,-2.6524,-2.777,-2.974,-2.9804,-2.9804,-2.9804,-2.9804,-2.9804,-2.9804,-2.9804,-2.9804,-2.9804,0.0,0.0,0.0,0.0,0.0,0.0,0.0,0.0,0.0,0.0,0.0,0.0,0.0,0.0,0.0,0.0,0.0,0.0,0.0,0.0,0.0,0.0,0.0,0.0,0.0,0.0,-1.1463,-1.2918,-1.3012,-1.2449,0.0,0.0,0.0,-1.0367,-1.01,-0.9766,-0.9324,-0.9164,-0.8751,-0.8243,-0.8243,-0.8243,-0.8243,0.0,0.0,0.0,0.0,0.0,0.0,0.0,0.0,0.0,0.0,0.0,0.0,-0.9096,-1.0076,-1.1219,-1.1506,-1.2719,0.0,-1.5234,0.0,0.0,0.0,-1.9941,0.0,0.0,-2.2168,-2.1855,0.0,0.0,0.0,0.0,0.0,0.0,0.0,0.0,0.0,0.0,0.0,0.0,0.0,0.0,0.0,0.0,0.0,0.0,0.0,0.0,0.0,0.0,-2.084,-2.1035,-2.1561,-2.1327,-2.1582,-2.2266,-2.2441,-2.2691,-2.3144,-2.393,-2.4211,-2.4231,-2.6625,-2.7585,-2.7585,-2.917,-2.9804,-2.9804,-2.9804,-2.9804,-2.9804,-2.9804,-2.9804,-2.9804,0.0,0.0,0.0,0.0,0.0,0.0,0.0,0.0,0.0,0.0,-0.7495,-0.7499,0.0,0.0,0.0,-0.8375,-0.8563,0.0,-0.855,-0.8711,0.0,0.0,0.0,0.0,0.0,-0.99,-1.0734,0.0,0.0,0.0,0.0,0.0,-1.0701,-1.0603,-1.0603,-1.0381,-0.9884,-0.9657,-0.9217,-0.8711,-0.8711,-0.8711,-0.8711,0.0,0.0,0.0,0.0,0.0,0.0,0.0,0.0,0.0,0.0,0.0,0.0,-0.9489,-1.0306,-1.1281,-1.2061,-1.341,0.0,-1.6281,-1.7695,-1.918,-2.0781,0.0,0.0,0.0,0.0,0.0,0.0,0.0,0.0,0.0,0.0,0.0,0.0,0.0,0.0,0.0,0.0,0.0,0.0,0.0,0.0,0.0,0.0,0.0,0.0,0.0,0.0,0.0,-2.0605,-2.0781,-2.119,-2.1055,-2.1367,-2.2129,-2.2227,-2.2578,-2.3144,-2.38,-2.4016,-2.393,-2.6849,-2.7723,-2.7279,-2.9067,-2.9804,-2.9804,-2.9804,-2.9804,-2.9804,-2.9804,-2.9804,-2.9804,0.0,0.0,-0.7006,-0.7006,0.0,0.0,0.0,0.0,0.0,-0.7899,-0.7925,-0.7912,0.0,0.0,0.0,-0.8415,-0.8442,-0.8549,-0.8791,-0.8804,-0.8804,-0.8804,0.0,0.0,0.0,0.0,0.0,0.0,0.0,0.0,0.0,0.0,-1.1102,-1.1349,-1.1349,-1.1209,-1.0875,-1.0287,-0.9684,-0.9178,-0.9178,-0.9178,-0.9178,-0.9178,0.0,0.0,0.0,0.0,0.0,0.0,0.0,0.0,-0.8791,-0.8831,-0.9069,-1.0269,-1.0744,-1.1217,-1.2964,-1.4391,0.0,-1.7187,-1.8867,0.0,-2.1719,-2.2598,-2.3081,-2.3042,0.0,0.0,0.0,0.0,0.0,0.0,0.0,0.0,0.0,0.0,0.0,0.0,0.0,0.0,0.0,0.0,0.0,0.0,0.0,0.0,0.0,0.0,0.0,0.0,-2.0605,-2.0762,-2.1132,-2.0762,-2.1152,0.0,-2.1992,-2.2246,-2.2984,-2.3193,-2.3887,-2.5083,-2.7052,-2.8004,-2.8164,-2.9326,-2.9804,-2.9804,-2.9804,-2.9804,-2.9804,-2.9804,-2.9804,-2.9804,0.0,0.0,-0.7006,-0.7006,0.0,0.0,0.0,0.0,-0.7678,-0.8228,-0.807,-0.7992,-0.8257,-0.8308,0.0,-0.8684,-0.8711,-0.8738,-0.8804,-0.8804,-0.8804,-0.8804,0.0,0.0,0.0,0.0,0.0,0.0,0.0,0.0,0.0,0.0,-1.0841,-1.1089,-1.1089,-1.0795,-1.023,-0.9644,-0.9191,-0.8871,-0.8871,-0.8871,-0.8871,-0.8871,-0.8858,0.0,0.0,0.0,0.0,0.0,0.0,0.0,-0.8657,-0.8938,-0.9126,-0.9202,-1.0158,-1.1444,-1.2629,-1.3932,0.0,0.0,-2.043,-2.2109,-2.2691,-2.2964,-2.3003,0.0,0.0,0.0,0.0,0.0,0.0,0.0,0.0,0.0,0.0,0.0,0.0,0.0,0.0,0.0,0.0,0.0,0.0,0.0,0.0,0.0,0.0,0.0,0.0,-2.0605,-2.0605,-2.0644,-2.0742,-2.0644,-2.0742,0.0,-2.125,-2.1641,-2.221,-2.3734,-2.5041,-2.613,-2.6648,-2.7319,-2.8164,-2.9326,-2.9804,-2.9804,-2.9804,-2.9804,-2.9804,-2.9804,-2.9804,-2.9804,0.0,0.0,0.0,0.0,0.0,0.0,0.0,0.0,-0.8094,-0.8524,-0.8444,-0.8378,-0.8564,-0.8577,0.0,0.0,-0.8804,-0.8804,-0.8804,-0.8804,-0.8804,-0.8804,-0.9058,0.0,0.0,0.0,0.0,0.0,0.0,0.0,0.0,0.0,0.0,-1.0995,0.0,-1.0661,-1.0057,-0.9646,-0.9257,-0.8991,-0.8991,-0.8991,-0.8991,-0.8991,-0.8844,-0.8604,-0.8604,0.0,0.0,0.0,0.0,0.0,0.0,0.0,-0.9059,-0.9227,-0.9888,-1.0931,-1.2505,0.0,0.0,-1.9652,0.0,-2.1978,-2.2897,-2.3101,-2.3042,0.0,0.0,0.0,0.0,0.0,0.0,0.0,0.0,0.0,0.0,0.0,0.0,0.0,0.0,0.0,0.0,0.0,0.0,0.0,0.0,0.0,0.0,-2.041,-2.0352,-2.0605,-2.0214,-2.0194,-2.0605,-2.039,-2.0469,-2.0898,-2.1093,-2.1562,-2.2249,-2.3456,-2.4638,-2.5714,-2.6254,-2.7116,-2.8164,-2.9326,-2.9804,-2.9804,-2.9804,-2.9804,-2.9804,-2.9804,-2.9804,-2.9804,0.0,0.0,0.0,0.0,0.0,0.0,0.0,0.0,0.0,-0.8764,-0.8804,-0.8804,-0.8804,-0.8804,-0.8804,0.0,0.0,0.0,-0.8804,-0.8804,-0.8831,-0.8884,-0.9084,0.0,0.0,0.0,0.0,0.0,0.0,0.0,0.0,0.0,0.0,-1.0915,0.0,-1.0541,-1.002,-0.9673,-0.9392,-0.9138,-0.9138,-0.9138,-0.911,-0.9,-0.8738,-0.8444,-0.8317,-0.8341,-0.8402,-0.8456,0.0,0.0,0.0,0.0,-0.891,-0.9458,-0.9718,-1.0243,-1.2212,0.0,-1.6812,-2.0527,-2.1214,0.0,-2.2597,-2.2886,0.0,0.0,0.0,0.0,0.0,0.0,0.0,0.0,0.0,0.0,0.0,0.0,0.0,0.0,0.0,0.0,0.0,0.0,0.0,0.0,0.0,0.0,-2.0488,-2.0117,-2.0039,-2.037,-1.9705,-1.9666,-2.037,-2.0059,-2.0235,-2.0976,-2.1112,-2.16,-2.2422,-2.2789,-2.3567,-2.4575,-2.5922,-2.6994,-2.7924,-2.9248,-2.9804,-2.9804,-2.9804,-2.9804,-2.9804,-2.9804,-2.9804,-2.9804,0.0,0.0,0.0,0.0,0.0,0.0,0.0,0.0,0.0,0.0,-0.8804,-0.8804,-0.8804,-0.8804,-0.8804,-0.8804,-0.8804,-0.8804,-0.8804,0.0,0.0,-0.9138,-0.9191,-0.9311,0.0,0.0,0.0,0.0,0.0,0.0,0.0,0.0,0.0,-1.064,0.0,-1.0047,-0.9699,-0.9152,-0.8898,-0.8871,-0.8871,-0.8871,-0.8778,-0.8152,-0.8248,-0.8672,-0.8027,-0.8061,-0.8442,-0.8657,-0.8604,0.0,0.0,0.0,-0.8804,-0.891,-0.9342,-1.0034,0.0,0.0,-1.7278,0.0,-2.0411,-2.13,0.0,0.0,0.0,0.0,0.0,0.0,0.0,0.0,0.0,0.0,0.0,0.0,0.0,0.0,0.0,0.0,0.0,0.0,0.0,0.0,0.0,0.0,0.0,0.0,-2.0019,-1.9941,-1.9766,-1.9473,-1.9355,-1.9372,-1.9453,-1.9766,-1.998,-2.0098,-2.082,-2.1444,-2.1973,-2.2402,-2.2836,-2.343,-2.5568,-2.6607,-2.6894,-2.8949,-2.9804,-2.9804,-2.9804,-2.9804,-2.9804,-2.9804,-2.9804,-2.9804,0.0,0.0,0.0,0.0,0.0,0.0,0.0,0.0,0.0,0.0,0.0,-0.8804,-0.8804,-0.8804,-0.8804,-0.8804,-0.8804,-0.8804,-0.8804,-0.8804,-0.8871,-0.8964,-0.8964,-0.9058,-0.9192,0.0,0.0,0.0,0.0,0.0,0.0,-1.0083,-1.0367,0.0,0.0,0.0,0.0,-0.9058,-0.8804,-0.8804,-0.8804,-0.8804,-0.8752,-0.8434,-0.8174,-0.7907,-0.7596,0.0,0.0,0.0,-0.7983,-0.8111,-0.8633,0.0,0.0,0.0,-0.9015,-0.9565,-1.1022,-1.2997,-1.5259,0.0,-1.8601,-1.9296,-2.1089,0.0,0.0,0.0,0.0,0.0,0.0,0.0,0.0,0.0,0.0,0.0,0.0,0.0,0.0,0.0,0.0,0.0,0.0,0.0,0.0,0.0,0.0,-2.0117,-1.9922,-1.9416,-1.9219,-1.9297,-1.8828,-1.8906,-1.9629,-1.959,-1.9805,-2.0293,-2.0937,-2.1465,-2.1894,-2.2324,-2.3077,-2.4125,-2.5126,-2.6254,-2.7481,-2.845,-2.9223,-2.9804,-2.9804,-2.9804,-2.9804,-2.9804,-2.9804,-2.9804,0.0,0.0,0.0,0.0,0.0,0.0,0.0,0.0,0.0,0.0,0.0,-0.8804,-0.8804,0.0,0.0,0.0,-0.8804,-0.8804,-0.8804,-0.8804,-0.8804,-0.8804,-0.8804,-0.8804,-0.8804,0.0,0.0,0.0,0.0,0.0,-1.0234,-1.0234,-1.0581,0.0,-1.0528,-0.998,0.0,0.0,-0.8884,-0.8884,-0.8831,-0.8804,-0.8778,-0.8593,-0.8163,-0.7653,-0.7461,0.0,0.0,0.0,0.0,0.0,0.0,0.0,0.0,0.0,0.0,0.0,0.0,0.0,-1.3014,-1.5706,-1.6365,-1.7027,0.0,0.0,0.0,0.0,0.0,0.0,0.0,0.0,0.0,0.0,0.0,0.0,0.0,0.0,0.0,0.0,0.0,0.0,0.0,0.0,0.0,0.0,0.0,-1.9787,-1.9572,-1.8948,-1.8695,-1.8965,-1.834,-1.8477,-1.9414,-1.9336,-1.9668,-2.0449,-2.0859,-2.1509,-2.2328,-2.2333,-2.3404,-2.521,-2.521,-2.6171,-2.7723,-2.8307,-2.9028,-2.9804,-2.9804,-2.9804,-2.9804,-2.9804,-2.9804,-2.9804,0.0,0.0,0.0,0.0,0.0,0.0,0.0,0.0,0.0,0.0,0.0,-0.8804,-0.8804,-0.8804,-0.8804,-0.8804,-0.8804,-0.8804,-0.8804,-0.8804,-0.8804,-0.8804,-0.8804,0.0,-0.8804,0.0,0.0,0.0,0.0,0.0,-1.0573,-1.0573,-1.1028,-1.1819,-1.0961,-1.006,-0.9231,0.0,-0.9191,-0.9164,-0.8898,-0.8804,-0.8725,-0.8023,0.0,0.0,0.0,0.0,0.0,0.0,0.0,0.0,0.0,0.0,0.0,0.0,0.0,0.0,0.0,-1.055,0.0,-1.2735,-1.3859,0.0,0.0,0.0,0.0,0.0,0.0,0.0,0.0,0.0,0.0,0.0,0.0,0.0,0.0,0.0,0.0,0.0,0.0,0.0,0.0,0.0,0.0,0.0,0.0,-1.9514,-1.8715,-1.8617,-1.8422,-1.8086,-1.8027,-1.8047,-1.8105,-1.8887,-1.9512,-1.9961,-2.0391,-2.1608,-2.3383,-2.2369,-2.3577,-2.64,-2.64,-2.6483,-2.6771,-2.8831,-2.974,-2.9804,-2.9804,-2.9804,-2.9804,-2.9804,-2.9804,-2.9804,0.0,0.0,0.0,0.0,0.0,0.0,0.0,0.0,0.0,0.0,0.0,0.0,0.0,-0.8804,-0.8804,-0.8804,-0.8804,-0.8804,-0.8804,-0.8804,-0.8804,-0.8804,-0.8804,-0.8804,-0.8804,-0.8804,0.0,0.0,0.0,-0.9218,-1.0023,-1.0023,-1.0261,-1.0742,-1.0653,-1.0412,-1.0033,-0.9285,0.0,-0.9191,-0.8898,-0.8804,-0.8778,0.0,0.0,0.0,0.0,0.0,0.0,0.0,0.0,0.0,0.0,0.0,0.0,0.0,0.0,0.0,0.0,0.0,0.0,-1.1475,-1.2491,0.0,0.0,0.0,0.0,0.0,0.0,0.0,0.0,0.0,0.0,0.0,0.0,0.0,0.0,0.0,0.0,0.0,0.0,0.0,0.0,0.0,0.0,0.0,0.0,0.0,-1.8617,-1.8344,-1.8164,-1.8008,-1.8008,-1.8281,-1.8828,-1.9394,-1.9902,-2.037,-2.1444,-2.1985,-2.205,-2.3217,-2.3993,-2.4516,-2.5876,-2.6899,-2.7539,-2.8026,-2.885,-2.9754,-2.9377,-2.9478,-2.9804,-2.9804,-2.9804,-2.9804,0.0,0.0,0.0,0.0,0.0,-0.8549,0.0,0.0,0.0,0.0,0.0,0.0,0.0,0.0,-0.8804,-0.8804,-0.8804,-0.8804,-0.8804,-0.8804,-0.8804,-0.8804,-0.8804,-0.8804,-0.8804,0.0,0.0,0.0,0.0,0.0,0.0,-0.9715,-0.9886,-1.0261,-1.0291,-1.0291,0.0,0.0,0.0,-0.9191,0.0,0.0,-0.8938,0.0,0.0,0.0,0.0,0.0,0.0,0.0,0.0,0.0,0.0,0.0,0.0,0.0,0.0,0.0,-0.8804,0.0,0.0,0.0,0.0,-1.175,0.0,0.0,0.0,0.0,0.0,0.0,0.0,0.0,0.0,0.0,0.0,0.0,0.0,0.0,0.0,0.0,0.0,0.0,0.0,0.0,0.0,0.0,0.0,0.0,-1.8403,-1.8164,-1.8008,-1.8008,-1.8008,-1.8359,-1.9062,-1.9492,-1.9922,-2.039,-2.1464,-2.2099,-2.2263,-2.3517,-2.4398,-2.4982,-2.6232,-2.707,-2.7561,-2.7551,-2.8221,-2.9202,-2.8963,-2.9113,-2.9528,-2.9729,-2.9804,-2.9804,0.0,-0.8804,-0.8804,-0.8804,-0.8804,-0.8804,0.0,0.0,0.0,0.0,0.0,0.0,0.0,0.0,0.0,-0.8844,-0.8831,-0.8831,-0.8818,-0.8804,-0.8804,-0.8804,-0.8804,-0.8804,-0.8804,0.0,0.0,0.0,0.0,0.0,0.0,0.0,-0.9997,-1.0533,-0.9956,-0.9702,-0.9702,0.0,-0.9499,-0.9204,0.0,-0.8964,-0.9257,0.0,0.0,0.0,-0.9644,-0.853,0.0,-0.7498,0.0,0.0,0.0,0.0,0.0,0.0,0.0,0.0,0.0,0.0,0.0,0.0,0.0,0.0,-1.1092,0.0,0.0,0.0,0.0,0.0,0.0,0.0,0.0,0.0,0.0,0.0,0.0,0.0,0.0,0.0,0.0,0.0,0.0,0.0,0.0,0.0,0.0,-1.8403,-1.8027,-1.8008,-1.8008,-1.8008,-1.8008,-1.8223,-1.8617,-1.9082,-1.9512,-1.9941,-2.041,-2.1907,-2.4182,-2.3212,-2.4679,-2.7962,-2.7521,-2.699,-2.66,-2.7693,-2.8147,-2.8197,-2.8687,-2.8888,-2.8988,-2.9578,-2.9804,-2.9804,-0.8804,-0.8804,-0.8804,-0.8804,-0.8804,-0.8804,0.0,0.0,0.0,0.0,0.0,0.0,0.0,0.0,0.0,-0.974,-0.9566,-0.9352,-0.9111,-0.8898,-0.8804,-0.8804,-0.8804,-0.8804,-0.8804,0.0,0.0,0.0,0.0,0.0,0.0,0.0,0.0,0.0,-0.9404,-0.9337,-0.9324,-0.9138,0.0,-0.9512,-0.9005,-0.9112,0.0,0.0,0.0,0.0,0.0,-0.7493,-0.708,0.0,-0.5133,-0.4777,0.0,0.0,0.0,0.0,0.0,0.0,-0.8804,0.0,0.0,0.0,0.0,0.0,-0.9494,-0.9887,0.0,0.0,0.0,0.0,0.0,0.0,0.0,0.0,0.0,0.0,0.0,0.0,0.0,0.0,0.0,0.0,0.0,0.0,0.0,0.0,-1.8184,-1.8144,-1.8008,-1.8008,-1.8008,-1.8008,-1.8008,-1.8359,-1.9102,-1.9238,-1.9648,-2.0429,-2.1237,-2.1949,-2.266,-2.3838,-2.4917,-2.59,-2.6894,-2.7223,-2.7149,-2.8225,-2.895,-2.9302,-2.8988,-2.9176,-2.9578,-2.9729,-2.9804,-2.9804,-0.8804,-0.8804,-0.8844,-0.8938,-0.9085,-0.9178,0.0,0.0,0.0,0.0,0.0,0.0,0.0,0.0,0.0,0.0,-0.9886,-0.974,-0.9446,-0.9272,-0.9178,-0.9178,-0.9058,-0.8964,0.0,0.0,0.0,0.0,0.0,0.0,0.0,0.0,0.0,0.0,-0.9031,-0.9031,-0.9031,0.0,0.0,0.0,-0.8951,0.0,0.0,-0.9432,-0.9646,0.0,0.0,0.0,-0.7399,-0.6176,-0.5336,0.0,0.0,0.0,0.0,0.0,0.0,0.0,0.0,0.0,0.0,0.0,0.0,0.0,-0.8978,-0.9351,-0.967,0.0,0.0,0.0,0.0,0.0,0.0,0.0,0.0,0.0,0.0,0.0,0.0,0.0,0.0,0.0,0.0,0.0,0.0,-1.7754,-1.791,-1.8008,-1.8008,-1.8008,-1.8008,-1.8008,-1.8008,-1.8418,-1.9277,-1.9297,-1.9764,-2.0605,-2.1545,-2.2205,-2.2654,-2.4253,-2.5349,-2.6017,-2.693,-2.7419,-2.7695,-2.8574,-2.9001,-2.9076,-2.8938,-2.9088,-2.9478,-2.9704,-2.9804,-2.9804,0.0,-0.8804,-0.8938,-0.9342,-0.9556,0.0,0.0,0.0,0.0,0.0,0.0,0.0,0.0,0.0,0.0,0.0,-1.0047,-1.0047,-0.9753,-0.9729,0.0,0.0,0.0,0.0,0.0,0.0,0.0,0.0,0.0,0.0,0.0,0.0,0.0,0.0,-0.8844,-0.8858,-0.8845,0.0,0.0,-0.8858,-0.8858,-0.9232,0.0,0.0,-1.0247,-1.0586,-1.0451,-0.9424,-0.8057,-0.7532,-0.6404,0.0,0.0,0.0,0.0,0.0,-0.8007,0.0,0.0,0.0,0.0,0.0,0.0,0.0,-0.9138,-0.9217,-0.9244,0.0,0.0,0.0,0.0,0.0,0.0,0.0,0.0,0.0,0.0,0.0,0.0,0.0,0.0,0.0,0.0,-1.7656,-1.7715,-1.7344,-1.7695,-1.7949,-1.8008,-1.8008,-1.8008,-1.8008,-1.8008,-1.8418,-1.9277,-1.9297,-1.9781,-2.0779,-2.1583,-2.2579,-2.3708,-2.46,-2.5813,-2.7228,-2.7243,-2.757,-2.8047,-2.8599,-2.8574,-2.8247,-2.8762,-2.8988,-2.9038,-2.9603,-2.9804,-2.9804,-0.8804,-0.8804,-0.9206,-1.0515,0.0,0.0,0.0,0.0,0.0,0.0,0.0,0.0,0.0,0.0,0.0,0.0,0.0,-1.0372,0.0,0.0,0.0,0.0,0.0,0.0,0.0,0.0,0.0,0.0,0.0,0.0,0.0,0.0,0.0,0.0,-0.9031,-0.9124,-0.9151,0.0,0.0,-0.9124,-0.9124,0.0,-1.0345,-0.963,-0.9886,-1.0465,-0.9488,-0.9111,-0.8901,0.0,-0.7588,-0.7601,0.0,0.0,0.0,0.0,0.0,0.0,0.0,0.0,0.0,0.0,0.0,0.0,-0.9098,-0.9259,-0.9459,0.0,0.0,0.0,0.0,0.0,0.0,0.0,0.0,0.0,0.0,0.0,0.0,0.0,0.0,0.0,0.0,-1.6902,-1.6921,-1.6843,-1.7266,-1.7656,-1.7988,-1.8008,-1.8008,-1.8008,-1.8008,-1.8418,-1.9277,-1.9297,-2.0115,-2.1735,-2.1924,-2.2951,-2.4707,-2.4909,-2.5619,-2.6675,-2.7128,-2.7379,-2.7494,-2.8047,-2.8473,-2.8787,-2.9402,-2.9628,-2.9628,-2.9754,-2.9804,-2.9804,-0.8804,-0.8898,-0.9494,-1.1027,0.0,0.0,0.0,0.0,0.0,0.0,0.0,0.0,0.0,0.0,0.0,0.0,0.0,0.0,0.0,0.0,0.0,0.0,0.0,0.0,0.0,0.0,0.0,0.0,0.0,0.0,0.0,0.0,0.0,0.0,0.0,0.0,0.0,0.0,-0.982,-0.9617,-0.9324,0.0,-1.0104,-0.9633,-0.9913,-1.051,-0.99,-0.9529,-0.9169,-0.8423,-0.8211,0.0,0.0,-0.8803,-0.9237,0.0,-0.9382,-0.9684,0.0,0.0,0.0,-0.99,0.0,0.0,0.0,-0.9245,-0.9245,-0.9245,0.0,0.0,0.0,0.0,0.0,0.0,0.0,0.0,0.0,0.0,0.0,0.0,0.0,0.0,0.0,-1.6152,-1.6484,-1.6687,-1.6934,-1.7246,-1.7676,-1.7695,-1.7793,-1.8008,-1.8008,-1.832,-1.8965,-1.918,-2.0106,-2.1702,-2.2397,-2.3562,-2.5016,-2.5511,-2.6173,-2.6901,-2.6901,-2.7052,-2.7293,-2.757,-2.8021,-2.8574,-2.9151,-2.9553,-2.9804,-2.9804,-2.9804,-2.9804,-0.8978,-0.9138,-0.9783,-1.1345,0.0,0.0,0.0,0.0,0.0,0.0,0.0,0.0,0.0,0.0,0.0,0.0,0.0,0.0,0.0,0.0,0.0,0.0,0.0,-1.0408,0.0,0.0,0.0,0.0,0.0,0.0,0.0,0.0,0.0,0.0,0.0,0.0,0.0,0.0,0.0,-1.0043,0.0,-0.9579,-0.9876,-0.9793,-1.0131,-1.0586,-1.0586,-1.0142,-0.95,-0.9174,0.0,-0.881,-0.8836,-0.926,0.0,0.0,0.0,0.0,0.0,0.0,0.0,0.0,0.0,-0.967,0.0,0.0,0.0,-0.9446,0.0,0.0,0.0,0.0,0.0,0.0,0.0,0.0,0.0,0.0,0.0,0.0,0.0,0.0,0.0,-1.5361,-1.5879,-1.6297,-1.6395,-1.6629,-1.7109,-1.7207,-1.7461,-1.7871,-1.7891,-1.8164,-1.8715,-1.9318,-2.0317,-2.1822,-2.3142,-2.4325,-2.5335,-2.6129,-2.6751,-2.7128,-2.67,-2.6751,-2.7153,-2.7153,-2.7519,-2.8172,-2.8687,-2.9277,-2.9804,-2.9804,-2.9804,-2.9804,-0.9579,-0.9606,-1.0129,-1.1661,0.0,0.0,0.0,0.0,0.0,0.0,0.0,0.0,0.0,0.0,0.0,0.0,0.0,0.0,-1.1806,0.0,0.0,0.0,0.0,0.0,-1.018,0.0,0.0,0.0,0.0,0.0,0.0,0.0,0.0,0.0,-0.9673,0.0,0.0,0.0,-1.0083,0.0,-1.0047,-1.0194,0.0,-1.0167,-1.0274,-1.0586,-1.0586,-1.0523,-1.0467,0.0,-1.0574,-1.045,0.0,-1.0567,-1.0186,0.0,0.0,0.0,0.0,0.0,0.0,0.0,-1.0875,0.0,0.0,0.0,-0.9459,-0.9005,0.0,0.0,0.0,0.0,0.0,0.0,0.0,0.0,0.0,0.0,0.0,0.0,0.0,0.0,0.0,0.0,-1.4531,-1.498,-1.5352,-1.5742,-1.6222,-1.6602,-1.7012,-1.7441,-1.7494,-1.8027,-1.9199,-2.0175,-2.151,-2.329,-2.4338,-2.537,-2.6336,-2.6465,-2.6524,-2.6575,-2.6524,-2.6524,-2.6575,-2.6575,-2.7203,-2.8172,-2.8687,-2.9277,-2.9804,-2.9804,-2.9804,-2.9804,-0.9782,-0.9983,-1.0653,-1.2005,0.0,0.0,0.0,0.0,0.0,0.0,0.0,0.0,0.0,0.0,0.0,0.0,0.0,-1.1698,0.0,0.0,0.0,0.0,0.0,0.0,0.0,0.0,0.0,0.0,-1.0425,0.0,0.0,0.0,0.0,0.0,-1.0144,0.0,-1.0301,0.0,-1.0381,0.0,0.0,0.0,0.0,-1.0234,-1.0301,-1.0573,-1.0399,-1.0439,-1.0586,0.0,-1.0742,0.0,0.0,0.0,0.0,0.0,0.0,0.0,0.0,0.0,0.0,0.0,0.0,0.0,-0.9593,0.0,-0.9205,0.0,0.0,0.0,0.0,0.0,0.0,0.0,0.0,0.0,0.0,0.0,0.0,0.0,0.0,0.0,0.0,0.0,0.0,0.0,0.0,-1.5234,-1.5664,-1.6317,-1.6934,-1.7396,-1.7617,-1.8378,-1.9751,-2.0101,-2.1525,-2.3968,-2.4366,-2.522,-2.6499,-2.6499,-2.6499,-2.6499,-2.6499,-2.6499,-2.6499,-2.6499,-2.7153,-2.8122,-2.8373,-2.9001,-2.9804,-2.9804,-2.9804,-2.9804,-1.0247,-1.0479,-1.1026,0.0,0.0,0.0,0.0,0.0,0.0,0.0,0.0,0.0,-1.3586,-1.3307,0.0,0.0,-1.2438,-1.2251,0.0,0.0,-1.1623,0.0,0.0,0.0,0.0,0.0,0.0,0.0,0.0,0.0,0.0,0.0,0.0,0.0,0.0,-1.0608,-1.0443,0.0,-1.0586,-1.0586,-1.0586,-1.0586,-1.0573,-1.0314,-1.0399,-1.0559,-1.0314,-1.0381,-1.0573,-1.0408,-1.0782,0.0,-1.0616,0.0,0.0,0.0,0.0,0.0,-1.153,0.0,0.0,0.0,0.0,0.0,0.0,0.0,0.0,0.0,0.0,0.0,0.0,0.0,0.0,0.0,0.0,0.0,0.0,0.0,0.0,0.0,0.0,0.0,0.0,0.0,0.0,0.0,0.0,0.0,-1.5011,-1.5868,-1.659,-1.7187,-1.7617,-1.8562,-2.0049,-2.0381,-2.1798,-2.4287,-2.465,-2.5424,-2.6474,-2.6323,-2.6248,-2.6248,-2.6248,-2.6248,-2.6273,-2.6424,-2.7052,-2.7896,-2.8047,-2.8699,-2.9578,-2.9729,-2.9804,-2.9804,-1.1335,-1.1156,0.0,0.0,0.0,0.0,0.0,0.0,0.0,0.0,0.0,0.0,0.0,0.0,0.0,0.0,0.0,-1.2425,-1.273,0.0,-1.1524,0.0,0.0,-1.1744,0.0,0.0,0.0,0.0,0.0,0.0,0.0,0.0,0.0,0.0,0.0,-1.1129,-1.1343,-1.0827,-1.0586,-1.0586,-1.0586,-1.0586,-1.0586,0.0,-1.0586,-1.0586,-1.0586,0.0,0.0,-1.0875,-1.0982,0.0,0.0,0.0,0.0,0.0,0.0,0.0,0.0,0.0,0.0,-1.0961,0.0,0.0,0.0,0.0,-1.0385,0.0,0.0,0.0,0.0,0.0,0.0,0.0,0.0,0.0,0.0,0.0,0.0,0.0,0.0,0.0,0.0,0.0,0.0,0.0,0.0,0.0,-1.4133,-1.4952,-1.5859,-1.6687,-1.7168,-1.8208,-1.9891,-2.1369,-2.2811,-2.4232,-2.5694,-2.644,-2.6474,-2.5921,-2.5611,-2.5611,-2.5611,-2.5611,-2.5661,-2.6273,-2.6826,-2.7369,-2.7896,-2.8448,-2.8988,-2.9578,-2.9804,-2.9804,-1.1931,0.0,0.0,0.0,0.0,0.0,0.0,-1.308,0.0,0.0,0.0,0.0,0.0,-1.4378,-1.4177,0.0,0.0,-1.336,-1.3066,-1.2866,0.0,0.0,0.0,-1.2355,0.0,0.0,0.0,0.0,0.0,0.0,0.0,0.0,0.0,0.0,0.0,-1.1223,0.0,0.0,0.0,0.0,0.0,-1.1249,-1.1377,0.0,0.0,-1.0559,-1.0341,-1.0425,0.0,-1.0707,-1.0835,-1.0969,-1.0908,-1.1049,-1.1269,-1.1362,-1.157,0.0,0.0,0.0,-1.2746,-1.145,0.0,0.0,0.0,0.0,0.0,0.0,0.0,0.0,0.0,0.0,0.0,0.0,0.0,0.0,0.0,0.0,0.0,0.0,0.0,0.0,0.0,0.0,0.0,0.0,0.0,0.0,0.0,-1.4913,-1.579,-1.6668,-1.7676,-1.9057,-2.0874,-2.1632,-2.3028,-2.5117,-2.4953,-2.5242,-2.5896,-2.5335,-2.5259,-2.5586,-2.5586,-2.5812,-2.6223,-2.6424,-2.7027,-2.7846,-2.8021,-2.8674,-2.9528,-2.9729,-2.9804,-2.9804,-1.2385,-1.2435,0.0,0.0,0.0,0.0,0.0,0.0,0.0,0.0,-1.4496,0.0,-1.5129,0.0,-1.5008,0.0,-1.4456,-1.4108,-1.3414,-1.3467,0.0,-1.265,-1.2837,0.0,0.0,0.0,0.0,0.0,0.0,-1.1837,0.0,0.0,0.0,0.0,0.0,0.0,-1.1303,0.0,-1.1249,0.0,0.0,-1.1543,0.0,0.0,-1.0701,-1.0822,0.0,-1.0425,-1.0586,-1.0586,-1.0787,-1.0955,-1.0801,-1.1035,-1.1389,-1.1389,-1.1637,-1.194,-1.2091,-1.2585,0.0,-1.1824,-1.1891,0.0,-1.0701,0.0,0.0,0.0,0.0,0.0,0.0,0.0,0.0,0.0,0.0,0.0,0.0,-0.9185,0.0,0.0,0.0,0.0,0.0,0.0,0.0,0.0,-1.3262,0.0,0.0,0.0,-1.5977,-1.6687,-1.7785,-1.9272,-2.1094,-2.1509,-2.2855,-2.5034,-2.4531,-2.4657,-2.531,-2.4951,-2.5008,-2.5335,-2.5511,-2.5812,-2.6197,-2.6399,-2.7027,-2.7821,-2.8021,-2.8674,-2.9503,-2.9704,-2.9804,-2.9804,-1.2811,-1.3052,0.0,0.0,-1.265,0.0,0.0,0.0,-1.4215,0.0,-1.4803,-1.5142,-1.5391,-1.5418,-1.5418,-1.5418,-1.5209,-1.4643,-1.3746,-1.3988,0.0,0.0,-1.2946,-1.2959,-1.2345,0.0,0.0,0.0,0.0,0.0,0.0,0.0,0.0,0.0,-1.2318,0.0,-1.1899,-1.1899,-1.1703,-1.1415,-1.1429,-1.1442,-1.1455,-1.1429,-1.1415,-1.1362,-1.0841,-1.064,-1.064,-1.064,-1.0814,-1.1009,-1.1009,-1.1196,-1.1389,-1.1415,-1.165,-1.1913,-1.194,-1.2368,-1.2677,-1.2087,0.0,0.0,0.0,0.0,-1.2543,0.0,0.0,0.0,0.0,0.0,0.0,0.0,0.0,0.0,0.0,0.0,0.0,0.0,0.0,0.0,0.0,0.0,-1.2915,-1.2935,-1.3281,-1.3711,0.0,0.0,-1.6261,-1.675,-1.7553,-1.887,-2.0655,-2.1159,-2.2292,-2.4004,-2.4506,-2.4725,-2.475,-2.4725,-2.475,-2.4825,-2.5335,-2.5586,-2.5686,-2.6298,-2.6851,-2.7369,-2.7921,-2.8473,-2.8988,-2.9603,-2.9804,-2.9804,-1.3093,-1.316,-1.3293,0.0,-1.3507,-1.3534,0.0,0.0,0.0,0.0,-1.5231,-1.5391,-1.5685,-1.5712,-1.5712,-1.5712,-1.5645,0.0,0.0,0.0,0.0,-1.3667,-1.3774,-1.348,-1.269,-1.2933,0.0,-1.2305,0.0,0.0,-1.2305,0.0,0.0,0.0,0.0,0.0,-1.1899,-1.1899,-1.1859,-1.177,-1.1984,-1.2211,0.0,0.0,-1.1891,-1.1997,-1.141,-1.1196,-1.1196,-1.1196,-1.1249,-1.1316,-1.1316,-1.1335,-1.1442,-1.169,-1.1846,-1.2007,-1.2435,-1.2837,-1.2999,-1.265,-1.2677,-1.265,0.0,0.0,0.0,0.0,0.0,0.0,0.0,0.0,0.0,0.0,0.0,0.0,0.0,0.0,0.0,0.0,0.0,0.0,0.0,0.0,-1.3008,-1.332,-1.3437,-1.3828,0.0,0.0,0.0,-1.7595,-1.7895,-1.9134,-2.1542,-2.1682,-2.2503,-2.4004,-2.3672,-2.3772,-2.4205,-2.3722,-2.3998,-2.48,-2.4958,-2.5485,-2.6323,-2.6876,-2.7394,-2.7946,-2.8499,-2.9076,-2.9578,-2.9729,-2.9804,-2.9804,-1.3574,-1.3801,0.0,-1.4416,0.0,0.0,-1.4469,0.0,0.0,-1.5351,-1.5511,0.0,-1.5758,-1.5784,-1.5784,-1.5784,-1.5784,0.0,-1.5418,0.0,0.0,-1.4553,-1.4349,-1.3921,-1.316,-1.3186,0.0,-1.2529,0.0,0.0,-1.2543,0.0,0.0,0.0,0.0,-1.2596,0.0,-1.2154,-1.2211,-1.2452,-1.2345,0.0,0.0,-1.2291,-1.2318,-1.2625,-1.2024,-1.1615,-1.1389,-1.1389,-1.1516,-1.1623,-1.1623,-1.1703,-1.1837,-1.2011,-1.2051,-1.2167,-1.2502,-1.2811,-1.2998,-1.2824,-1.2891,-1.2904,-1.2596,-1.2663,-1.2703,0.0,0.0,0.0,0.0,0.0,0.0,0.0,0.0,0.0,0.0,0.0,0.0,0.0,-1.0441,0.0,0.0,-1.2246,-1.3125,-1.3704,-1.3763,0.0,0.0,0.0,0.0,-1.7934,-1.8828,-2.0104,-2.1877,-2.2361,-2.2941,-2.3597,-2.3271,-2.3271,-2.3597,-2.3521,-2.3948,-2.48,-2.5059,-2.5661,-2.6524,-2.7077,-2.762,-2.8197,-2.9001,-2.9503,-2.9804,-2.9804,-2.9804,-2.9804,-1.4148,-1.466,0.0,0.0,0.0,0.0,0.0,-1.5351,0.0,-1.5511,0.0,-1.5872,-1.5784,-1.5784,-1.5784,-1.5784,0.0,-1.5725,-1.5471,-1.5685,-1.5591,-1.5089,-1.4736,-1.4239,-1.3613,-1.336,0.0,0.0,0.0,0.0,0.0,0.0,0.0,0.0,0.0,0.0,0.0,-1.2518,-1.2705,-1.3106,-1.2612,-1.2732,-1.3146,-1.2625,-1.2746,-1.3146,-1.2612,-1.2064,-1.1597,-1.1522,-1.1717,-1.1966,-1.1966,-1.2104,-1.2305,-1.2305,-1.2305,-1.2305,-1.2345,-1.2583,-1.2784,-1.2784,-1.2985,-1.308,-1.2851,-1.2784,-1.2717,-1.2412,-1.2167,-1.194,0.0,0.0,0.0,0.0,0.0,0.0,0.0,0.0,0.0,0.0,0.0,0.0,0.0,0.0,-1.334,-1.4055,-1.4153,0.0,0.0,0.0,0.0,-1.8138,-1.9809,0.0,-2.2279,0.0,-2.3401,-2.3421,-2.3371,-2.3321,-2.3346,-2.3879,-2.4406,-2.4926,-2.541,-2.5963,-2.665,-2.7203,-2.777,-2.8423,-2.9402,-2.9804,-2.9804,-2.9804,-2.9804,-2.9804,-1.4847,0.0,0.0,0.0,0.0,-1.5818,-1.6067,-1.6086,-1.6126,-1.6126,-1.6166,-1.6099,-1.5811,-1.5784,-1.5784,-1.5784,-1.5784,0.0,0.0,0.0,0.0,-1.5337,-1.5044,-1.4496,-1.3626,-1.3547,-1.3293,0.0,0.0,0.0,0.0,0.0,0.0,0.0,0.0,0.0,-1.2797,-1.2959,0.0,-1.2878,-1.2986,-1.312,-1.32,-1.3093,-1.312,-1.32,-1.3093,-1.2826,-1.2516,-1.2225,-1.2184,-1.2225,-1.2225,-1.2265,-1.2305,-1.2305,-1.2305,-1.2358,-1.2636,-1.2744,-1.2784,-1.2784,-1.2824,-1.2851,-1.2797,-1.2784,-1.277,-1.2717,-1.2476,-1.2078,-1.1597,0.0,0.0,0.0,0.0,0.0,0.0,0.0,0.0,0.0,0.0,0.0,0.0,0.0,0.0,0.0,0.0,0.0,0.0,0.0,0.0,0.0,-1.9296,0.0,0.0,0.0,-2.3628,-2.5159,-2.47,-2.4499,-2.4499,-2.46,-2.4958,-2.546,-2.5561,-2.6189,-2.7193,-2.7745,-2.8574,-2.9503,-2.9704,-2.9804,-2.9804,-2.9804,-2.9804,-2.9804,0.0,0.0,0.0,0.0,0.0,0.0,0.0,-1.686,0.0,-1.654,-1.6366,-1.6219,-1.6072,-1.5925,-1.5784,-1.5784,-1.5784,-1.5784,-1.5784,-1.5784,-1.5718,-1.5631,-1.5204,0.0,-1.4066,-1.3613,-1.3307,-1.3213,0.0,0.0,0.0,0.0,0.0,0.0,0.0,-1.3347,0.0,0.0,0.0,-1.3467,-1.328,-1.34,-1.3627,-1.3333,-1.34,-1.3627,-1.332,-1.3213,-1.316,-1.2879,-1.2772,-1.2746,-1.2585,-1.2639,-1.2719,-1.2398,-1.2412,-1.2569,-1.2556,-1.2556,-1.2556,-1.2556,-1.2556,-1.2556,-1.2556,-1.2556,-1.2516,-1.2355,-1.2535,-1.253,-1.193,-1.15,0.0,0.0,0.0,0.0,0.0,0.0,0.0,0.0,0.0,0.0,0.0,0.0,0.0,0.0,0.0,0.0,0.0,0.0,0.0,0.0,0.0,0.0,0.0,0.0,0.0,-2.5184,-2.4901,-2.48,-2.48,-2.48,-2.5109,-2.5586,-2.5586,-2.6239,-2.7344,-2.8197,-2.9026,-2.9804,-2.9804,-2.9804,-2.9804,-2.9804,-2.9804,-2.9804,0.0,-1.5818,0.0,0.0,-1.6896,0.0,-1.723,-1.7642,-1.7732,-1.6831,-1.6513,-1.6313,-1.6192,-1.5965,-1.5784,-1.5784,-1.5784,-1.5784,-1.5784,-1.5784,-1.5784,-1.5784,-1.5271,-1.483,-1.4522,-1.3721,-1.3347,0.0,0.0,0.0,0.0,0.0,0.0,0.0,0.0,0.0,0.0,0.0,-1.344,-1.3961,-1.3561,-1.3681,-1.4041,-1.3574,-1.3681,-1.4028,-1.3561,-1.3547,-1.3666,-1.3467,-1.332,-1.3173,-1.2958,-1.3013,-1.312,-1.2639,-1.2665,-1.2837,-1.2559,-1.2452,-1.2398,-1.2398,-1.2493,-1.2586,-1.2586,-1.2769,-1.2845,-1.2642,-1.298,-1.3146,-1.2558,-1.2241,0.0,0.0,0.0,0.0,0.0,0.0,0.0,0.0,0.0,0.0,0.0,0.0,0.0,0.0,0.0,-1.5059,-1.5391,-1.5999,0.0,0.0,0.0,-2.2826,-2.433,0.0,-2.5862,0.0,-2.5234,-2.5159,-2.5159,-2.5159,-2.546,-2.5963,-2.5963,-2.659,-2.772,-2.8699,-2.9377,-2.9804,-2.9804,-2.9804,-2.9804,-2.9804,-2.9804,-2.9804,0.0,0.0,0.0,0.0,0.0,0.0,-1.7438,-1.8457,-1.8737,-1.6931,-1.6687,-1.646,-1.5925,-1.5798,-1.5784,-1.5784,-1.5784,-1.5784,-1.5784,-1.5784,-1.5784,-1.5784,-1.5271,-1.483,-1.4522,-1.388,-1.3453,0.0,0.0,0.0,0.0,0.0,0.0,0.0,0.0,0.0,0.0,-1.3868,-1.3854,-1.3666,-1.3921,-1.4041,-1.4082,-1.4028,-1.4041,-1.4082,-1.4028,-1.4015,-1.4041,-1.4015,-1.3654,-1.3213,-1.3173,-1.3186,-1.32,-1.3146,-1.3146,-1.316,-1.3133,-1.2958,-1.2744,-1.2744,-1.3163,-1.3571,-1.3571,-1.4279,-1.4906,-1.4909,-1.4423,-1.3852,-1.3396,-1.3054,-1.31,0.0,0.0,0.0,0.0,0.0,0.0,0.0,0.0,0.0,0.0,-1.5371,0.0,0.0,-1.5371,-1.5371,-1.541,-1.6473,-1.7768,-1.926,0.0,-2.2532,-2.5435,-2.5134,0.0,-2.7042,-2.6575,-2.6348,-2.6348,-2.6348,-2.6625,-2.7118,-2.7118,-2.7745,-2.8787,-2.9453,-2.9754,-2.9804,-2.9804,-2.9804,-2.9804,-2.9804,-2.9804,-2.9804,0.0,0.0,0.0,0.0,0.0,0.0,0.0,-1.9192,-1.949,-1.9075,-1.7669,-1.662,-1.638,-1.6046,-1.5784,-1.5784,-1.5784,-1.5784,-1.5784,-1.5784,-1.5784,-1.5784,-1.5444,-1.5164,-1.5044,-1.4295,-1.3935,0.0,0.0,0.0,0.0,0.0,0.0,0.0,0.0,-1.3919,-1.3908,-1.3841,-1.3854,-1.3921,-1.4041,-1.4082,-1.4082,-1.4082,-1.4082,-1.4082,-1.4082,-1.4082,-1.4082,-1.4082,-1.3935,-1.3707,-1.348,-1.3587,-1.3667,-1.332,-1.3293,-1.3387,-1.3253,-1.312,-1.3026,-1.3026,-1.3729,-1.4313,-1.4044,-1.4793,-1.5425,-1.4993,-1.4933,-1.488,-1.469,-1.4582,-1.4446,0.0,0.0,0.0,0.0,0.0,0.0,0.0,0.0,0.0,0.0,0.0,-1.5831,0.0,0.0,-1.541,-1.541,-1.6629,-1.7946,-1.926,0.0,-2.3101,-2.5076,-2.5586,-2.6172,-2.6826,-2.66,-2.6675,-2.6977,-2.6977,-2.7243,-2.7795,-2.8122,-2.8524,-2.8938,-2.9553,-2.9804,-2.9804,-2.9804,-2.9804,-2.9804,-2.9804,-2.9365,-2.891,-1.678,0.0,-1.7174,0.0,-1.8311,-1.9015,-2.0061,-2.0538,-2.0822,-2.09,-1.89,-1.7355,-1.7125,-1.6319,-1.5824,-1.5952,-1.5885,-1.5784,-1.5784,-1.5784,-1.5784,-1.5784,-1.5551,0.0,-1.5391,-1.471,-1.4362,-1.4389,-1.4269,0.0,0.0,-1.4442,0.0,0.0,-1.3961,-1.3975,-1.4068,-1.3868,-1.3895,-1.4082,-1.4082,-1.4082,-1.4082,-1.4082,-1.4082,-1.4082,-1.4082,-1.4082,-1.4095,-1.4188,-1.4215,-1.4162,-1.3868,-1.3921,-1.4001,-1.3587,-1.3614,-1.3734,-1.352,-1.34,-1.3333,-1.3333,-1.4266,-1.515,-1.4842,-1.5865,-1.6595,-1.5825,-1.596,-1.6165,-1.5891,-1.5854,-1.5661,-1.5112,0.0,0.0,0.0,0.0,0.0,0.0,-1.5977,-1.5771,-1.5771,-1.6074,0.0,0.0,0.0,0.0,-1.5771,-1.705,0.0,0.0,0.0,0.0,0.0,-2.5737,-2.6323,-2.6499,-2.6499,-2.6776,-2.7329,-2.762,-2.7971,-2.8373,-2.8925,-2.9176,-2.9227,-2.9628,-2.9804,-2.9804,-2.9804,-2.9804,-2.9804,-2.9804,-2.9067,-2.8227,-1.7139,-1.7434,-1.7989,-1.9317,-2.0924,-2.1969,-2.1709,-2.2818,-2.3167,-2.1845,-2.0241,-1.8895,-1.8156,-1.6709,-1.5952,-1.6295,-1.6005,-1.5784,-1.5784,-1.5784,-1.5784,0.0,0.0,-1.5391,-1.5391,-1.5156,-1.4713,-1.4095,0.0,0.0,-1.3626,-1.4213,-1.4362,-1.4095,-1.4389,-1.4349,-1.4082,-1.4082,-1.4082,-1.4082,-1.4082,-1.4082,-1.4082,-1.4082,-1.4082,-1.4082,-1.4082,-1.4082,-1.4135,-1.4416,-1.4522,-1.4469,-1.4175,-1.4082,-1.4082,-1.4082,-1.4082,-1.4082,-1.4082,-1.3868,-1.36,-1.36,-1.4885,-1.619,-1.6173,-1.7786,-1.9007,-1.8149,-1.7974,-1.7701,-1.6843,-1.6707,-1.6675,-1.6675,0.0,0.0,0.0,0.0,0.0,0.0,-1.6687,-1.6687,-1.6687,0.0,0.0,0.0,0.0,0.0,0.0,0.0,0.0,-1.986,-2.1713,0.0,-2.4775,-2.5335,-2.5921,-2.6499,-2.6499,-2.6776,-2.7354,-2.8423,-2.8863,-2.8913,-2.9528,-2.9779,-2.9779,-2.9804,-2.9804,-2.9804,-2.9804,-2.9804,-2.9804,-2.9804,-2.9067,-2.8084,-1.7434,-1.7515,-1.8042,-1.9369,-2.0028,-2.0972,-2.2785,-2.3434,-2.379,-2.4003,-2.2837,-2.1833,-2.1479,-1.8294,-1.6086,0.0,-1.5838,-1.5784,0.0,-1.6622,-1.7077,-1.7077,-1.699,-1.6979,-1.6979,-1.5865,-1.5164,-1.4977,0.0,0.0,0.0,-1.4937,-1.4856,-1.4389,-1.4696,-1.4776,-1.4727,-1.4727,-1.4727,-1.4713,-1.4469,-1.4389,-1.4389,-1.4389,-1.4255,-1.4108,-1.4309,-1.492,-1.5631,-1.569,-1.6425,-1.7282,-1.7173,-1.6038,-1.4727,-1.4727,-1.4536,-1.4389,-1.4389,-1.4698,-1.5027,-1.5027,-1.6589,-1.8021,-1.7681,-1.849,-1.9219,-1.8945,-1.8887,-1.8809,-1.8516,-1.8188,-1.7993,-1.7993,-1.7759,0.0,0.0,0.0,0.0,0.0,-1.6882,-1.6707,0.0,-1.6992,0.0,0.0,0.0,0.0,0.0,0.0,0.0,0.0,-2.3514,0.0,-2.5335,-2.5912,-2.6323,-2.6499,-2.6876,-2.7494,-2.8423,-2.9176,-2.9528,-2.9528,-2.9704,-2.9804,-2.9804,-2.9804,-2.9804,-2.9804,-2.9804,-2.9804,-2.9804,-2.9804,-2.9067,-2.8084,-1.8314,-1.876,-1.9576,-2.0896,-2.1151,-2.1912,-2.4097,-2.4461,-2.4662,-2.5256,-2.4216,-2.3365,-2.3105,-2.0119,0.0,-1.6987,-1.6334,-1.5952,-1.5784,-1.6527,-1.7171,-1.7684,-1.7217,-1.7232,-1.7684,0.0,0.0,-1.5391,-1.5284,-1.5137,-1.5008,-1.515,-1.5044,-1.4696,-1.4928,-1.5008,-1.5008,-1.5008,-1.5008,-1.4995,-1.4763,-1.4683,-1.4683,-1.4683,-1.4576,-1.4442,-1.4616,-1.5152,-1.5879,-1.646,-1.7296,-1.8201,-1.877,-1.789,-1.6667,-1.6418,-1.5863,-1.5416,-1.5734,-1.6181,-1.6511,-1.6345,-1.7658,-1.9022,-1.9156,-1.9488,-1.9727,-1.9551,-1.9531,-1.9473,-1.9316,-1.8926,-1.8598,-1.8598,-1.8247,-1.8008,-1.8008,0.0,0.0,0.0,0.0,0.0,0.0,-1.7852,0.0,0.0,0.0,0.0,0.0,0.0,0.0,-2.2544,-2.4764,0.0,-2.5912,-2.6725,-2.7102,-2.7128,-2.7645,-2.8273,-2.8913,-2.9528,-2.9804,-2.9804,-2.9804,-2.9804,-2.9804,-2.9804,-2.9804,-2.9804,-2.9804,-2.9804,-2.9804,-2.9804,-2.9067,-2.8044,-1.9731,-2.081,0.0,0.0,-2.3737,0.0,-2.5518,-2.5713,-2.5693,-2.5693,-2.4609,-2.3704,-2.342,-2.2181,-2.0753,-1.9143,0.0,0.0,0.0,-1.5879,-1.648,-1.7777,-1.6716,-1.6669,-1.7917,-1.6716,-1.5886,-1.557,-1.5377,-1.5273,-1.517,-1.5273,-1.5273,-1.517,-1.5197,-1.5152,-1.5075,-1.5075,-1.5075,-1.5062,-1.5048,-1.5035,-1.5035,-1.5035,-1.5066,-1.5143,-1.5156,-1.5259,-1.56,-1.6966,-1.7522,-1.7869,-1.929,-1.9679,-1.95,-1.8862,-1.7866,-1.7118,-1.7875,-1.8096,-1.8004,-1.7588,-1.8296,-1.9353,-2.0352,-2.0605,-2.0488,-2.0039,-1.9961,-1.9844,-1.9453,-1.9023,-1.8676,-1.8656,-1.8286,-1.8047,-1.8008,0.0,0.0,0.0,0.0,0.0,0.0,-1.9151,-1.9444,0.0,0.0,0.0,0.0,0.0,-2.3197,-2.3637,-2.554,-2.6549,-2.6549,-2.757,-2.8122,-2.8172,-2.8637,-2.8913,-2.8963,-2.9553,-2.9804,-2.9804,-2.9804,-2.9804,-2.9804,-2.9804,-2.9804,-2.9804,-2.9804,-2.9804,-2.9804,-2.9804,-2.9145,-2.8044,0.0,0.0,-2.2587,-2.3931,-2.4184,-2.4656,-2.6013,-2.5957,-2.5693,-2.5693,-2.543,-2.5197,-2.513,-2.3901,-2.2885,-2.2254,-1.9509,-1.7232,-1.5893,-1.6716,-1.7824,-1.8993,-1.8764,-1.9222,-2.0432,-1.9252,-1.8134,-1.7162,-1.8026,-1.7841,-1.6696,-1.7901,-1.7795,-1.6711,-1.6928,-1.649,-1.5618,-1.5618,-1.5618,-1.5605,-1.5378,-1.5297,-1.5297,-1.5297,-1.577,-1.6404,-1.6608,-1.789,-1.9582,-1.9931,-2.0773,-2.1769,-2.2145,-2.1632,-2.0667,-1.9597,-1.8962,-1.8599,-1.8781,-1.9033,-1.9188,-1.9082,-1.9614,-2.0294,-2.0527,-2.0605,-2.0566,-2.0468,-2.0449,-2.0429,-2.0312,-1.9902,-1.9512,-1.918,-1.8734,-1.8344,-1.8047,-1.8008,0.0,0.0,-1.8598,-1.9033,-2.0168,-2.0384,-2.0949,0.0,0.0,0.0,0.0,-2.562,-2.5865,-2.5112,-2.6386,-2.7128,-2.7128,-2.777,-2.8323,-2.8687,-2.8838,-2.9113,-2.9603,-2.9729,-2.9804,-2.9804,-2.9804,-2.9804,-2.9804,-2.9804,-2.9804,-2.9804,-2.9804,-2.9804,-2.9804,-2.9804,-2.9624,-2.9131,-2.3049,-2.3732,-2.4452,-2.5368,-2.5389,-2.5528,-2.6287,-2.6016,-2.5693,-2.5693,-2.5693,-2.5693,-2.5693,-2.5069,-2.4245,-2.3384,-2.1059,-1.9188,-1.8133,-1.8534,-1.9328,-2.0589,-1.9899,-2.007,-2.1284,-2.0116,-1.9177,-1.8503,-1.9177,-1.8806,-1.7446,-1.8272,-1.821,-1.7446,-1.7609,-1.7638,-1.7483,-1.7483,-1.7483,-1.7468,-1.7337,-1.6955,-1.6462,-1.6462,-1.6762,-1.7251,-1.7386,-1.8659,-2.0359,-2.0889,-2.1625,-2.2359,-2.2906,-2.2624,-2.1987,-2.1364,-2.0668,-2.0191,-2.0561,-2.0802,-2.0814,-2.0439,-2.0636,-2.082,-2.0644,-2.0605,-2.0605,-2.0605,-2.0605,-2.0605,-2.0605,-2.0215,-1.9785,-1.9355,-1.8926,-1.8461,-1.8066,-1.8184,0.0,-1.8887,-1.9277,-2.0032,-2.1318,-2.1792,-2.2592,-2.3967,0.0,0.0,-2.6124,-2.713,-2.7268,-2.6389,-2.7444,-2.8021,-2.8021,-2.8599,-2.9026,-2.9327,-2.9327,-2.9478,-2.9804,-2.9804,-2.9804,-2.9804,-2.9804,-2.9804,-2.9804,-2.9804,-2.9804,-2.9804,-2.9804,-2.9804,-2.9804,-2.9804,-2.9804,-2.9546,-2.5164,-2.592,-2.6602,-2.6953,-2.666,-2.6387,-2.6387,-2.6074,-2.5771,-2.5693,-2.5791,-2.583,-2.5693,-2.5752,-2.5256,-2.3784,-2.2575,-2.1555,-2.0843,-2.0415,-2.0746,-2.1933,-2.0635,-2.0411,-2.1569,-2.0584,-1.9951,-1.9753,-1.9951,-1.9405,-1.8226,-1.8411,-1.8427,-1.8241,-1.8226,-1.8734,-1.9497,-1.9497,-1.9497,-1.9497,-1.9497,-1.8918,-1.7963,-1.7963,-1.8102,-1.8226,-1.8226,-1.8993,-2.0223,-2.1212,-2.1569,-2.1747,-2.2775,-2.3101,-2.3101,-2.3101,-2.2359,-2.1717,-2.2394,-2.2559,-2.2324,-2.1502,-2.1288,-2.123,-2.0879,-2.0801,-2.0781,-2.0723,-2.0703,-2.0683,-2.0625,-2.0254,-1.9863,-1.9453,-1.9023,-1.8578,-1.8242,0.0,-1.8812,-1.9414,-2.0155,-2.1148,-2.2492,-2.3314,-2.4282,-2.5649,-2.6491,-2.7102,0.0,-2.8072,-2.8097,-2.7544,-2.8448,-2.8938,-2.9013,-2.9553,-2.9804,-2.9804,-2.9804,-2.9804,-2.9804,-2.9804,-2.9804,-2.9804,-2.9804,-2.9804,-2.9804,-2.9804,-2.9804,-2.9804,-2.9804,-2.9804,-2.9804,-2.9804,-2.9804,-2.9624,-2.6461,-2.68,-2.6934,-2.7012,-2.666,-2.6387,-2.6387,-2.6328,-2.6152,-2.5732,-2.6317,-2.6543,-2.5771,-2.6074,-2.6014,-2.5373,-2.512,-2.3791,-2.1004,-2.076,-2.1066,-2.1951,-2.1723,-2.1998,-2.2775,-2.2643,-2.2031,-2.1016,-2.2031,-2.1898,-2.0747,-2.1765,-2.1739,-2.0737,-2.0764,-2.0251,-1.9497,-1.9497,-1.9497,-1.9497,-1.9497,-1.9405,-1.9222,-1.9222,-1.9844,-2.0747,-2.0747,-2.1543,-2.2599,-2.2775,-2.2818,-2.2862,-2.3057,-2.3101,-2.3101,-2.3101,-2.295,-2.2843,-2.296,-2.2773,-2.2402,-2.1914,-2.1777,-2.1777,-2.1699,-2.168,-2.1582,-2.1211,-2.1093,-2.1016,-2.0683,-2.0546,-2.0332,-1.9883,-1.9453,-1.916,-1.9102,0.0,-1.9026,-2.0273,-2.0527,-2.1641,-2.4305,-2.4681,-2.5777,-2.8164,-2.8475,-2.8562,-2.8637,-2.9227,-2.9277,-2.8662,-2.8787,-2.9113,-2.9654,-2.9754,-2.9804,-2.9804,-2.9804,-2.9804,-2.9804,-2.9804,-2.9804,-2.9804,-2.9804,-2.9804,-2.9804,-2.9804,-2.9804,-2.9804,-2.9804,-2.9804,-2.9804,-2.9804,-2.9804,-2.9624,-2.7493,-2.7324,-2.7168,-2.7617,-2.7363,-2.707,-2.707,-2.6875,-2.666,-2.6445,-2.6777,-2.6855,-2.6415,-2.6602,-2.6641,-2.6445,-2.6211,-2.5457,-2.3895,-2.3407,-2.3267,-2.3663,-2.3456,-2.3362,-2.3452,-2.3218,-2.2818,-2.2271,-2.2818,-2.2492,-2.1284,-2.1854,-2.1854,-2.1302,-2.1302,-2.1346,-2.1454,-2.1454,-2.1454,-2.1454,-2.1454,-2.1033,-2.0477,-2.0477,-2.0792,-2.1302,-2.1302,-2.2076,-2.3101,-2.3101,-2.3101,-2.3101,-2.3101,-2.3101,-2.3101,-2.3101,-2.3101,-2.3101,-2.3101,-2.2945,-2.2711,-2.2324,-2.2227,-2.2168,-2.1934,-2.1894,-2.1836,-2.1621,-2.1582,-2.1445,-2.1016,-2.0918,-2.0781,-2.0332,-1.9902,0.0,0.0,-1.9648,-1.9902,-2.0527,-2.1231,-2.2635,-2.5182,-2.5672,-2.682,-2.9199,-2.9402,-2.9402,-2.9402,-2.9654,-2.9679,-2.9402,-2.9402,-2.9528,-2.9804,-2.9804,-2.9804,-2.9804,-2.9804,-2.9804,-2.9804,-2.9804,-2.9804,-2.9804,-2.9804,-2.9804,-2.9804,-2.9804,-2.9804,-2.9804,-2.9804,-2.9804,-2.9804,-2.9804,-2.9804,-2.9702,-2.8144,-2.7676,-2.7363,-2.8027,-2.7793,-2.7571,-2.7571,-2.7324,-2.7129,-2.7031,-2.7187,-2.7246,-2.7031,-2.7109,-2.7129,-2.7031,-2.6719,-2.6484,-2.6387,-2.5742,-2.5321,-2.5125,-2.4648,-2.4219,-2.3809,-2.3457,-2.3198,-2.3101,-2.3101,-2.2624,-2.1702,-2.1702,-2.1702,-2.1702,-2.1702,-2.2208,-2.3101,-2.3101,-2.3101,-2.3101,-2.3101,-2.2536,-2.1702,-2.1702,-2.1702,-2.1702,-2.1702,-2.2315,-2.3101,-2.3101,-2.3101,-2.3101,-2.3101,-2.3101,-2.3101,-2.3101,-2.3101,-2.3101,-2.3101,-2.3101,-2.3023,-2.2734,-2.2656,-2.2578,-2.2246,-2.2168,-2.2148,-2.2051,-2.2031,-2.1894,-2.1465,-2.1346,-2.1269,-2.0977,0.0,0.0,0.0,-2.0566,-2.0801,-2.1036,-2.1894,-2.3407,-2.5739,-2.63,-2.7424,-2.9624,-2.9804,-2.9804,-2.9804,-2.9804,-2.9804,-2.9804,-2.9804,-2.9804,-2.9804,-2.9804,-2.9804,-2.9804,-2.9804,-2.9804,-2.9804,-2.9804,-2.9804,-2.9804,-2.9804,-2.9804,-2.9804,-2.9804,-2.9804,-2.9804,-2.9804,-2.9804,-2.9804,-2.9804,-2.9804,-2.9804,-2.8203,-2.793,-2.7689,-2.7748,-2.7344,-2.707,-2.707,-2.7383,-2.748,-2.707,-2.7715,-2.7891,-2.7109,-2.7383,-2.7461,-2.7051,-2.6992,-2.6797,-2.6406,-2.6328,-2.5918,-2.5145,-2.4648,-2.4219,-2.3809,-2.3769,-2.3535,-2.3101,-2.3101,-2.3057,-2.295,-2.295,-2.295,-2.295,-2.295,-2.3013,-2.3101,-2.3101,-2.3101,-2.3101,-2.3101,-2.3057,-2.295,-2.295,-2.295,-2.295,-2.295,-2.2994,-2.3101,-2.3101,-2.3101,-2.3101,-2.3101,-2.3101,-2.3101,-2.3101,-2.3101,-2.3101,-2.3101,-2.3101,-2.3081,-2.3062,-2.3042,-2.3042,-2.3003,-2.3003,-2.2886,-2.2539,-2.2461,-2.2344,-2.1914,-2.1836,-2.1836,-2.1797,0.0,0.0,-2.168,-2.1426,-2.1444,-2.2266,-2.2461,-2.3529,-2.6165,-2.6502,-2.7424,-2.9624,-2.9804,-2.9804,-2.9804,-2.9804,-2.9804,-2.9804,-2.9804,-2.9804,-2.9804,-2.9804,-2.9804,-2.9804,-2.9804,-2.9804,-2.9804,-2.9804,-2.9804,-2.9804,-2.9804,-2.9804,-2.9804,-2.9804,-2.9804,-2.9804,-2.9804,-2.9804,-2.9804,-2.9804,-2.9804,-2.9804,-2.8203,-2.7949,-2.7806,-2.8008,-2.791,-2.7812,-2.7812,-2.7949,-2.7988,-2.7832,-2.8086,-2.8164,-2.7851,-2.7949,-2.7988,-2.7812,-2.7578,-2.7344,-2.7239,-2.668,-2.6113,-2.5508,-2.5059,-2.4746,-2.4636,-2.4316,-2.3965,-2.3535,-2.3535,-2.3398,-2.3101,-2.3101,-2.3237,-2.3535,-2.3218,-2.3237,-2.3516,-2.3198,-2.3101,-2.3101,-2.3101,-2.3101,-2.3101,-2.3101,-2.3101,-2.3101,-2.3101,-2.3101,-2.3101,-2.3101,-2.3101,-2.3101,-2.3101,-2.3101,-2.314,-2.3457,-2.3535,-2.3535,-2.3535,-2.3296,-2.3101,-2.3101,-2.3101,-2.3101,-2.3101,-2.3101,-2.3042,-2.2886,-2.2847,-2.273,-2.2363,-2.2266,-2.2266,-2.2266,0.0,-2.1777,-2.2207,-2.2129,-2.2148,-2.248,-2.2734,-2.3533,-2.5273,-2.6088,-2.7139,-2.8648,-2.9404,-2.9804,-2.9804,-2.9804,-2.9804,-2.9804,-2.9804,-2.9804,-2.9804,-2.9804,-2.9804,-2.9804,-2.9804,-2.9804,-2.9804,-2.9804,-2.9804,-2.9804,-2.9804,-2.9804,-2.9804,-2.9804,-2.9804,-2.9804,-2.9804,-2.9365,-2.8806,-2.9546,-2.9365,-2.8767,-2.8203,-2.8066,-2.8002,-2.8242,-2.8301,-2.8301,-2.8301,-2.8301,-2.8301,-2.8301,-2.8301,-2.8301,-2.8301,-2.8301,-2.8301,-2.8301,-2.8027,-2.7812,-2.7728,-2.6855,-2.6191,-2.5713,-2.5449,-2.5215,-2.5125,-2.4766,-2.4414,-2.3984,-2.3984,-2.3828,-2.3491,-2.3491,-2.3691,-2.3965,-2.3627,-2.3633,-2.3769,-2.3477,-2.3218,-2.3101,-2.3237,-2.3296,-2.3315,-2.3452,-2.3491,-2.3491,-2.3491,-2.3491,-2.3491,-2.3491,-2.3413,-2.3296,-2.3296,-2.3296,-2.3437,-2.3867,-2.3984,-2.3984,-2.3984,-2.3769,-2.3471,-2.3335,-2.3393,-2.3491,-2.3491,-2.3393,-2.3296,-2.3296,-2.3198,-2.3003,-2.2711,-2.2672,-2.2672,-2.2672,-2.2461,-2.2383,-2.2676,-2.2672,-2.2672,-2.2672,-2.2925,-2.3731,-2.5423,-2.6135,-2.7213,-2.9004,-2.9712,-3.0131,-3.0281,-2.998,-2.988,-3.0055,-2.988,-2.9804,-2.9804,-2.9804,-2.9804,-2.9804,-2.9955,-2.9955,-2.9804,-2.998,-2.9955,-2.9804,-2.9804,-2.9804,-2.9804,-2.9804,-2.9804,-2.9804,-2.9804,-2.9326,-2.8688,-2.9106,-2.8767,-2.8044,-2.8203,-2.8301,-2.8301,-2.8301,-2.8301,-2.8301,-2.8301,-2.8301,-2.8301,-2.8301,-2.8301,-2.8301,-2.8301,-2.8301,-2.8301,-2.8301,-2.8301,-2.8125,-2.7748,-2.6875,-2.6211,-2.5713,-2.5693,-2.5527,-2.5125,-2.5125,-2.4863,-2.4414,-2.4414,-2.4414,-2.4414,-2.4414,-2.4414,-2.4414,-2.4414,-2.418,-2.3809,-2.3789,-2.3555,-2.314,-2.3613,-2.3789,-2.3848,-2.4258,-2.4414,-2.4414,-2.4414,-2.4414,-2.4414,-2.4414,-2.4141,-2.3789,-2.3789,-2.3789,-2.3867,-2.4297,-2.4414,-2.4414,-2.4414,-2.4414,-2.4316,-2.3906,-2.4102,-2.4414,-2.4414,-2.4102,-2.3789,-2.3789,-2.3457,-2.3101,-2.3101,-2.3101,-2.3101,-2.3101,-2.3101,-2.3101,-2.3101,-2.3101,-2.3101,-2.3101,-2.3144,-2.4242,-2.705,-2.6816,-2.7882,-3.1123,-3.0909,-3.0859,-3.1361,-3.0382,-3.0055,-3.0608,-3.008,-2.9804,-2.9804,-2.9804,-2.9804,-2.9804,-3.0357,-3.0331,-2.9829,-3.0357,-3.0306,-2.9804,-2.9804,-2.9804,-2.9804,-2.9804,-2.9804,-2.9804,-2.9804,-2.9804,-2.9624,-2.853,-2.8084,-2.7924,-2.8262,-2.8301,-2.8301,-2.8301,-2.8301,-2.8301,-2.8301,-2.8301,-2.8301,-2.8301,-2.8301,-2.8301,-2.8301,-2.8301,-2.8301,-2.8301,-2.8301,-2.8125,-2.7748,-2.7474,-2.709,-2.666,-2.6005,-2.5635,-2.5547,-2.5527,-2.5312,-2.4863,-2.4863,-2.4727,-2.4414,-2.4414,-2.459,-2.4863,-2.4551,-2.4512,-2.4715,-2.4355,-2.416,-2.3997,-2.418,-2.4238,-2.4238,-2.4375,-2.4414,-2.4414,-2.4414,-2.4414,-2.4414,-2.4414,-2.4336,-2.4238,-2.4238,-2.4238,-2.4316,-2.4746,-2.4863,-2.4863,-2.4863,-2.5098,-2.5109,-2.4414,-2.4316,-2.4414,-2.4414,-2.4316,-2.4238,-2.4238,-2.4121,-2.3978,-2.3978,-2.3978,-2.3945,-2.3652,-2.3594,-2.3496,-2.314,-2.4106,-2.4856,-2.4856,-2.5869,-2.6954,-2.7802,-2.8457,-2.9219,-3.0223,-3.0827,-3.1235,-3.1386,-3.1085,-3.0809,-3.0633,-3.0457,-3.0181,-2.9804,-2.9804,-2.998,-3.0357,-3.0532,-3.0708,-3.0909,-3.0708,-3.0532,-3.0357,-2.9955,-2.9804,-2.9804,-2.9804,-2.9804,-2.9829,-3.0206,-2.9172,-2.7592,-2.839,-2.7433,-2.5799,-2.8301,-2.8301,-2.8301,-2.8301,-2.8301,-2.8301,-2.8301,-2.8301,-2.8301,-2.8301,-2.8301,-2.8301,-2.8301,-2.8301,-2.8301,-2.8301,-2.8301,-2.8184,-2.793,-2.7806,-2.7539,-2.7285,-2.6602,-2.62,-2.62,-2.6074,-2.5859,-2.5586,-2.541,-2.5195,-2.4894,-2.4894,-2.5078,-2.5312,-2.5059,-2.498,-2.5106,-2.4785,-2.457,-2.4434,-2.4609,-2.4668,-2.4687,-2.4863,-2.4894,-2.4961,-2.5137,-2.5195,-2.5195,-2.5195,-2.5078,-2.4961,-2.5137,-2.5195,-2.5273,-2.5703,-2.584,-2.5801,-2.5644,-2.5918,-2.6025,-2.5371,-2.5059,-2.4894,-2.4894,-2.4805,-2.4668,-2.4668,-2.4531,-2.4414,-2.4414,-2.4808,-2.5073,-2.4811,-2.5218,-2.5425,-2.5134,-2.5978,-2.6585,-2.6585,-2.75,-2.8377,-2.9017,-2.9541,-3.0068,-3.0706,-3.1381,-3.1813,-3.2039,-3.1637,-3.1336,-3.126,-3.1035,-3.0758,-3.0432,-3.0432,-3.0482,-3.0633,-3.1035,-3.1286,-3.1386,-3.1286,-3.1135,-3.0909,-3.0557,-3.0432,-3.0407,-3.0206,-3.0131,-3.0156,-3.0482,-2.9173,-2.7249,-2.8147,-2.7211,-2.5401,-2.8301,-2.8301,-2.8301,-2.8301,-2.8301,-2.8301,-2.8301,-2.8301,-2.8301,-2.8301,-2.8301,-2.8301,-2.8301,-2.8301,-2.8301,-2.8301,-2.832,-2.8359,-2.8398,-2.8008,-2.7826,-2.7826,-2.7363,-2.7129,-2.7129,-2.668,-2.6426,-2.6387,-2.6035,-2.5771,-2.5693,-2.5732,-2.5732,-2.5693,-2.5693,-2.5508,-2.5137,-2.5137,-2.4902,-2.457,-2.4961,-2.5137,-2.5223,-2.5625,-2.5752,-2.581,-2.6289,-2.6445,-2.6445,-2.6445,-2.6172,-2.5869,-2.6328,-2.6445,-2.6523,-2.6894,-2.7012,-2.6934,-2.6543,-2.6719,-2.6914,-2.6543,-2.6152,-2.581,-2.581,-2.5508,-2.5243,-2.5243,-2.4863,-2.459,-2.4551,-2.5457,-2.6277,-2.6325,-2.7304,-2.8028,-2.8092,-2.8245,-2.8311,-2.8311,-2.8443,-2.9127,-3.0659,-3.0361,-3.0712,-3.2156,-3.229,-3.2516,-3.3043,-3.2089,-3.1738,-3.219,-3.1738,-3.1436,-3.1386,-3.1436,-3.1235,-3.0758,-3.1738,-3.1964,-3.1562,-3.2014,-3.1938,-3.1461,-3.1411,-3.1386,-3.1361,-3.0688,-3.0473,-3.0523,-3.0403,-2.9351,-2.79,-2.7863,-2.7188,-2.6078,-2.8301,-2.8301,-2.8301,-2.8301,-2.8301,-2.8301,-2.8301,-2.8301,-2.8301,-2.8301,-2.8301,-2.8301,-2.8301,-2.8301,-2.8301,-2.8301,-2.8594,-2.8926,-2.9277,-2.8887,-2.8652,-2.8652,-2.8242,-2.8008,-2.8008,-2.7266,-2.6719,-2.6387,-2.6621,-2.6387,-2.5693,-2.6094,-2.6055,-2.5693,-2.5693,-2.5635,-2.5586,-2.5586,-2.5499,-2.5421,-2.5499,-2.5586,-2.5644,-2.6074,-2.625,-2.6309,-2.6719,-2.6875,-2.6875,-2.6875,-2.6816,-2.6758,-2.6855,-2.6875,-2.6894,-2.6992,-2.7012,-2.6992,-2.6894,-2.6953,-2.6992,-2.6894,-2.6797,-2.6738,-2.6738,-2.6406,-2.6094,-2.6094,-2.6035,-2.5859,-2.546,-2.5641,-2.6026,-2.6664,-2.7013,-2.7362,-2.8007,-2.9236,-3.008,-3.008,-3.124,-3.2185,-3.2524,-3.2468,-3.2529,-3.2893,-3.2893,-3.2943,-3.3111,-3.2885,-3.2566,-3.2215,-3.2089,-3.1813,-3.1386,-3.1813,-3.1989,-3.1863,-3.2114,-3.239,-3.2734,-3.2365,-3.2139,-3.2014,-3.1587,-3.1386,-3.1295,-2.987,-2.9501,-2.972,-2.8812,-2.7715,-2.656,-2.696,-2.6156,-2.4801,-2.8301,-2.8301,-2.8301,-2.8301,-2.8301,-2.8301,-2.8301,-2.8457,-2.8594,-2.8594,-2.8769,-2.8906,-2.8906,-2.8906,-2.8906,-2.8906,-2.9101,-2.9336,-2.9551,-2.9355,-2.9219,-2.9219,-2.9023,-2.8809,-2.8594,-2.8144,-2.7617,-2.6992,-2.7012,-2.6797,-2.6348,-2.6582,-2.6562,-2.6298,-2.6298,-2.6298,-2.6298,-2.6298,-2.6298,-2.6298,-2.6298,-2.6298,-2.6367,-2.6602,-2.668,-2.6738,-2.7168,-2.7324,-2.7363,-2.7559,-2.75,-2.7363,-2.7559,-2.7617,-2.7617,-2.7617,-2.7617,-2.7578,-2.7383,-2.7461,-2.7578,-2.7383,-2.7324,-2.7266,-2.707,-2.6836,-2.668,-2.668,-2.668,-2.6802,-2.7189,-2.7765,-2.853,-2.9591,-3.0239,-3.0692,-3.0822,-3.1627,-3.2073,-3.1804,-3.2567,-3.3194,-3.3445,-3.347,-3.3571,-3.3847,-3.3621,-3.347,-3.347,-3.3262,-3.2943,-3.2641,-3.2616,-3.2491,-3.219,-3.2491,-3.2616,-3.2616,-3.2616,-3.2792,-3.3111,-3.2767,-3.2616,-3.2616,-3.2315,-3.219,-3.2098,-3.0959,-3.0302,-2.9905,-2.9323,-2.7877,-2.6232,-2.7592,-2.7045,-2.5589,-2.8301,-2.8359,-2.8398,-2.8398,-2.8457,-2.8516,-2.8516,-2.8809,-2.9023,-2.9023,-2.9355,-2.9626,-2.9626,-2.9626,-2.9646,-2.9668,-2.9668,-2.9707,-2.9841,-2.9783,-2.9668,-2.9668,-2.9665,-2.9394,-2.9043,-2.9023,-2.8574,-2.7728,-2.7383,-2.7168,-2.7012,-2.709,-2.709,-2.7012,-2.7012,-2.7012,-2.7012,-2.7012,-2.7012,-2.7012,-2.7012,-2.7012,-2.7031,-2.709,-2.7129,-2.7187,-2.7617,-2.7865,-2.793,-2.8281,-2.8164,-2.793,-2.8301,-2.8359,-2.8301,-2.8301,-2.8301,-2.8223,-2.7871,-2.8027,-2.8203,-2.7904,-2.7826,-2.7676,-2.7324,-2.7187,-2.7129,-2.7129,-2.7129,-2.7447,-2.8487,-2.9731,-3.1019,-3.2324,-3.3582,-3.4325,-3.4053,-3.4048,-3.3872,-3.342,-3.3345,-3.3545,-3.3997,-3.4048,-3.4223,-3.47,-3.4299,-3.4048,-3.4048,-3.352,-3.3262,-3.3262,-3.3162,-3.3111,-3.3111,-3.3212,-3.3262,-3.3262,-3.3319,-3.3319,-3.3219,-3.3162,-3.3162,-3.3219,-3.3162,-3.3111,-3.3043,-3.2229,-3.1394,-3.047,-2.9983,-2.8388,-2.6529,-2.8166,-2.7886,-2.6687,-2.8301,-2.8574,-2.8828,-2.8828,-2.9141,-2.9394,-2.9394,-2.9453,-2.9492,-2.9492,-2.9531,-2.9626,-2.9626,-2.9626,-2.9726,-3.0078,-3.0117,-3.0293,-3.0684,-3.0332,-3.0117,-3.0117,-2.9766,-2.9607,-2.9492,-2.9492,-2.8887,-2.7728,-2.7969,-2.7734,-2.7031,-2.7402,-2.7383,-2.7012,-2.7012,-2.7012,-2.7012,-2.7012,-2.7012,-2.7012,-2.7012,-2.7012,-2.7051,-2.7441,-2.763,-2.7637,-2.8066,-2.8437,-2.8769,-2.8809,-2.8789,-2.8769,-2.8809,-2.8574,-2.8301,-2.8301,-2.8301,-2.8281,-2.8223,-2.8242,-2.8281,-2.8223,-2.8203,-2.8203,-2.8144,-2.7832,-2.763,-2.763,-2.763,-2.7565,-2.7326,-2.8366,-2.9682,-3.0971,-3.2277,-3.3511,-3.449,-3.46,-3.4575,-3.45,-3.45,-3.4525,-3.4555,-3.46,-3.465,-3.468,-3.4605,-3.46,-3.46,-3.4098,-3.3796,-3.3796,-3.3319,-3.3111,-3.3111,-3.3545,-3.3796,-3.3796,-3.4274,-3.4248,-3.3771,-3.3294,-3.3345,-3.3771,-3.3294,-3.3111,-3.2975,-3.1436,-3.0941,-3.0835,-2.8339,-2.7374,-2.7291,-2.6532,-2.6071,-2.5886,-2.9004,-2.916,-2.9277,-2.9277,-2.9434,-2.9626,-2.9626,-2.9766,-2.9922,-2.9922,-3.0156,-3.0312,-3.0312,-3.0312,-3.0391,-3.0566,-3.0586,-3.0664,-3.0879,-3.0703,-3.0586,-3.0586,-3.041,-3.0176,-2.9922,-2.9922,-2.9531,-2.8785,-2.8672,-2.832,-2.7734,-2.8164,-2.8144,-2.7734,-2.7969,-2.7949,-2.7734,-2.7734,-2.7871,-2.8086,-2.8086,-2.8223,-2.8457,-2.8652,-2.8574,-2.8359,-2.832,-2.8711,-2.9238,-2.9004,-2.9082,-2.9238,-2.9004,-2.8789,-2.8633,-2.8633,-2.8633,-2.8691,-2.8945,-2.9004,-2.9004,-2.9004,-2.8828,-2.8633,-2.8633,-2.832,-2.8008,-2.8008,-2.8008,-2.8403,-2.971,-3.0457,-3.1533,-3.36,-3.4457,-3.4947,-3.5136,-3.5132,-3.5031,-3.4751,-3.468,-3.4806,-3.5107,-3.5132,-3.5303,-3.5604,-3.5353,-3.5132,-3.5132,-3.465,-3.4349,-3.4349,-3.4123,-3.3997,-3.3997,-3.4248,-3.4349,-3.4349,-3.46,-3.46,-3.4349,-3.3796,-3.3671,-3.3872,-3.3319,-3.3111,-3.3043,-3.2296,-3.1671,-3.1021,-2.9081,-2.7997,-2.7458,-2.6159,-2.6159,-2.6668]},{"header":{"parameterUnit":"m.s-1","parameterCategory":1,"la1":30.6,"la2":28.766,"lo1":-90.7593,"lo2":-88.6598,"dy":0.0162,"dx":0.0183,"nx":116,"ny":114,"refTime":"2024-02-02T06:00:00:Z","depth":0,"parameterNumber":3,"parameterNumberName":"V-component_of_WINDS"},"data":[0.0,0.0,0.0,0.0,0.0,0.0,0.0,0.0,0.0,0.0,0.0,0.0,0.0,0.0,0.0,0.0,0.0,0.0,0.0,0.0,0.0,0.0,0.0,0.0,0.0,0.0,0.0,0.0,0.0,0.0,0.0,0.0,0.0,0.0,0.0,0.0,0.0,0.0,0.0,0.0,0.0,0.0,0.0,0.0,0.0,0.0,0.0,0.0,0.0,0.0,0.0,0.0,0.0,0.0,0.0,0.0,0.0,0.0,0.0,0.0,0.0,0.0,0.0,0.0,0.0,0.0,0.0,0.0,0.0,0.0,0.0,0.0,0.0,0.0,0.0,0.0,0.0,0.0,0.0,0.0,0.0,0.0,0.0,0.0,0.0,0.0,0.0,0.0,0.0,0.0,0.0,0.0,0.0,0.0,0.0,0.0,0.0,0.0,0.0,0.0,0.0,0.0,0.0,0.0,0.0,0.0,0.0,0.0,0.0,0.0,0.0,0.0,0.0,0.0,0.0,0.0,0.0,0.0,0.0,0.0,0.0,0.0,0.0,0.0,0.0,0.0,0.0,0.0,0.0,0.0,0.0,0.0,0.0,0.0,0.0,0.0,0.0,0.0,0.0,0.0,0.0,0.0,0.0,0.0,0.0,0.0,0.0,0.0,0.0,0.0,0.0,0.0,0.0,0.0,0.0,0.0,0.0,0.0,0.0,0.0,0.0,0.0,0.0,0.0,0.0,0.0,0.0,0.0,0.0,0.0,0.0,0.0,0.0,0.0,0.0,0.0,0.0,0.0,0.0,0.0,0.0,0.0,0.0,0.0,0.0,0.0,0.0,0.0,0.0,0.0,0.0,0.0,0.0,0.0,0.0,0.0,0.0,0.0,0.0,0.0,0.0,0.0,0.0,0.0,0.0,0.0,0.0,0.0,0.0,0.0,0.0,0.0,0.0,0.0,0.0,0.0,0.0,0.0,0.0,0.0,0.0,0.0,0.0,0.0,0.0,0.0,0.0,0.0,0.0,0.0,0.0,0.0,0.0,0.0,0.0,0.0,0.0,0.0,0.0,0.0,0.0,0.0,0.0,0.0,0.0,0.0,0.0,0.0,0.0,0.0,0.0,0.0,0.0,0.0,0.0,0.0,0.0,0.0,0.0,0.0,0.0,0.0,0.0,0.0,0.0,0.0,0.0,0.0,0.0,0.0,0.0,0.0,0.0,0.0,0.0,0.0,0.0,0.0,0.0,0.0,0.0,0.0,0.0,0.0,0.0,0.0,0.0,0.0,0.0,0.0,0.0,0.0,0.0,0.0,0.0,0.0,0.0,0.0,0.0,0.0,0.0,0.0,0.0,0.0,0.0,0.0,0.0,0.0,0.0,0.0,0.0,0.0,0.0,0.0,0.0,0.0,0.0,0.0,0.0,0.0,0.0,0.0,0.0,0.0,0.0,0.0,0.0,0.0,0.0,0.0,0.0,0.0,0.0,0.0,0.0,0.0,0.0,0.0,0.0,0.0,0.0,0.0,0.0,0.0,0.0,0.0,0.0,0.0,0.0,0.0,0.0,0.0,0.0,0.0,0.0,0.0,0.0,0.0,0.0,0.0,0.0,0.0,0.0,0.0,0.0,0.0,0.0,0.0,0.0,0.0,0.0,0.0,0.0,0.0,0.0,0.0,0.0,0.0,0.0,0.0,0.0,0.0,0.0,0.0,0.0,0.0,0.0,0.0,0.0,0.0,0.0,0.0,0.0,0.0,0.0,0.0,0.0,0.0,0.0,0.0,0.0,0.0,0.0,0.0,0.0,0.0,0.0,0.0,0.0,0.0,0.0,0.0,0.0,0.0,0.0,0.0,0.0,0.0,0.0,0.0,0.0,0.0,0.0,0.0,0.0,0.0,0.0,0.0,0.0,0.0,0.0,0.0,0.0,0.0,0.0,0.0,0.0,0.0,0.0,0.0,0.0,0.0,0.0,0.0,0.0,0.0,0.0,0.0,0.0,0.0,0.0,0.0,0.0,0.0,0.0,0.0,0.0,0.0,0.0,0.0,0.0,0.0,0.0,0.0,0.0,0.0,0.0,0.0,0.0,0.0,0.0,0.0,0.0,0.0,0.0,0.0,0.0,0.0,0.0,0.0,0.0,0.0,0.0,0.0,0.0,0.0,0.0,0.0,0.0,0.0,0.0,0.0,0.0,0.0,0.0,0.0,0.0,0.0,0.0,0.0,0.0,0.0,0.0,0.0,0.0,0.0,0.0,0.0,0.0,0.0,0.0,0.0,0.0,0.0,0.0,0.0,0.0,0.0,0.0,0.0,0.0,0.0,0.0,0.0,0.0,0.0,0.0,0.0,0.0,0.0,0.0,0.0,0.0,0.0,0.0,0.0,0.0,0.0,0.0,0.0,0.0,0.0,0.0,0.0,0.0,0.0,0.0,0.0,0.0,0.0,0.0,0.0,0.0,0.0,0.0,0.0,0.0,0.0,0.0,0.0,0.0,0.0,0.0,0.0,0.0,0.0,0.0,0.0,0.0,0.0,0.0,0.0,0.0,0.0,0.0,0.0,0.0,0.0,0.0,0.0,0.0,0.0,0.0,0.0,0.0,0.0,0.0,0.0,0.0,0.0,0.0,0.0,0.0,0.0,0.0,0.0,0.0,0.0,0.0,0.0,0.0,0.0,0.0,0.0,0.0,0.0,0.0,0.0,0.0,0.0,0.0,0.0,0.0,0.0,0.0,0.0,0.0,0.0,0.0,0.0,0.0,0.0,0.0,0.0,0.0,0.0,0.0,0.0,0.0,0.0,0.0,0.0,0.0,0.0,0.0,0.0,0.0,0.0,0.0,0.0,0.0,0.0,0.0,0.0,0.0,0.0,0.0,0.0,0.0,0.0,0.0,0.0,0.0,0.0,0.0,0.0,0.0,0.0,0.0,0.0,0.0,0.0,0.0,0.0,0.0,0.0,0.0,0.0,0.0,0.0,0.0,0.0,0.0,0.0,0.0,0.0,0.0,0.0,0.0,0.0,0.0,0.0,0.0,0.0,0.0,0.0,0.0,0.0,0.0,0.0,0.0,0.0,0.0,0.0,0.0,0.0,0.0,0.0,0.0,0.0,0.0,0.0,0.0,0.0,0.0,0.0,0.0,0.0,0.0,0.0,0.0,0.0,0.0,0.0,0.0,0.0,0.0,0.0,0.0,0.0,0.0,0.0,0.0,0.0,0.0,0.0,0.0,0.0,0.0,0.0,0.0,0.0,0.0,0.0,0.0,0.0,0.0,0.0,0.0,0.0,0.0,0.0,0.0,0.0,0.0,0.0,0.0,0.0,0.0,0.0,0.0,0.0,0.0,0.0,0.0,0.0,0.0,0.0,0.0,0.0,0.0,0.0,0.0,0.0,0.0,0.0,0.0,0.0,0.0,0.0,0.0,0.0,0.0,0.0,0.0,0.0,0.0,0.0,0.0,0.0,0.0,0.0,0.0,0.0,0.0,0.0,0.0,0.0,0.0,0.0,0.0,0.0,0.0,0.0,0.0,0.0,0.0,0.0,0.0,0.0,0.0,0.0,0.0,0.0,0.0,0.0,0.0,0.0,0.0,0.0,0.0,0.0,0.0,0.0,0.0,0.0,0.0,0.0,0.0,0.0,0.0,0.0,0.0,0.0,0.0,0.0,0.0,0.0,0.0,0.0,0.0,0.0,0.0,0.0,0.0,0.0,0.0,0.0,0.0,0.0,0.0,0.0,0.0,0.0,0.0,0.0,0.0,0.0,0.0,0.0,0.0,0.0,0.0,0.0,0.0,0.0,0.0,0.0,0.0,0.0,0.0,0.0,0.0,0.0,0.0,0.0,0.0,0.0,0.0,0.0,0.0,0.0,0.0,0.0,0.0,0.0,0.0,0.0,0.0,0.0,0.0,0.0,0.0,0.0,0.0,0.0,0.0,0.0,0.0,0.0,0.0,0.0,0.0,0.0,0.0,0.0,0.0,0.0,0.0,0.0,0.0,0.0,0.0,0.0,0.0,0.0,0.0,0.0,0.0,0.0,0.0,0.0,0.0,0.0,0.0,0.0,0.0,0.0,0.0,0.0,0.0,0.0,0.0,0.0,0.0,0.0,0.0,0.0,0.0,0.0,0.0,0.0,0.0,0.0,0.0,0.0,0.0,0.0,0.0,0.0,0.0,0.0,0.0,0.0,0.0,0.0,0.0,0.0,0.0,0.0,0.0,0.0,0.0,0.0,0.0,0.0,0.0,0.0,0.0,0.0,0.0,0.0,0.0,0.0,0.0,0.0,0.0,0.0,0.0,0.0,0.0,0.0,0.0,0.0,0.0,0.0,0.0,0.0,0.0,0.0,0.0,0.0,0.0,0.0,0.0,0.0,0.0,0.0,0.0,0.0,0.0,0.0,0.0,0.0,0.0,0.0,0.0,0.0,0.0,0.0,0.0,0.0,0.0,0.0,0.0,0.0,0.0,0.0,0.0,0.0,0.0,0.0,0.0,0.0,0.0,0.0,0.0,0.0,0.0,0.0,0.0,0.0,0.0,0.0,0.0,0.0,0.0,0.0,0.0,0.0,0.0,0.0,0.0,0.0,0.0,0.0,0.0,0.0,0.0,0.0,0.0,0.0,0.0,0.0,0.0,0.0,0.0,0.0,0.0,0.0,0.0,0.0,0.0,0.0,0.0,0.0,0.0,0.0,0.0,0.0,0.0,0.0,0.0,0.0,0.0,0.0,0.0,0.0,0.0,0.0,0.0,0.0,0.0,0.0,0.0,0.0,0.0,0.0,0.0,0.0,0.0,0.0,0.0,0.0,0.0,0.0,0.0,0.0,0.0,0.0,0.0,0.0,0.0,0.0,0.0,0.0,0.0,0.0,0.0,0.0,0.0,0.0,0.0,0.0,0.0,0.0,0.0,0.0,0.0,0.0,0.0,0.0,0.0,0.0,0.0,0.0,0.0,0.0,0.0,0.0,0.0,0.0,0.0,0.0,0.0,0.0,0.0,0.0,0.0,0.0,0.0,0.0,0.0,0.0,0.0,0.0,0.0,0.0,0.0,0.0,0.0,0.0,0.0,0.0,0.0,0.0,0.0,0.0,0.0,0.0,0.0,0.0,0.0,0.0,0.0,0.0,0.0,0.0,0.0,0.0,0.0,0.0,0.0,0.0,0.0,0.0,0.0,0.0,0.0,0.0,0.0,0.0,0.0,0.0,0.0,0.0,0.0,0.0,0.0,0.0,0.0,0.0,0.0,0.0,0.0,0.0,0.0,0.0,0.0,0.0,0.0,0.0,0.0,0.0,0.0,0.0,0.0,0.0,0.0,0.0,0.0,0.0,0.0,0.0,0.0,0.0,0.0,0.0,0.0,0.0,0.0,0.0,0.0,0.0,0.0,0.0,0.0,0.0,0.0,0.0,0.0,0.0,0.0,0.0,0.0,0.0,0.0,0.0,0.0,0.0,0.0,0.0,0.0,0.0,0.0,0.0,0.0,0.0,0.0,0.0,0.0,0.0,0.0,0.0,0.0,0.0,0.0,0.0,0.0,0.0,0.0,0.0,0.0,0.0,0.0,0.0,0.0,0.0,0.0,0.0,0.0,0.0,0.0,0.0,0.0,0.0,0.0,0.0,0.0,0.0,0.0,0.0,0.0,0.0,0.0,0.0,0.0,0.0,0.0,0.0,0.0,0.0,0.0,0.0,0.0,0.0,0.0,0.0,0.0,0.0,0.0,0.0,0.0,0.0,0.0,0.0,0.0,0.0,0.0,0.0,0.0,0.0,0.0,0.0,0.0,0.0,0.0,0.0,0.0,0.0,0.0,0.0,0.0,0.0,0.0,0.0,0.0,0.0,0.0,0.0,0.0,0.0,0.0,0.0,0.0,0.0,0.0,0.0,0.0,0.0,0.0,0.0,0.0,0.0,0.0,0.0,0.0,0.0,0.0,0.0,0.0,0.0,0.0,0.0,0.0,0.0,0.0,0.0,0.0,0.0,0.0,0.0,0.0,0.0,0.0,0.0,0.0,0.0,0.0,0.0,0.0,0.0,0.0,0.0,0.0,0.0,0.0,0.0,0.0,0.0,0.0,0.0,0.0,0.0,0.0,0.0,0.0,0.0,0.0,0.0,1.3476,0.0,0.0,0.0,0.0,0.0,0.0,0.0,0.0,0.0,0.0,0.0,0.0,0.0,0.0,0.0,0.0,0.0,0.0,0.0,0.0,0.0,0.0,0.0,0.0,0.0,0.0,0.0,1.6177,1.6272,1.656,1.6925,1.7374,1.8023,1.8359,1.8341,1.7933,1.8608,1.8798,1.8487,1.8215,1.7725,1.712,1.8697,0.0,0.0,0.0,0.0,0.0,0.0,0.0,0.0,0.0,0.0,0.0,0.0,0.0,0.0,0.0,0.0,0.0,0.0,0.0,0.0,0.0,0.0,0.0,0.0,0.0,0.0,0.0,0.0,0.0,0.0,0.0,0.0,0.0,0.0,0.0,0.0,0.0,0.0,0.0,0.0,0.0,0.0,0.0,0.0,0.0,0.0,0.0,0.0,0.0,0.0,0.0,0.0,0.0,0.0,0.0,0.0,0.0,0.0,0.0,0.0,0.0,0.0,0.0,0.0,0.0,0.0,0.0,0.0,0.0,0.0,0.0,0.0,0.0,1.4219,0.0,0.0,0.0,0.0,0.0,0.0,0.0,0.0,0.0,0.0,0.0,0.0,0.0,0.0,0.0,0.0,0.0,0.0,0.0,0.0,0.0,0.0,0.0,1.7089,1.6567,1.7165,1.6773,1.6715,1.7262,1.7417,1.8044,1.925,1.9101,1.901,1.901,1.8743,1.8758,1.9104,1.7848,1.7497,1.8031,1.9612,0.0,0.0,0.0,0.0,0.0,0.0,0.0,0.0,0.0,0.0,0.0,0.0,0.0,0.0,0.0,0.0,0.0,0.0,0.0,0.0,0.0,0.0,0.0,0.0,0.0,0.0,0.0,0.0,0.0,0.0,0.0,0.0,0.0,0.0,0.0,0.0,0.0,0.0,0.0,0.0,0.0,0.0,0.0,0.0,0.0,0.0,0.0,0.0,0.0,0.0,0.0,0.0,0.0,0.0,0.0,0.0,0.0,0.0,0.0,0.0,0.0,0.0,0.0,0.0,0.0,0.0,1.7394,1.7629,1.7351,1.8362,1.7972,1.6534,1.6034,1.4782,1.3278,0.0,0.0,0.0,0.0,0.0,0.0,0.0,0.0,0.0,0.0,0.0,0.0,0.0,0.0,0.0,0.0,0.0,0.0,0.0,0.0,0.0,0.0,1.7068,1.709,1.6978,1.7591,1.8056,1.8142,1.8682,1.9118,1.9279,1.9101,1.901,1.901,1.8743,1.8522,1.8353,1.7902,1.8065,1.8775,1.9646,1.9852,1.9539,2.0317,0.0,0.0,0.0,0.0,0.0,0.0,0.0,0.0,0.0,0.0,0.0,0.0,0.0,0.0,0.0,0.0,0.0,0.0,0.0,0.0,0.0,0.0,0.0,0.0,0.0,0.0,0.0,0.0,0.0,0.0,0.0,0.0,0.0,0.0,0.0,0.0,0.0,0.0,0.0,0.0,0.0,0.0,0.0,1.8744,1.8067,0.0,0.0,0.0,0.0,0.0,0.0,0.0,0.0,0.0,0.0,0.0,0.0,0.0,1.6372,1.6966,1.7085,1.6802,1.6161,1.7036,1.6724,1.5408,1.6913,1.7209,1.654,1.7077,0.0,1.4974,1.5211,0.0,0.0,0.0,0.0,0.0,0.0,0.0,0.0,0.0,0.0,0.0,0.0,0.0,0.0,0.0,0.0,0.0,0.0,0.0,0.0,0.0,1.7864,1.8164,1.8677,2.0321,2.0625,1.897,2.0449,2.0776,1.9352,1.8938,1.877,1.877,1.8343,1.8306,1.8597,2.0157,2.1109,2.1448,2.2632,2.3361,2.3763,2.361,2.3328,2.2953,2.2235,0.0,0.0,0.0,0.0,0.0,0.0,0.0,0.0,0.0,0.0,0.0,0.0,0.0,0.0,0.0,0.0,0.0,0.0,0.0,0.0,0.0,0.0,0.0,0.0,0.0,0.0,0.0,0.0,0.0,0.0,0.0,0.0,0.0,0.0,0.0,0.0,0.0,0.0,0.0,1.9734,1.9782,1.8519,1.9773,2.0411,0.0,0.0,0.0,0.0,0.0,0.0,0.0,0.0,0.0,1.6847,1.7255,1.744,1.7331,1.7776,1.7847,1.7463,1.7824,1.7923,1.7719,1.8427,1.8598,1.8377,1.8688,1.8178,1.703,1.6273,1.5416,1.463,0.0,0.0,0.0,0.0,1.5799,1.5542,0.0,0.0,0.0,0.0,0.0,0.0,0.0,0.0,0.0,0.0,0.0,0.0,1.8883,1.9215,1.9835,2.0972,2.2382,2.2417,2.0514,2.1369,2.1241,1.9604,1.8923,1.8584,1.8516,1.8279,1.8689,1.9756,2.2132,2.3543,2.4054,2.5213,2.6199,2.7042,2.6487,2.513,2.3257,2.2717,2.2671,0.0,0.0,0.0,0.0,0.0,0.0,0.0,0.0,0.0,0.0,0.0,0.0,0.0,0.0,0.0,0.0,0.0,0.0,0.0,0.0,0.0,0.0,0.0,0.0,0.0,0.0,0.0,0.0,0.0,0.0,0.0,0.0,0.0,0.0,0.0,0.0,0.0,0.0,2.0111,2.0238,1.8599,2.0183,2.0983,0.0,0.0,0.0,0.0,0.0,0.0,1.8956,1.8829,1.8529,1.7903,1.8286,1.8397,1.8199,1.8411,1.8721,1.9098,1.8794,1.9194,2.0219,2.0044,2.0133,2.0395,2.017,1.9562,1.8698,1.7493,1.6151,1.4912,1.5545,1.5792,1.5881,1.6553,1.6791,1.6842,0.0,0.0,0.0,0.0,0.0,0.0,0.0,0.0,0.0,0.0,0.0,1.8989,2.0177,2.1173,2.2246,2.3507,2.2606,2.235,2.3224,2.0704,1.9506,2.0138,1.9163,1.8497,1.8246,1.8876,2.0194,2.211,2.2736,2.394,2.5706,2.6005,2.6827,2.8036,2.8003,2.8034,2.7905,2.4254,2.3355,2.4302,0.0,0.0,0.0,0.0,0.0,0.0,0.0,0.0,0.0,0.0,0.0,0.0,0.0,0.0,0.0,0.0,0.0,0.0,0.0,0.0,0.0,0.0,0.0,0.0,0.0,0.0,0.0,0.0,0.0,0.0,0.0,0.0,0.0,0.0,0.0,0.0,0.0,0.0,0.0,1.7579,2.0214,0.0,0.0,0.0,0.0,2.1708,2.1117,2.054,2.0038,1.9712,1.9517,1.9472,1.8857,1.9194,2.0629,1.9253,1.9298,2.0675,1.9533,1.9835,2.1385,2.0776,2.1071,2.2045,2.1157,2.0342,1.9568,1.873,1.7907,1.7137,1.7175,1.7207,1.7211,1.7258,1.7269,1.7242,0.0,0.0,0.0,0.0,0.0,0.0,0.0,0.0,1.7547,1.7523,1.8676,2.0047,2.1458,2.2781,2.4216,2.5833,2.6109,2.5554,2.4061,2.3068,2.1946,2.0637,1.9612,1.9392,2.0099,2.0834,2.1878,2.3203,2.3833,2.5037,2.6747,2.6876,2.7634,2.8952,2.9333,2.9324,2.8774,2.5999,2.4829,2.4651,2.2542,2.2052,0.0,0.0,0.0,0.0,0.0,0.0,0.0,0.0,0.0,0.0,0.0,0.0,0.0,0.0,0.0,0.0,0.0,0.0,0.0,0.0,0.0,0.0,0.0,0.0,0.0,0.0,0.0,0.0,0.0,0.0,0.0,0.0,0.0,0.0,0.0,0.0,0.0,2.1182,2.2505,0.0,2.1889,2.1516,2.1387,2.1488,2.1054,2.0714,2.056,2.0421,2.0357,2.0357,2.0625,2.0777,2.0813,2.0799,2.0788,2.0791,2.0342,2.0479,2.1024,2.0793,2.0734,2.0816,2.0484,2.0283,2.0181,1.9922,1.8807,1.7401,1.8437,1.8208,1.7422,1.8444,1.8504,1.8213,0.0,0.0,0.0,0.0,0.0,0.0,0.0,0.0,1.7303,1.8098,1.9476,2.1164,2.3192,2.4729,2.6418,2.8391,2.7957,2.6907,2.5317,2.39,2.2506,2.1113,2.035,2.0443,2.1563,2.2353,2.341,2.473,2.4901,2.5908,2.7625,2.7239,2.7803,2.9111,2.9518,2.9653,2.9478,2.7791,2.6347,2.5036,2.3207,2.3153,2.397,0.0,0.0,0.0,0.0,0.0,0.0,0.0,0.0,0.0,0.0,0.0,0.0,0.0,0.0,0.0,0.0,0.0,0.0,0.0,0.0,0.0,0.0,0.0,0.0,0.0,0.0,0.0,0.0,0.0,0.0,0.0,0.0,0.0,0.0,0.0,2.3244,2.295,2.3949,2.4302,2.3485,2.2869,2.2605,2.2704,2.2084,2.1742,2.1849,2.151,2.1312,2.1312,2.1591,2.1591,2.1312,2.1312,2.1335,2.1288,2.0882,2.095,2.1417,2.1273,2.1167,2.1141,2.0845,2.0894,2.1179,2.1179,2.0221,1.8932,2.0006,1.9596,1.8522,1.9921,2.0077,1.9798,0.0,0.0,0.0,0.0,0.0,0.0,0.0,1.6573,1.7148,1.9386,2.0589,2.2361,2.5288,2.6945,2.877,3.0954,2.7774,2.6059,2.7093,2.2936,2.0741,2.1515,2.1369,2.1623,2.2367,2.3304,2.4746,2.6725,2.5871,2.6395,2.8242,2.7116,2.7273,2.8494,2.8518,2.9249,3.0352,2.9587,2.7935,2.5745,2.5212,2.5463,2.5927,0.0,0.0,0.0,0.0,0.0,0.0,0.0,0.0,0.0,0.0,0.0,0.0,0.0,0.0,0.0,0.0,0.0,0.0,0.0,0.0,0.0,0.0,0.0,0.0,0.0,0.0,0.0,0.0,0.0,0.0,0.0,0.0,0.0,2.1565,2.2731,2.3386,2.2611,2.4289,2.5209,2.4347,2.4725,2.5115,2.5478,2.4204,2.357,2.3888,2.2883,2.2313,2.2313,2.163,2.1597,2.2279,2.0826,2.0826,2.2293,2.104,2.1248,2.266,2.22,2.2423,2.3106,2.2329,2.2167,2.2479,2.2479,2.225,2.1877,2.1886,2.1327,2.0658,2.1519,2.1849,2.1838,0.0,0.0,0.0,0.0,0.0,0.0,0.0,1.725,1.7564,1.8813,2.1223,2.3422,2.4996,2.7749,2.9736,3.0345,2.7943,2.6301,2.6059,2.2536,2.0434,2.0381,2.1745,2.3047,2.4248,2.4991,2.5966,2.714,2.645,2.6472,2.7045,2.6742,2.73,2.8591,2.9008,2.9701,3.0467,3.0688,3.0403,2.9567,2.6776,2.6339,2.7062,0.0,0.0,0.0,0.0,0.0,0.0,0.0,0.0,0.0,0.0,0.0,0.0,0.0,0.0,0.0,0.0,0.0,0.0,0.0,0.0,0.0,0.0,0.0,0.0,0.0,0.0,0.0,0.0,0.0,0.0,0.0,0.0,2.3697,2.3519,2.4348,2.5116,2.5458,2.6008,2.6272,2.6047,2.5394,2.5051,2.5115,2.454,2.4011,2.3556,2.3265,2.2868,2.2313,2.209,2.2076,2.2313,2.1874,2.1874,2.2313,2.1956,2.201,2.2412,2.2289,2.2138,2.195,2.1717,2.1838,2.2134,2.2134,2.2543,2.3194,2.3463,2.2694,2.1547,2.2354,2.2685,2.2601,0.0,0.0,0.0,0.0,0.0,0.0,0.0,1.6819,1.7384,1.8756,2.182,2.4448,2.6016,2.8257,2.977,3.0074,2.7435,2.5391,2.4522,2.2121,2.0842,2.1181,0.0,2.4356,2.5385,2.6118,2.6903,2.7721,2.7114,2.7164,2.7801,2.756,2.8008,2.9022,2.9386,2.9907,3.0513,3.1134,3.1728,3.2114,2.9892,2.9643,3.0316,2.7114,2.7452,2.9332,2.7043,2.7617,2.9231,2.738,0.0,0.0,0.0,0.0,0.0,0.0,0.0,0.0,0.0,0.0,0.0,0.0,0.0,0.0,0.0,0.0,0.0,0.0,0.0,0.0,0.0,0.0,0.0,0.0,2.4514,2.5192,2.5689,2.6014,2.6498,2.7267,2.7531,2.7646,2.7646,2.6752,2.6165,2.6165,2.5431,2.4628,2.3898,2.3594,2.3071,2.2313,2.2313,2.2313,2.2313,2.2313,2.2313,2.2313,2.2313,2.2313,2.2313,2.2313,2.2139,0.0,2.1823,2.1996,2.2282,2.2282,2.2776,0.0,0.0,0.0,0.0,0.0,2.3226,2.3391,0.0,0.0,0.0,0.0,0.0,0.0,0.0,1.5987,1.7006,1.9062,2.2208,2.5067,2.713,2.8196,2.8976,2.9533,2.6488,2.4039,2.2928,2.1763,2.1672,2.2912,2.4385,2.5448,2.6039,2.6841,2.7644,2.8421,2.7844,2.822,2.9508,2.8953,2.9056,2.9711,2.9801,3.0133,3.076,3.1399,3.2379,3.3512,3.3469,3.3963,3.431,3.0825,3.157,3.4075,3.0891,2.9988,3.0128,2.886,0.0,0.0,0.0,0.0,0.0,0.0,0.0,0.0,0.0,0.0,0.0,0.0,0.0,0.0,0.0,0.0,0.0,0.0,0.0,0.0,0.0,0.0,0.0,0.0,2.5996,2.663,2.7893,2.7742,2.775,2.8303,2.8765,2.901,2.901,2.8349,2.7891,2.7824,2.6573,2.5507,2.4677,0.0,0.0,0.0,0.0,2.2381,2.2313,2.2381,2.2381,2.2313,2.2313,2.2313,2.2313,2.2313,2.2313,2.2313,2.2313,2.244,2.2643,2.2643,2.2848,2.3177,2.3555,2.3478,2.3153,2.3153,2.3602,2.4116,0.0,0.0,0.0,0.0,0.0,0.0,0.0,1.6912,1.7476,1.9151,2.1317,2.3224,2.4531,2.6135,2.6962,2.6522,2.5397,2.4074,2.2514,2.2194,2.2262,2.2748,2.4524,2.5771,2.6392,2.714,2.8088,2.9277,2.8642,2.8789,2.9599,2.9465,2.9714,3.0342,3.0883,3.1481,3.2168,3.2826,3.3246,3.3517,3.4072,3.4722,3.5177,3.3274,3.3351,3.4257,3.2408,3.3568,3.5674,3.3578,3.3351,3.3581,3.1498,0.0,0.0,0.0,0.0,0.0,0.0,0.0,0.0,0.0,0.0,0.0,0.0,0.0,0.0,0.0,0.0,0.0,0.0,0.0,0.0,2.658,2.7192,2.7962,2.9465,2.9588,2.9372,2.8915,2.8944,2.901,2.901,2.8874,2.8484,2.7858,2.7553,2.6776,2.5473,2.4711,0.0,2.3207,2.3173,2.2902,2.2313,2.2902,2.2902,2.2313,0.0,0.0,2.2313,2.2313,2.2313,2.2313,2.2313,2.2321,2.2391,2.2391,2.2541,2.286,2.3477,2.3816,2.3969,2.3969,2.408,2.419,0.0,0.0,0.0,0.0,0.0,0.0,0.0,1.6287,1.6966,1.8401,2.045,2.2088,2.3006,2.393,2.4357,2.397,2.2678,2.1824,2.1799,2.2244,2.3141,2.459,2.6213,2.7379,2.8057,2.8398,2.891,2.9555,2.9271,2.9415,3.0043,3.0402,3.0911,3.1539,3.2198,3.2706,3.3036,3.3694,3.3993,3.4085,3.4758,3.5656,3.6583,3.5487,3.598,3.7134,3.5622,3.6253,3.7454,3.5506,3.4869,3.4546,3.2612,3.0388,2.8181,0.0,0.0,0.0,0.0,0.0,0.0,0.0,0.0,0.0,0.0,0.0,0.0,0.0,0.0,2.4885,0.0,0.0,2.6876,2.9111,2.9465,3.0021,3.1562,3.1427,3.092,3.0194,3.0093,3.0093,3.0093,2.977,2.9228,2.845,2.8027,2.7148,2.566,2.5236,2.4695,2.3966,2.3966,2.3763,2.341,2.3763,2.3763,2.341,2.341,2.3207,2.2868,2.2868,2.2665,2.2313,2.2313,2.2313,2.2313,2.2313,2.2467,2.2733,2.3069,2.3511,2.3976,2.4141,2.419,2.419,0.0,0.0,0.0,0.0,0.0,0.0,0.0,1.5512,1.6473,1.7647,1.9519,2.1042,2.1772,2.184,2.1852,2.1845,2.0159,1.9783,0.0,2.2516,2.4178,2.6686,2.8068,2.9086,2.9771,2.9774,2.9921,3.0163,3.0163,3.0462,3.1091,3.163,3.2168,3.2736,3.3395,3.3694,3.3724,3.4414,3.4713,3.4711,3.528,3.6352,3.752,3.7091,3.8233,3.991,3.843,3.7719,3.7256,3.6005,3.4802,3.3616,3.2574,3.1338,2.9887,2.8032,2.7638,0.0,0.0,0.0,0.0,0.0,0.0,0.0,0.0,0.0,2.5392,2.5944,2.6358,2.7175,2.8809,2.8767,2.9218,3.1458,3.1589,3.1833,3.3017,3.2544,3.1887,3.1258,3.119,3.119,3.119,3.0649,3.0006,2.9281,2.8484,2.7452,2.61,2.5778,2.5338,2.4745,2.4711,2.4643,2.4508,2.4643,2.4643,2.4508,2.4508,2.4203,2.3628,2.3477,2.3071,2.253,2.2347,2.2313,2.2313,2.2448,2.2685,2.2963,2.3167,2.3637,2.4187,2.4288,2.4371,2.4456,0.0,0.0,0.0,0.0,0.0,0.0,0.0,0.0,1.6889,1.7693,1.8606,1.9452,2.0183,2.0272,2.0244,2.0168,1.9952,0.0,2.2425,2.3691,2.5315,2.7405,2.8783,2.9774,3.0402,3.0402,3.1001,3.2198,3.2198,3.2527,3.3155,3.3245,3.3305,3.3425,3.4114,3.4384,3.4444,3.51,3.54,3.54,3.5459,3.6006,3.6813,3.7456,3.8701,3.991,3.843,3.7043,3.5836,3.5667,3.4663,3.3554,3.4028,3.2969,3.1197,2.9609,0.0,2.5937,2.5,2.4382,2.406,2.4266,2.4348,2.4673,0.0,0.0,2.713,2.7829,2.8357,2.9002,3.0109,3.0593,3.1142,3.2083,3.2178,3.2226,3.2395,3.1785,3.1292,3.119,3.119,3.119,3.119,3.1123,3.0784,3.004,2.9296,2.8484,2.7587,2.6302,2.5559,2.5473,2.5473,2.5169,2.4508,2.5135,2.5135,2.4508,2.4508,2.4474,2.4338,2.3695,2.3342,2.3241,2.2584,2.2313,2.2347,2.3004,2.35,2.3932,2.484,2.5431,2.573,2.5055,2.5011,2.5374,0.0,0.0,0.0,0.0,0.0,0.0,0.0,0.0,0.0,1.7161,1.7509,1.7907,1.8628,1.8729,1.8626,1.8423,1.8922,0.0,2.228,2.4138,2.6422,2.9175,3.0582,3.1599,3.2228,3.2258,3.2527,3.3095,3.3095,3.3215,3.3514,3.3873,3.4053,3.4083,3.4771,3.507,3.51,3.537,3.5519,3.5519,3.5519,3.5943,3.6568,3.6524,3.6663,3.6819,3.6632,3.56,0.0,0.0,3.2916,3.2747,3.2611,3.1729,3.0404,2.8629,2.7937,0.0,2.6787,2.581,2.5147,0.0,2.6316,2.711,2.772,2.8493,2.9283,2.9876,3.0493,3.1181,3.2032,3.234,3.2577,0.0,3.2949,3.2949,3.2949,3.1935,3.119,3.119,3.0465,3.0262,3.1123,3.119,3.0886,3.0176,2.9803,2.9093,2.7858,2.7215,2.6674,2.6251,2.6251,2.6082,2.5794,2.6082,2.6082,2.5794,2.5794,2.5557,2.5135,2.4831,2.4458,2.4034,2.3729,2.3579,2.3579,2.3898,2.4139,2.4315,2.4735,2.545,2.6127,2.5945,2.5967,2.6135,0.0,0.0,0.0,0.0,0.0,0.0,0.0,0.0,0.0,0.0,1.6767,1.7085,1.7837,1.7828,1.767,1.7332,0.0,0.0,0.0,2.3954,2.6608,2.9564,3.133,3.2647,3.3484,3.3664,3.3873,3.4053,3.4053,3.4053,3.4053,3.4532,3.4803,3.4771,3.528,3.5519,3.5519,3.5519,3.5519,3.5519,3.5519,3.5572,3.5676,3.5149,3.4169,3.3116,3.4063,3.3186,0.0,0.0,3.0194,3.0431,3.0311,2.9905,2.9197,2.7775,2.7716,2.7966,2.7333,2.6741,2.6376,2.6822,2.8146,2.9392,2.9563,3.0503,3.1416,3.1758,3.2374,3.297,3.3085,3.3254,3.3322,3.3119,3.3085,3.3085,3.3085,3.1833,3.0886,3.0886,2.9788,2.9517,3.0784,3.0886,3.0751,3.0446,3.0209,2.9616,2.85,2.8229,2.7909,2.7351,2.7334,2.7334,2.7334,2.7334,2.7334,2.7334,2.7097,2.6725,2.6201,2.5795,2.5203,2.4508,2.4508,2.4508,2.4508,2.4711,2.489,2.4997,2.5202,2.5822,2.6682,2.6897,2.6822,2.6677,0.0,0.0,0.0,0.0,0.0,0.0,0.0,0.0,0.0,0.0,0.0,0.0,0.0,1.796,1.767,0.0,0.0,0.0,0.0,2.2988,2.5555,2.7585,3.0163,3.2138,3.3455,3.4144,3.4771,3.5459,3.5459,3.5459,3.5459,3.5459,3.5459,3.5459,3.5489,3.5519,3.5519,3.5519,3.5519,3.5519,3.5519,3.4711,3.3577,3.3431,3.1656,2.9448,3.0836,0.0,0.0,0.0,2.6387,2.6032,2.7452,2.7891,0.0,2.7807,2.6745,2.5601,2.5579,2.6236,2.7108,2.7622,2.9126,3.0589,3.1051,3.2239,3.3322,3.3322,3.3931,3.3998,3.2598,3.2916,3.3186,3.2462,3.2327,3.2327,3.2327,3.1055,3.0123,3.0123,2.9465,2.9314,0.0,3.0123,3.0412,3.1089,3.0514,3.0055,3.0021,2.933,2.8942,2.8942,2.8942,2.8942,2.8942,2.8942,2.8942,2.8908,2.8128,2.7756,2.7689,2.6235,2.5203,2.4508,2.4508,2.4508,2.4541,2.527,2.5779,2.6229,2.6957,2.7477,2.7848,2.7855,2.738,2.6821,0.0,0.0,0.0,0.0,0.0,0.0,0.0,0.0,0.0,0.0,0.0,0.0,0.0,0.0,0.0,0.0,0.0,0.0,0.0,2.2505,2.4653,2.6836,2.9056,3.0851,3.2138,3.2826,3.3514,3.4173,3.4622,3.4863,3.4863,3.528,3.5519,3.5519,3.5519,3.5519,3.5519,3.5519,3.4933,3.406,3.406,3.3194,3.184,3.1302,2.9609,2.7514,0.0,0.0,0.0,0.0,0.0,0.0,2.4729,2.4898,2.5075,2.6045,2.6149,2.6235,2.7745,2.8585,2.9404,3.078,3.1769,3.272,3.385,3.4484,3.4585,3.3592,3.322,3.2429,3.0465,3.0717,3.0987,3.0228,3.1345,3.2124,3.165,3.1562,3.1041,2.9533,2.9567,0.0,0.0,0.0,0.0,3.1123,3.0954,3.0615,3.0142,2.9871,2.9499,2.901,2.901,2.901,2.901,2.901,2.901,2.901,2.8739,2.8315,2.779,2.7841,2.7435,2.6725,2.725,2.7182,2.6759,2.7537,2.7623,2.7334,2.8101,2.8186,2.7891,2.8423,2.7805,2.6802,0.0,0.0,0.0,0.0,0.0,0.0,0.0,0.0,0.0,0.0,0.0,0.0,0.0,0.0,0.0,0.0,0.0,0.0,0.0,0.0,2.3244,2.4986,2.6849,2.8218,2.9029,2.9687,3.0372,3.1031,3.1478,3.1928,3.2407,3.3005,3.3547,3.4031,3.4242,3.4454,3.4668,3.4243,3.3447,3.2478,3.2044,3.0923,2.9531,2.8747,2.7251,0.0,0.0,0.0,0.0,0.0,0.0,2.3004,2.3004,2.3459,2.4162,2.4927,2.6222,2.7729,2.9476,3.0629,3.1702,3.3279,3.396,3.4349,3.5047,3.4991,3.4315,3.2577,3.163,3.0431,2.8197,2.8383,2.8721,2.8265,2.9585,3.0818,3.1157,3.136,3.1176,3.0296,3.0345,3.0412,0.0,0.0,0.0,3.1157,3.119,3.0987,3.0514,3.048,3.0277,2.9788,2.9788,2.9788,2.9788,2.9788,2.9653,2.9397,2.9397,2.8991,2.8247,2.8773,2.8739,2.8281,2.8773,2.8705,2.8281,2.8807,2.8687,2.8281,2.8807,2.8687,2.8281,2.8807,2.8367,2.7589,0.0,0.0,0.0,0.0,0.0,0.0,0.0,0.0,0.0,0.0,0.0,0.0,0.0,0.0,0.0,0.0,0.0,0.0,0.0,0.0,0.0,2.2133,2.3646,2.4492,2.4552,2.5182,2.5841,2.6531,2.6555,2.722,2.8509,2.8986,2.9965,3.1248,3.1797,3.2399,3.2944,3.1768,3.1134,3.078,2.9565,2.8148,2.6693,2.5882,0.0,0.0,0.0,0.0,0.0,0.0,0.0,2.2347,2.2347,2.3659,2.5101,2.4754,2.7082,2.9958,3.0864,3.2355,3.3969,3.5133,3.5514,3.5397,3.4607,3.3829,3.2679,3.0427,2.9364,2.813,2.5913,2.6082,2.659,2.6708,2.7435,2.8737,3.0954,3.0751,3.0852,0.0,0.0,0.0,0.0,0.0,0.0,3.1292,0.0,3.1258,3.1292,3.1292,3.1292,3.1292,3.1292,3.1292,3.1292,3.1258,3.092,3.0209,3.0176,2.977,2.9077,2.9111,2.9077,2.9077,2.9111,2.9077,2.9077,2.9111,2.9077,2.9077,2.9111,2.9077,2.9077,2.9111,2.9077,2.901,0.0,0.0,0.0,0.0,0.0,0.0,0.0,0.0,0.0,0.0,0.0,0.0,0.0,0.0,0.0,0.0,0.0,0.0,0.0,0.0,0.0,0.0,0.0,0.0,0.0,0.0,0.0,2.564,2.5839,2.6257,2.6909,2.7798,2.8389,2.8756,2.9446,2.9549,2.9218,2.9414,2.8867,2.778,0.0,2.6438,2.5096,0.0,0.0,0.0,0.0,0.0,0.0,0.0,0.0,2.3105,2.3105,2.46,2.6568,2.7662,2.9809,3.2324,3.4584,3.5685,3.6312,3.6858,3.6289,3.5261,3.3964,3.2679,3.1123,2.8838,2.735,2.5947,2.4255,2.4575,2.5422,2.6539,2.8755,0.0,3.1853,3.3288,0.0,3.2462,0.0,3.3309,3.2395,3.2611,0.0,0.0,3.2327,3.2259,3.2814,3.2848,3.2848,3.2848,3.2848,3.2848,3.2848,3.2273,3.1921,3.1752,3.119,3.0548,2.9837,3.0378,3.0345,2.9837,3.0378,3.0311,2.9871,3.0412,3.0311,2.9871,3.0412,3.0311,2.9905,3.0446,2.9958,2.9145,0.0,0.0,0.0,0.0,0.0,0.0,0.0,0.0,0.0,0.0,0.0,0.0,0.0,0.0,0.0,0.0,0.0,0.0,0.0,0.0,0.0,0.0,0.0,0.0,0.0,0.0,0.0,0.0,0.0,0.0,2.397,2.5064,2.5899,2.6506,2.7155,2.7385,2.73,2.7162,0.0,0.0,0.0,0.0,0.0,0.0,0.0,0.0,0.0,0.0,0.0,0.0,0.0,2.4471,2.5,2.7098,2.9559,3.0714,0.0,3.5622,3.7171,3.7613,3.7733,3.7898,3.6517,3.4641,3.2848,3.1292,2.9517,2.6894,2.5439,2.4289,2.3139,2.3241,2.4034,0.0,0.0,0.0,3.1582,3.3728,3.4912,0.0,3.5284,0.0,3.4392,3.4641,3.4742,0.0,3.3389,3.2949,3.3389,3.3423,3.3423,3.3423,3.3423,3.3423,3.3423,3.2983,3.278,3.2801,3.2374,3.1935,3.1562,3.1968,3.1935,3.1576,0.0,3.1765,3.1089,3.1495,3.1258,3.0615,3.1021,3.0954,3.0649,3.1055,3.0702,3.0093,0.0,0.0,0.0,0.0,0.0,0.0,0.0,0.0,0.0,0.0,0.0,0.0,0.0,0.0,0.0,0.0,0.0,0.0,0.0,0.0,0.0,0.0,0.0,0.0,0.0,0.0,0.0,0.0,0.0,0.0,0.0,0.0,0.0,0.0,0.0,0.0,0.0,0.0,0.0,0.0,0.0,0.0,0.0,0.0,0.0,0.0,0.0,0.0,0.0,0.0,2.5135,2.596,2.7291,3.0069,3.3002,3.3528,3.6069,3.8779,3.8999,3.8743,3.8424,3.8415,3.6304,3.3647,3.1393,2.9619,2.7622,2.4914,0.0,2.3071,2.2429,2.2381,2.297,2.4541,0.0,2.8062,3.1055,3.3322,3.5182,3.6626,3.7449,3.7652,3.7032,3.6965,3.6637,3.5938,3.4742,3.3964,3.3863,3.3761,3.3694,3.3694,3.3795,3.3795,3.3694,3.3694,3.366,3.3558,3.3457,3.3423,3.3423,3.3423,3.3423,3.3423,0.0,0.0,3.2462,3.2462,3.209,3.1495,3.1495,3.1427,3.1326,3.1326,3.1292,3.119,0.0,0.0,0.0,0.0,0.0,0.0,0.0,0.0,0.0,0.0,1.9243,0.0,0.0,0.0,0.0,0.0,0.0,0.0,0.0,0.0,0.0,0.0,0.0,0.0,0.0,0.0,0.0,0.0,0.0,0.0,0.0,0.0,0.0,0.0,0.0,0.0,0.0,0.0,0.0,0.0,0.0,0.0,0.0,0.0,0.0,0.0,0.0,0.0,0.0,0.0,2.5913,2.6776,2.8286,3.1377,3.4553,3.4896,3.6861,3.9227,4.0547,3.9791,3.8545,3.8498,3.5566,3.209,2.989,2.725,0.0,0.0,2.3004,2.2448,2.2313,2.2801,2.3883,2.5997,0.0,0.0,0.0,0.0,3.5757,0.0,0.0,0.0,0.0,0.0,0.0,0.0,0.0,3.684,3.6254,3.5588,3.5228,3.5228,3.5859,3.5893,3.5228,3.5228,3.4912,3.4303,3.3694,3.3423,3.3423,3.3423,3.3423,3.3423,3.3423,0.0,3.322,3.322,3.3119,3.3017,3.3017,3.2645,3.2124,3.2124,3.1718,3.1292,0.0,0.0,0.0,0.0,0.0,0.0,0.0,0.0,0.0,0.0,2.2782,2.177,0.0,0.0,0.0,0.0,0.0,0.0,0.0,0.0,0.0,0.0,0.0,0.0,0.0,0.0,0.0,0.0,0.0,0.0,0.0,0.0,0.0,0.0,0.0,0.0,0.0,0.0,0.0,0.0,0.0,0.0,0.0,0.0,0.0,0.0,0.0,0.0,0.0,0.0,2.5507,2.6708,3.0087,3.3234,3.5952,3.7126,3.8624,4.0133,4.1292,4.0172,3.8547,3.8152,3.4841,3.1142,2.889,0.0,0.0,0.0,2.2564,2.2313,2.2313,2.2584,0.0,0.0,0.0,0.0,0.0,0.0,0.0,0.0,0.0,0.0,0.0,0.0,0.0,0.0,0.0,3.8159,3.7415,3.7009,3.6783,3.6783,3.7178,3.7009,3.6231,3.6603,3.6208,3.5081,3.5148,3.4945,3.4551,3.4551,3.4551,3.4551,3.4551,0.0,3.3964,3.3964,3.3535,3.2862,3.2862,3.2453,3.1835,3.1835,3.1605,3.1353,0.0,0.0,0.0,0.0,0.0,0.0,0.0,2.2206,2.2848,2.587,2.6199,2.5238,2.2841,2.0931,1.9609,0.0,0.0,0.0,0.0,0.0,0.0,0.0,0.0,0.0,0.0,0.0,0.0,0.0,0.0,0.0,0.0,0.0,0.0,0.0,0.0,0.0,0.0,0.0,0.0,0.0,0.0,0.0,0.0,0.0,0.0,0.0,0.0,0.0,0.0,0.0,2.488,2.613,3.0557,3.3732,3.6133,3.7857,3.9363,4.0633,4.135,4.0348,3.8816,3.7665,3.4223,3.0515,2.8096,2.5744,0.0,0.0,2.2313,2.2313,2.2313,2.2313,2.282,0.0,2.5236,0.0,0.0,0.0,0.0,0.0,0.0,0.0,0.0,0.0,0.0,0.0,0.0,0.0,3.7956,3.8058,3.8058,3.7922,3.8058,3.7787,3.7032,3.7753,3.7449,3.6107,3.6738,3.6705,3.6073,3.6073,3.6005,3.5836,3.57,0.0,0.0,3.4376,3.3669,3.2658,3.2658,3.2231,3.1645,3.1645,3.1549,3.1421,0.0,0.0,0.0,0.0,0.0,0.0,0.0,2.2394,2.392,2.7364,2.7342,2.6501,2.5187,2.2987,2.0674,0.0,0.0,0.0,0.0,0.0,0.0,0.0,0.0,0.0,0.0,0.0,0.0,0.0,0.0,0.0,0.0,0.0,0.0,0.0,0.0,0.0,0.0,0.0,0.0,0.0,0.0,0.0,0.0,0.0,0.0,0.0,0.0,0.0,0.0,0.0,0.0,2.5015,2.7521,3.071,3.3659,3.4438,0.0,0.0,4.0551,4.0601,3.9903,3.7254,3.3742,3.0196,2.7437,0.0,0.0,2.2313,2.2313,2.2313,2.2313,2.2313,2.2989,0.0,0.0,2.6928,0.0,0.0,0.0,0.0,0.0,0.0,0.0,0.0,0.0,0.0,0.0,0.0,3.799,3.8531,3.8599,3.7922,3.8531,3.8531,3.7821,3.8531,3.8497,3.7686,3.7753,3.7753,3.7686,3.7686,3.7313,3.6648,3.598,0.0,0.0,3.3924,3.359,3.3508,3.3508,3.3047,3.2403,3.2403,3.1988,3.1485,0.0,0.0,0.0,0.0,0.0,0.0,0.0,2.2414,2.3473,2.7996,2.8443,2.7965,2.6973,2.5117,2.2584,0.0,0.0,0.0,0.0,0.0,0.0,0.0,0.0,0.0,0.0,0.0,0.0,0.0,0.0,0.0,0.0,0.0,0.0,0.0,0.0,0.0,0.0,0.0,0.0,0.0,0.0,0.0,0.0,0.0,0.0,0.0,0.0,0.0,0.0,0.0,0.0,0.0,2.4206,2.6091,0.0,0.0,3.439,3.6312,3.8422,3.8686,3.7974,3.6358,3.2843,2.9229,2.7165,0.0,2.2313,2.2313,2.2313,2.2313,2.2313,2.2313,2.2868,0.0,0.0,0.0,0.0,0.0,0.0,0.0,0.0,0.0,0.0,0.0,0.0,0.0,0.0,0.0,3.9242,3.9503,3.9537,3.9208,3.9537,3.9309,3.8565,3.9276,3.9073,3.7922,3.8362,3.8328,3.7922,3.7922,3.7753,3.7449,3.7153,0.0,0.0,3.5142,3.4336,3.3509,3.3159,3.2551,3.19,3.19,3.1716,3.1474,0.0,0.0,0.0,0.0,0.0,0.0,2.2838,2.2314,2.3158,2.7741,2.8401,2.8313,2.7841,2.5742,2.3281,2.0629,0.0,0.0,0.0,0.0,0.0,0.0,0.0,0.0,0.0,0.0,0.0,0.0,0.0,0.0,0.0,0.0,0.0,0.0,0.0,0.0,0.0,0.0,0.0,0.0,0.0,0.0,0.0,0.0,0.0,0.0,0.0,0.0,0.0,0.0,0.0,0.0,0.0,0.0,0.0,0.0,3.1701,3.3523,3.6127,3.6896,3.6688,3.5542,3.221,2.88,0.0,0.0,2.2313,2.2313,2.2313,2.2313,2.2313,2.2313,2.2767,0.0,0.0,2.488,0.0,0.0,0.0,0.0,0.0,0.0,0.0,0.0,0.0,0.0,0.0,0.0,0.0,4.0113,4.0113,4.0113,4.0113,3.9842,3.9309,3.9842,3.9605,3.8565,3.9073,3.9039,3.8531,3.8531,3.843,3.8203,0.0,0.0,0.0,3.5427,3.4455,3.347,3.3038,3.2543,3.2049,3.1869,3.1809,3.1809,0.0,0.0,0.0,0.0,0.0,0.0,0.0,2.1975,2.337,2.6427,2.6786,2.6991,2.772,2.4236,2.2143,2.2896,0.0,0.0,0.0,0.0,0.0,0.0,0.0,0.0,0.0,0.0,0.0,0.0,0.0,0.0,0.0,0.0,0.0,0.0,0.0,0.0,0.0,0.0,0.0,0.0,0.0,0.0,0.0,0.0,0.0,0.0,0.0,0.0,0.0,0.0,0.0,0.0,0.0,2.2514,2.2867,0.0,2.9092,3.2352,3.384,3.5744,3.683,3.4985,3.2116,2.9273,0.0,0.0,2.2313,2.2313,2.2313,2.2313,2.2313,2.2313,2.2767,2.4271,0.0,0.0,0.0,0.0,0.0,0.0,0.0,0.0,0.0,0.0,0.0,0.0,0.0,0.0,0.0,4.0113,4.0113,4.0113,4.0113,4.0113,4.0079,4.0113,4.0079,4.0079,4.0079,4.0079,4.0079,4.0079,3.9673,0.0,0.0,0.0,0.0,3.4118,3.3515,3.3484,3.3515,3.3515,3.3395,3.2736,3.2497,3.2497,0.0,0.0,0.0,0.0,0.0,0.0,0.0,1.9694,2.0477,2.3248,2.3789,2.449,2.5994,2.4043,2.2712,2.2969,0.0,0.0,0.0,0.0,0.0,0.0,0.0,0.0,0.0,0.0,0.0,0.0,0.0,0.0,0.0,0.0,0.0,0.0,0.0,0.0,0.0,0.0,0.0,0.0,0.0,0.0,0.0,0.0,0.0,0.0,0.0,0.0,0.0,0.0,0.0,0.0,0.0,0.0,0.0,2.3623,2.5646,2.8066,3.0099,3.1136,3.1485,3.09,2.8814,2.6649,2.5469,0.0,2.2313,2.2313,2.2313,2.2313,2.2313,2.2313,2.2955,2.4932,2.5236,0.0,0.0,0.0,0.0,0.0,0.0,0.0,0.0,0.0,0.0,0.0,0.0,0.0,0.0,4.0113,4.0113,4.0113,4.0113,4.0113,4.0113,4.0113,4.0113,4.0113,4.0113,4.0113,4.0113,4.0113,0.0,0.0,0.0,0.0,0.0,3.6124,3.515,3.4144,3.3664,3.3484,3.3425,3.2766,3.2527,3.2527,0.0,0.0,0.0,0.0,0.0,0.0,0.0,1.8819,1.9391,2.1141,2.1528,2.2495,2.4721,2.2942,2.1979,2.2933,0.0,0.0,0.0,0.0,0.0,0.0,0.0,0.0,0.0,0.0,0.0,0.0,0.0,0.0,0.0,0.0,0.0,0.0,0.0,0.0,0.0,0.0,0.0,0.0,0.0,0.0,1.9315,0.0,0.0,0.0,0.0,0.0,0.0,0.0,0.0,0.0,0.0,0.0,0.0,0.0,2.3493,2.4864,2.7097,2.7927,2.8197,2.8484,2.686,2.5067,2.4609,0.0,2.2313,2.2313,2.2313,2.2313,2.2313,2.2313,2.2922,2.4864,2.5406,0.0,0.0,0.0,0.0,0.0,0.0,0.0,0.0,0.0,0.0,0.0,0.0,0.0,0.0,4.0113,4.0113,4.0113,4.0113,4.0113,4.0113,4.0113,4.0113,4.0113,4.0113,4.0113,4.0113,4.0113,0.0,0.0,0.0,0.0,0.0,3.6733,3.5738,3.4831,3.4412,3.4262,3.4173,3.3514,3.3245,3.3245,0.0,0.0,0.0,0.0,0.0,0.0,0.0,0.0,0.0,0.0,2.0056,2.1016,2.3574,2.1115,2.0225,0.0,0.0,0.0,0.0,0.0,0.0,0.0,0.0,0.0,0.0,0.0,0.0,2.6602,2.6649,2.786,3.0099,0.0,0.0,0.0,0.0,0.0,0.0,0.0,0.0,0.0,0.0,1.9315,0.0,0.0,0.0,0.0,0.0,0.0,0.0,0.0,0.0,0.0,0.0,0.0,0.0,0.0,0.0,0.0,0.0,2.5879,2.6556,2.7249,2.5879,2.4338,2.4338,0.0,0.0,2.2313,2.2313,2.2313,2.2462,2.2415,2.2902,2.4474,2.5372,0.0,0.0,0.0,0.0,0.0,0.0,0.0,0.0,0.0,0.0,0.0,0.0,0.0,0.0,4.0113,4.0113,4.0113,4.0113,4.0113,4.0113,4.0113,4.0113,4.0113,4.0113,4.0113,4.0113,4.0113,0.0,0.0,0.0,0.0,0.0,3.6258,3.5587,3.5519,3.5519,3.5519,3.5429,3.4773,3.4503,3.4503,0.0,0.0,0.0,0.0,0.0,0.0,0.0,0.0,0.0,0.0,1.9416,1.9721,2.0372,1.9756,0.0,0.0,0.0,0.0,0.0,0.0,0.0,0.0,0.0,0.0,0.0,0.0,0.0,2.6602,2.7236,2.8117,2.928,2.9097,0.0,0.0,0.0,2.162,1.9315,0.0,0.0,0.0,1.9315,1.9315,0.0,0.0,0.0,0.0,2.1408,2.2061,0.0,0.0,0.0,0.0,0.0,0.0,0.0,0.0,2.2725,2.2415,2.2922,0.0,2.3376,2.353,2.3192,2.2835,0.0,2.255,0.0,0.0,0.0,0.0,0.0,2.3511,2.3985,2.6607,2.7672,2.8739,0.0,0.0,0.0,0.0,0.0,0.0,0.0,0.0,0.0,0.0,0.0,0.0,0.0,4.0113,4.0113,4.0113,4.0113,4.0113,4.0113,4.0113,4.0113,4.0113,4.0113,4.0113,4.0113,4.0113,0.0,0.0,0.0,0.0,3.7764,3.7413,3.6569,3.5519,3.5519,3.5519,3.5429,3.4773,3.4503,3.4503,0.0,0.0,0.0,0.0,0.0,0.0,0.0,0.0,0.0,0.0,0.0,0.0,0.0,0.0,0.0,0.0,0.0,0.0,0.0,0.0,0.0,0.0,0.0,0.0,0.0,0.0,0.0,0.0,0.0,2.9329,0.0,0.0,0.0,0.0,2.3456,2.1473,1.9858,1.9858,1.9638,1.9315,1.9315,0.0,0.0,0.0,0.0,0.0,2.1914,2.2648,0.0,2.3933,2.419,2.417,0.0,0.0,0.0,0.0,2.266,2.2313,2.2313,2.2564,2.2801,2.2801,2.2801,2.2801,2.2801,0.0,0.0,0.0,0.0,0.0,0.0,0.0,2.4255,2.686,2.8247,0.0,0.0,0.0,0.0,0.0,0.0,0.0,0.0,0.0,0.0,0.0,0.0,0.0,0.0,4.0113,4.0113,4.0113,4.0113,4.0113,4.0113,4.0113,4.0113,4.0113,4.0113,4.0113,4.0113,4.0113,4.0113,0.0,0.0,0.0,3.7764,3.7381,3.6569,3.5519,3.5519,3.5519,3.5459,3.507,3.4951,3.4951,0.0,0.0,0.0,0.0,0.0,0.0,0.0,0.0,0.0,0.0,0.0,0.0,0.0,0.0,0.0,0.0,0.0,0.0,0.0,0.0,0.0,0.0,0.0,0.0,0.0,0.0,0.0,0.0,0.0,0.0,0.0,0.0,3.1237,0.0,2.3722,2.1437,2.0503,2.0364,1.9932,1.9315,1.9315,0.0,0.0,0.0,0.0,0.0,0.0,0.0,0.0,2.3933,2.419,2.4151,2.3858,0.0,0.0,0.0,0.0,0.0,2.2462,2.3105,2.3646,2.3308,2.3308,2.3439,2.3464,0.0,0.0,0.0,0.0,0.0,0.0,2.3985,0.0,0.0,0.0,0.0,0.0,0.0,0.0,0.0,0.0,0.0,0.0,0.0,0.0,0.0,0.0,0.0,0.0,4.0113,4.0113,4.0113,4.0113,4.0113,4.0113,4.0113,4.0113,4.0113,4.0113,4.0113,4.0113,4.0113,4.0113,0.0,0.0,0.0,3.7735,3.6934,3.6165,3.5519,3.5519,3.5519,3.5519,3.5519,3.5519,3.5519,0.0,0.0,0.0,0.0,0.0,0.0,0.0,0.0,0.0,0.0,0.0,0.0,0.0,0.0,0.0,0.0,0.0,0.0,0.0,0.0,0.0,0.0,0.0,0.0,0.0,0.0,0.0,0.0,0.0,0.0,3.1837,3.4468,3.2889,2.764,2.43,2.1942,2.0474,1.9785,1.9426,1.9315,1.9315,0.0,0.0,0.0,0.0,0.0,0.0,0.0,0.0,2.3933,2.419,2.419,2.4141,0.0,0.0,0.0,0.0,0.0,2.3071,2.4222,2.4831,2.2936,2.2936,2.3478,2.3846,2.3548,0.0,0.0,0.0,0.0,0.0,2.6691,2.7655,0.0,0.0,0.0,0.0,0.0,0.0,0.0,0.0,0.0,0.0,0.0,0.0,0.0,0.0,0.0,0.0,4.0113,4.0113,4.0113,4.0113,4.0113,4.0113,4.0113,4.0113,4.0113,4.0113,4.0113,4.0113,4.0113,4.0113,0.0,0.0,3.8469,3.7735,3.6934,3.6165,3.5519,3.5519,3.5519,3.5519,3.5519,3.5519,3.5519,0.0,0.0,0.0,0.0,0.0,0.0,0.0,0.0,0.0,0.0,0.0,0.0,0.0,0.0,0.0,0.0,0.0,0.0,0.0,0.0,0.0,0.0,0.0,0.0,0.0,0.0,0.0,0.0,0.0,3.3146,3.4027,3.333,3.1127,2.7651,2.4447,2.2309,2.1143,2.0299,1.9711,1.9315,0.0,0.0,0.0,0.0,0.0,0.0,0.0,0.0,0.0,0.0,2.419,2.4141,2.3774,0.0,0.0,0.0,0.0,0.0,2.2719,2.3579,2.4255,2.3646,2.4323,2.5028,2.4423,2.4149,0.0,0.0,0.0,0.0,0.0,0.0,0.0,0.0,0.0,0.0,0.0,0.0,0.0,0.0,0.0,0.0,0.0,0.0,0.0,0.0,0.0,0.0,0.0,0.0,4.0113,4.0113,4.0113,4.0113,4.0113,4.0113,4.0113,4.0113,4.0113,4.0113,4.0113,4.0113,3.9876,3.942,0.0,3.8213,3.7114,3.6752,3.6165,3.5519,3.5519,3.5519,3.5519,3.5519,3.5519,3.5519,0.0,0.0,0.0,0.0,0.0,0.0,0.0,0.0,0.0,0.0,0.0,0.0,0.0,0.0,0.0,0.0,0.0,0.0,0.0,0.0,0.0,0.0,0.0,0.0,0.0,0.0,2.9133,3.317,3.4174,3.5312,3.6501,3.2596,2.9806,2.7934,2.4924,2.2905,2.1739,2.0878,2.0042,1.9315,0.0,0.0,0.0,0.0,0.0,0.0,0.0,0.0,0.0,0.0,0.0,0.0,0.0,0.0,0.0,2.2764,2.2521,2.2453,2.2623,2.3178,2.3763,2.4135,2.5083,2.5912,2.5923,2.5603,0.0,0.0,0.0,0.0,0.0,0.0,0.0,0.0,0.0,0.0,0.0,0.0,0.0,0.0,0.0,0.0,0.0,0.0,0.0,0.0,0.0,0.0,0.0,0.0,4.0113,4.0113,3.9943,3.9943,4.0113,3.9943,3.9943,4.0113,4.0113,4.0113,4.0113,4.0113,3.9662,3.8881,3.8718,3.7873,3.6569,3.6415,3.6006,3.5519,3.5519,3.5519,3.5519,3.5519,3.5519,3.5519,0.0,0.0,0.0,0.0,0.0,0.0,0.0,0.0,0.0,0.0,0.0,0.0,0.0,0.0,0.0,0.0,0.0,0.0,0.0,0.0,0.0,0.0,0.0,0.0,0.0,2.9941,3.0821,3.4821,3.645,3.7309,3.7345,3.399,3.1152,2.8803,2.6319,2.3942,2.1739,2.0878,2.0042,1.9315,1.9315,0.0,0.0,0.0,0.0,0.0,0.0,0.0,0.0,0.0,0.0,0.0,0.0,0.0,2.3678,2.3599,2.3189,2.2924,2.3611,2.4081,2.4271,2.3661,2.3545,2.4769,2.9179,2.8801,0.0,3.2582,0.0,0.0,0.0,0.0,0.0,0.0,0.0,0.0,0.0,0.0,0.0,0.0,0.0,0.0,0.0,0.0,0.0,0.0,0.0,0.0,0.0,0.0,0.0,4.0113,3.9436,3.9436,4.0079,3.9436,3.9436,4.0113,4.0113,4.0113,4.0113,4.0113,3.9662,3.8854,3.8161,3.7381,3.6538,3.5878,3.5554,3.5519,3.5519,3.5519,3.5519,3.5519,3.5519,3.5519,0.0,0.0,0.0,0.0,0.0,0.0,0.0,0.0,0.0,0.0,0.0,0.0,0.0,0.0,0.0,0.0,0.0,0.0,0.0,0.0,0.0,0.0,0.0,2.7934,3.1751,3.2436,3.4711,3.8784,3.8909,3.8227,3.6684,3.2889,0.0,0.0,2.5217,2.3419,2.2501,2.1657,2.0813,2.0034,2.0034,2.0556,0.0,0.0,0.0,0.0,0.0,0.0,0.0,0.0,2.3336,2.3757,0.0,0.0,0.0,0.0,2.3069,2.2812,2.3076,2.3802,2.4541,2.4729,2.5101,0.0,0.0,2.9066,3.0078,3.3019,3.3867,0.0,0.0,0.0,0.0,0.0,0.0,0.0,0.0,0.0,0.0,0.0,0.0,0.0,0.0,0.0,0.0,0.0,0.0,0.0,0.0,0.0,0.0,3.8734,3.8464,3.8667,3.9436,3.914,3.9368,4.0113,4.0113,4.0113,4.0113,4.0113,3.9662,3.8854,3.8104,3.7322,3.6538,3.5814,3.5519,3.5519,3.5519,3.5519,3.5519,3.5519,3.5519,3.5519,0.0,0.0,0.0,0.0,0.0,0.0,0.0,0.0,0.0,0.0,0.0,0.0,0.0,0.0,0.0,0.0,0.0,0.0,0.0,0.0,0.0,0.0,0.0,2.786,3.0577,3.3243,3.6252,3.957,3.9276,3.7771,3.5055,0.0,0.0,0.0,2.5474,2.4143,2.407,2.3015,2.1914,2.0914,2.0914,2.1253,0.0,0.0,0.0,0.0,0.0,0.0,0.0,0.0,2.3373,0.0,0.0,0.0,0.0,0.0,2.3117,2.2835,2.2733,2.3391,2.4338,2.5067,0.0,0.0,2.9176,3.0359,3.1968,3.4912,3.5351,0.0,0.0,0.0,0.0,0.0,0.0,0.0,0.0,0.0,0.0,0.0,0.0,0.0,0.0,0.0,0.0,0.0,0.0,0.0,0.0,0.0,0.0,0.0,3.7686,3.8024,3.8971,3.8531,3.8928,4.0113,3.9876,3.9876,4.0113,4.0113,3.9532,3.8525,3.8019,3.7235,3.6228,3.5686,3.5519,3.5519,3.5519,3.5519,3.5519,3.5519,3.5519,3.5519,0.0,0.0,0.0,0.0,0.0,0.0,0.0,0.0,0.0,0.0,0.0,0.0,0.0,0.0,0.0,0.0,0.0,0.0,0.0,0.0,0.0,0.0,0.0,2.7336,2.8913,3.2118,3.4578,3.6303,3.7088,3.5789,3.2546,3.0944,0.0,0.0,2.7677,2.6602,2.6492,2.4887,2.3281,2.1812,2.1812,2.1812,2.1812,0.0,0.0,0.0,0.0,0.0,0.0,0.0,2.3006,0.0,0.0,0.0,0.0,0.0,2.3477,2.3129,2.2797,2.3062,2.3594,2.4338,0.0,0.0,3.2577,3.3423,3.4675,3.9165,0.0,3.7269,3.8734,0.0,0.0,0.0,0.0,0.0,0.0,0.0,0.0,0.0,0.0,0.0,0.0,0.0,0.0,0.0,0.0,0.0,0.0,0.0,0.0,0.0,3.7178,3.7506,3.8937,3.754,3.7912,4.0079,3.9368,3.9402,4.0113,4.0113,3.9269,3.7822,3.7793,3.6936,3.5522,3.5519,3.5519,3.5519,3.5519,3.5519,3.5519,3.5519,3.5519,3.5519,0.0,0.0,0.0,0.0,0.0,0.0,0.0,0.0,0.0,0.0,0.0,0.0,0.0,0.0,0.0,0.0,0.0,0.0,0.0,0.0,0.0,0.0,0.0,0.0,0.0,0.0,3.1494,3.5371,3.5628,3.4087,0.0,0.0,0.0,2.8484,2.775,2.6833,2.5705,2.5264,2.4126,2.2648,2.2648,2.2648,2.2648,0.0,0.0,0.0,0.0,0.0,0.0,0.0,0.0,0.0,0.0,0.0,0.0,2.4248,2.4028,2.3991,2.3854,2.3984,0.0,2.6387,0.0,0.0,0.0,3.4539,0.0,0.0,3.8396,3.7855,0.0,0.0,0.0,0.0,0.0,0.0,0.0,0.0,0.0,0.0,0.0,0.0,0.0,0.0,0.0,0.0,0.0,0.0,0.0,0.0,0.0,0.0,3.6096,3.6434,3.7438,3.7032,3.7381,3.8565,3.887,3.9402,4.0087,3.9532,3.9315,3.9348,3.7674,3.7025,3.7025,3.5941,3.5519,3.5519,3.5519,3.5519,3.5519,3.5519,3.5519,3.5519,0.0,0.0,0.0,0.0,0.0,0.0,0.0,0.0,0.0,0.0,2.0592,2.0674,0.0,0.0,0.0,2.2933,2.3446,0.0,2.3492,2.3933,0.0,0.0,0.0,0.0,0.0,2.72,2.939,0.0,0.0,0.0,0.0,0.0,2.9402,2.923,2.923,2.8521,2.7247,2.6623,2.5411,2.3933,2.3933,2.3933,2.3933,0.0,0.0,0.0,0.0,0.0,0.0,0.0,0.0,0.0,0.0,0.0,0.0,2.4013,2.3845,2.3919,2.3929,2.4633,0.0,2.8128,3.0649,3.322,3.5904,0.0,0.0,0.0,0.0,0.0,0.0,0.0,0.0,0.0,0.0,0.0,0.0,0.0,0.0,0.0,0.0,0.0,0.0,0.0,0.0,0.0,0.0,0.0,0.0,0.0,0.0,0.0,3.56,3.5994,3.6795,3.6468,3.7009,3.8328,3.8497,3.9106,4.0087,3.961,3.948,3.9532,3.7467,3.6873,3.7203,3.5975,3.5519,3.5519,3.5519,3.5519,3.5519,3.5519,3.5519,3.5519,0.0,0.0,1.9315,1.9315,0.0,0.0,0.0,0.0,0.0,2.1776,2.1849,2.1812,0.0,0.0,0.0,2.3043,2.3116,2.341,2.4153,2.419,2.419,2.419,0.0,0.0,0.0,0.0,0.0,0.0,0.0,0.0,0.0,0.0,3.0503,3.1286,3.1286,3.0797,2.9879,2.8264,2.6696,2.5301,2.5301,2.5301,2.5301,2.5301,0.0,0.0,0.0,0.0,0.0,0.0,0.0,0.0,2.4153,2.4263,2.4175,2.3477,2.3307,2.3386,2.363,2.5115,0.0,2.977,3.2679,0.0,3.7618,3.914,4.0079,4.0011,0.0,0.0,0.0,0.0,0.0,0.0,0.0,0.0,0.0,0.0,0.0,0.0,0.0,0.0,0.0,0.0,0.0,0.0,0.0,0.0,0.0,0.0,0.0,0.0,3.56,3.596,3.6694,3.596,3.6637,0.0,3.8091,3.8531,3.991,3.9969,3.9558,3.8718,3.732,3.6661,3.6538,3.5814,3.5519,3.5519,3.5519,3.5519,3.5519,3.5519,3.5519,3.5519,0.0,0.0,1.9315,1.9315,0.0,0.0,0.0,0.0,2.1025,2.2529,2.2171,2.2033,2.2685,2.2749,0.0,2.3859,2.3933,2.4006,2.419,2.419,2.419,2.419,0.0,0.0,0.0,0.0,0.0,0.0,0.0,0.0,0.0,0.0,2.9684,3.0467,3.0467,2.9659,2.8202,2.6586,2.5338,2.4456,2.4456,2.4456,2.4456,2.4456,2.4337,0.0,0.0,0.0,0.0,0.0,0.0,0.0,2.3786,2.464,2.4987,2.4208,2.4078,2.4403,2.561,2.5861,0.0,0.0,3.5385,3.8294,3.9402,3.9876,3.9943,0.0,0.0,0.0,0.0,0.0,0.0,0.0,0.0,0.0,0.0,0.0,0.0,0.0,0.0,0.0,0.0,0.0,0.0,0.0,0.0,0.0,0.0,0.0,0.0,3.56,3.56,3.5667,3.5836,3.5667,3.5836,0.0,3.6806,3.7483,3.8372,3.892,3.8745,3.8019,3.7706,3.7174,3.6538,3.5814,3.5519,3.5519,3.5519,3.5519,3.5519,3.5519,3.5519,3.5519,0.0,0.0,0.0,0.0,0.0,0.0,0.0,0.0,2.2162,2.3419,2.3199,2.3098,2.3529,2.3566,0.0,0.0,2.419,2.419,2.419,2.419,2.419,2.419,2.497,0.0,0.0,0.0,0.0,0.0,0.0,0.0,0.0,0.0,0.0,3.021,0.0,2.9292,2.7725,2.6502,2.5521,2.4787,2.4787,2.4787,2.4787,2.4787,2.43,2.3639,2.3639,0.0,0.0,0.0,0.0,0.0,0.0,0.0,2.4721,2.4115,2.4021,2.4337,2.5497,0.0,0.0,3.421,0.0,3.9447,3.996,4.0113,4.0011,0.0,0.0,0.0,0.0,0.0,0.0,0.0,0.0,0.0,0.0,0.0,0.0,0.0,0.0,0.0,0.0,0.0,0.0,0.0,0.0,0.0,0.0,3.5261,3.525,3.56,3.4923,3.489,3.56,3.5228,3.5453,3.6197,3.6626,3.7347,3.8439,3.9134,3.9049,3.8302,3.7933,3.7322,3.6538,3.5814,3.5519,3.5519,3.5519,3.5519,3.5519,3.5519,3.5519,3.5519,0.0,0.0,0.0,0.0,0.0,0.0,0.0,0.0,0.0,2.408,2.419,2.419,2.419,2.419,2.419,0.0,0.0,0.0,2.419,2.419,2.4263,2.441,2.5044,0.0,0.0,0.0,0.0,0.0,0.0,0.0,0.0,0.0,0.0,2.9989,0.0,2.8962,2.753,2.6576,2.5805,2.5191,2.5191,2.5191,2.5201,2.524,2.4421,2.3199,2.3244,2.3153,2.3006,2.3153,0.0,0.0,0.0,0.0,2.4151,2.3858,2.3753,2.3914,2.4901,0.0,3.0964,3.5915,3.8173,0.0,3.9636,3.974,0.0,0.0,0.0,0.0,0.0,0.0,0.0,0.0,0.0,0.0,0.0,0.0,0.0,0.0,0.0,0.0,0.0,0.0,0.0,0.0,0.0,0.0,3.5397,3.4844,3.4709,3.5194,3.4044,3.3977,3.5194,3.4742,3.5137,3.6423,3.666,3.7506,3.8836,3.9571,3.9613,3.9043,3.8161,3.7411,3.6722,3.5878,3.5519,3.5519,3.5519,3.5519,3.5519,3.5519,3.5519,3.5519,0.0,0.0,0.0,0.0,0.0,0.0,0.0,0.0,0.0,0.0,2.419,2.419,2.419,2.419,2.419,2.419,2.419,2.419,2.419,0.0,0.0,2.5191,2.5338,2.5668,0.0,0.0,0.0,0.0,0.0,0.0,0.0,0.0,0.0,2.9133,0.0,2.7603,2.6649,2.5144,2.4447,2.4373,2.4373,2.4373,2.4365,2.4541,2.4385,2.4071,2.4253,2.3747,2.3116,2.3786,2.3639,0.0,0.0,0.0,2.419,2.4151,2.3945,2.4003,0.0,0.0,3.1823,0.0,3.5621,3.7363,0.0,0.0,0.0,0.0,0.0,0.0,0.0,0.0,0.0,0.0,0.0,0.0,0.0,0.0,0.0,0.0,0.0,0.0,0.0,0.0,0.0,0.0,0.0,0.0,3.4675,3.4539,3.4235,3.3728,3.3525,3.347,3.3694,3.4235,3.4607,3.481,3.6152,3.7235,3.8058,3.8802,3.9454,3.9876,3.8446,3.7735,3.7531,3.607,3.5519,3.5519,3.5519,3.5519,3.5519,3.5519,3.5519,3.5519,0.0,0.0,0.0,0.0,0.0,0.0,0.0,0.0,0.0,0.0,0.0,2.419,2.419,2.419,2.419,2.419,2.419,2.419,2.419,2.419,2.4373,2.4713,2.4713,2.4887,2.5254,0.0,0.0,0.0,0.0,0.0,0.0,2.7798,2.8484,0.0,0.0,0.0,0.0,2.4887,2.419,2.419,2.419,2.419,2.4209,2.4321,2.408,2.3717,2.3818,0.0,0.0,0.0,2.3773,2.3895,2.4127,0.0,0.0,0.0,2.4112,2.4361,2.6045,2.8032,3.0191,0.0,3.3905,3.5172,3.6898,0.0,0.0,0.0,0.0,0.0,0.0,0.0,0.0,0.0,0.0,0.0,0.0,0.0,0.0,0.0,0.0,0.0,0.0,0.0,0.0,0.0,0.0,3.4844,3.4506,3.3715,3.3288,3.3423,3.2611,3.2747,3.3998,3.3931,3.4303,3.5148,3.6265,3.7178,3.7922,3.8667,3.9177,3.9368,3.869,3.7933,3.7054,3.6415,3.5847,3.5519,3.5519,3.5519,3.5519,3.5519,3.5519,3.5519,0.0,0.0,0.0,0.0,0.0,0.0,0.0,0.0,0.0,0.0,0.0,2.419,2.419,0.0,0.0,0.0,2.419,2.419,2.419,2.419,2.419,2.419,2.419,2.419,2.419,0.0,0.0,0.0,0.0,0.0,2.8117,2.8117,2.9072,0.0,2.8925,2.742,0.0,0.0,2.4493,2.4493,2.4263,2.419,2.4199,2.4266,2.396,2.3553,2.3574,0.0,0.0,0.0,0.0,0.0,0.0,0.0,0.0,0.0,0.0,0.0,0.0,0.0,2.8067,3.0577,3.1775,3.2884,0.0,0.0,0.0,0.0,0.0,0.0,0.0,0.0,0.0,0.0,0.0,0.0,0.0,0.0,0.0,0.0,0.0,0.0,0.0,0.0,0.0,0.0,0.0,3.4358,3.3986,3.2903,3.2462,3.2848,3.1765,3.2002,3.3626,3.3491,3.4066,3.5329,3.6129,3.6882,3.7623,3.8391,3.8663,3.8635,3.8635,3.7991,3.6873,3.6477,3.6006,3.5519,3.5519,3.5519,3.5519,3.5519,3.5519,3.5519,0.0,0.0,0.0,0.0,0.0,0.0,0.0,0.0,0.0,0.0,0.0,2.419,2.419,2.419,2.419,2.419,2.419,2.419,2.419,2.419,2.419,2.419,2.419,0.0,2.419,0.0,0.0,0.0,0.0,0.0,2.895,2.895,3.0198,3.2362,3.0014,2.764,2.5448,0.0,2.5338,2.5264,2.453,2.419,2.4218,2.4419,0.0,0.0,0.0,0.0,0.0,0.0,0.0,0.0,0.0,0.0,0.0,0.0,0.0,0.0,0.0,2.493,0.0,2.6774,2.8574,0.0,0.0,0.0,0.0,0.0,0.0,0.0,0.0,0.0,0.0,0.0,0.0,0.0,0.0,0.0,0.0,0.0,0.0,0.0,0.0,0.0,0.0,0.0,0.0,3.3884,3.2496,3.2327,3.1989,3.1326,3.1224,3.1258,3.136,3.2713,3.3795,3.4573,3.5318,3.6051,3.6792,3.7599,3.7915,3.7879,3.7879,3.7822,3.7618,3.6164,3.5522,3.5519,3.5519,3.5519,3.5519,3.5519,3.5519,3.5519,0.0,0.0,0.0,0.0,0.0,0.0,0.0,0.0,0.0,0.0,0.0,0.0,0.0,2.419,2.419,2.419,2.419,2.419,2.419,2.419,2.419,2.419,2.419,2.419,2.419,2.419,0.0,0.0,0.0,2.5328,2.7446,2.7446,2.8191,2.9512,2.917,2.851,2.7567,2.5511,0.0,2.5338,2.453,2.419,2.4199,0.0,0.0,0.0,0.0,0.0,0.0,0.0,0.0,0.0,0.0,0.0,0.0,0.0,0.0,0.0,0.0,0.0,0.0,2.5849,2.7018,0.0,0.0,0.0,0.0,0.0,0.0,0.0,0.0,0.0,0.0,0.0,0.0,0.0,0.0,0.0,0.0,0.0,0.0,0.0,0.0,0.0,0.0,0.0,0.0,0.0,3.2327,3.1853,3.1461,3.119,3.119,3.1664,3.2611,3.3592,3.4472,3.5194,3.5512,3.6052,3.6788,3.662,3.6771,3.7128,3.6193,3.627,3.6963,3.5953,3.5547,3.5459,3.5011,3.513,3.5519,3.5519,3.5519,3.5519,0.0,0.0,0.0,0.0,0.0,2.341,0.0,0.0,0.0,0.0,0.0,0.0,0.0,0.0,2.419,2.419,2.419,2.419,2.419,2.419,2.419,2.419,2.419,2.419,2.419,0.0,0.0,0.0,0.0,0.0,0.0,2.6602,2.7163,2.8191,2.818,2.818,0.0,0.0,0.0,2.5338,0.0,0.0,2.464,0.0,0.0,0.0,0.0,0.0,0.0,0.0,0.0,0.0,0.0,0.0,0.0,0.0,0.0,0.0,2.419,0.0,0.0,0.0,0.0,2.6624,0.0,0.0,0.0,0.0,0.0,0.0,0.0,0.0,0.0,0.0,0.0,0.0,0.0,0.0,0.0,0.0,0.0,0.0,0.0,0.0,0.0,0.0,0.0,0.0,3.1955,3.1461,3.119,3.119,3.119,3.1799,3.3017,3.3761,3.4506,3.5228,3.5546,3.5799,3.6065,3.5869,3.5749,3.5678,3.5209,3.5358,3.5918,3.5184,3.485,3.4801,3.4593,3.4773,3.519,3.5429,3.5519,3.5519,0.0,2.419,2.419,2.419,2.419,2.419,0.0,0.0,0.0,0.0,0.0,0.0,0.0,0.0,0.0,2.43,2.4263,2.4263,2.4226,2.419,2.419,2.419,2.419,2.419,2.419,0.0,0.0,0.0,0.0,0.0,0.0,0.0,2.7372,2.884,2.7262,2.6565,2.6565,0.0,2.6098,2.5374,0.0,2.4713,2.5521,0.0,0.0,0.0,2.6586,2.6349,0.0,2.4912,0.0,0.0,0.0,0.0,0.0,0.0,0.0,0.0,0.0,0.0,0.0,0.0,0.0,0.0,2.6778,0.0,0.0,0.0,0.0,0.0,0.0,0.0,0.0,0.0,0.0,0.0,0.0,0.0,0.0,0.0,0.0,0.0,0.0,0.0,0.0,0.0,0.0,3.1955,3.1224,3.119,3.119,3.119,3.119,3.1562,3.2327,3.3051,3.3795,3.4539,3.5261,3.5229,3.4616,3.5321,3.484,3.3546,3.491,3.5174,3.4587,3.3819,3.3544,3.3604,3.4264,3.4503,3.4623,3.525,3.5519,3.5519,2.419,2.419,2.419,2.419,2.419,2.419,0.0,0.0,0.0,0.0,0.0,0.0,0.0,0.0,0.0,2.6759,2.6282,2.5695,2.5117,2.453,2.419,2.419,2.419,2.419,2.419,0.0,0.0,0.0,0.0,0.0,0.0,0.0,0.0,0.0,2.5925,2.5742,2.5705,2.5107,0.0,2.6135,2.474,2.5034,0.0,0.0,0.0,0.0,0.0,2.6459,2.6775,0.0,2.6102,2.609,0.0,0.0,0.0,0.0,0.0,0.0,2.419,0.0,0.0,0.0,0.0,0.0,2.5059,2.6622,0.0,0.0,0.0,0.0,0.0,0.0,0.0,0.0,0.0,0.0,0.0,0.0,0.0,0.0,0.0,0.0,0.0,0.0,0.0,0.0,3.1495,3.1427,3.119,3.119,3.119,3.119,3.119,3.1799,3.3085,3.3322,3.4032,3.5295,3.4998,3.4787,3.4562,3.3808,3.3216,3.2854,3.3211,3.3245,3.3154,3.3937,3.4502,3.4921,3.4623,3.4771,3.525,3.5429,3.5519,3.5519,2.419,2.419,2.43,2.464,2.4961,2.5217,0.0,0.0,0.0,0.0,0.0,0.0,0.0,0.0,0.0,0.0,2.7163,2.6759,2.5952,2.5474,2.5217,2.5217,2.4887,2.4713,0.0,0.0,0.0,0.0,0.0,0.0,0.0,0.0,0.0,0.0,2.4897,2.4897,2.4897,0.0,0.0,0.0,2.4593,0.0,0.0,2.5915,2.6502,0.0,0.0,0.0,2.8105,2.7158,2.6977,0.0,0.0,0.0,0.0,0.0,0.0,0.0,0.0,0.0,0.0,0.0,0.0,0.0,2.475,2.5778,2.666,0.0,0.0,0.0,0.0,0.0,0.0,0.0,0.0,0.0,0.0,0.0,0.0,0.0,0.0,0.0,0.0,0.0,0.0,3.0751,3.1021,3.119,3.119,3.119,3.119,3.119,3.119,3.1901,3.3389,3.3423,3.4146,3.56,3.4901,3.4439,3.4145,3.3077,3.2592,3.2562,3.2524,3.2677,3.3006,3.4053,3.4562,3.4651,3.4563,3.4743,3.513,3.54,3.5519,3.5519,0.0,2.419,2.4474,2.5324,2.6078,0.0,0.0,0.0,0.0,0.0,0.0,0.0,0.0,0.0,0.0,0.0,2.7603,2.7603,2.6796,2.6638,0.0,0.0,0.0,0.0,0.0,0.0,0.0,0.0,0.0,0.0,0.0,0.0,0.0,0.0,2.43,2.4337,2.4383,0.0,0.0,2.4337,2.4337,2.5364,0.0,0.0,2.8154,2.8987,2.8911,2.9221,2.9425,2.7867,2.7466,0.0,0.0,0.0,0.0,0.0,2.5204,0.0,0.0,0.0,0.0,0.0,0.0,0.0,2.5191,2.5411,2.5485,0.0,0.0,0.0,0.0,0.0,0.0,0.0,0.0,0.0,0.0,0.0,0.0,0.0,0.0,0.0,0.0,3.0581,3.0683,3.004,3.0649,3.1089,3.119,3.119,3.119,3.119,3.119,3.1901,3.3389,3.3423,3.409,3.5453,3.4878,3.4194,3.3469,3.2868,3.2525,3.2378,3.2467,3.2856,3.3425,3.4083,3.4053,3.3664,3.4354,3.4623,3.4683,3.528,3.5519,3.5519,2.419,2.419,2.4541,2.5622,0.0,0.0,0.0,0.0,0.0,0.0,0.0,0.0,0.0,0.0,0.0,0.0,0.0,2.84,0.0,0.0,0.0,0.0,0.0,0.0,0.0,0.0,0.0,0.0,0.0,0.0,0.0,0.0,0.0,0.0,2.4897,2.5154,2.5227,0.0,0.0,2.5154,2.5154,0.0,2.8326,2.6549,2.7163,2.8948,2.846,2.8788,2.9344,0.0,2.7244,2.6185,0.0,0.0,0.0,0.0,0.0,0.0,0.0,0.0,0.0,0.0,0.0,0.0,2.4997,2.5438,2.5988,0.0,0.0,0.0,0.0,0.0,0.0,0.0,0.0,0.0,0.0,0.0,0.0,0.0,0.0,0.0,0.0,2.9348,2.9382,2.9247,2.9905,3.0581,3.1157,3.119,3.119,3.119,3.119,3.1901,3.3389,3.3423,3.3895,3.4783,3.4664,3.3946,3.2788,3.2683,3.228,3.172,3.2258,3.2557,3.2766,3.3425,3.3933,3.4384,3.504,3.531,3.531,3.5459,3.5519,3.5519,2.419,2.453,2.5142,2.6297,0.0,0.0,0.0,0.0,0.0,0.0,0.0,0.0,0.0,0.0,0.0,0.0,0.0,0.0,0.0,0.0,0.0,0.0,0.0,0.0,0.0,0.0,0.0,0.0,0.0,0.0,0.0,0.0,0.0,0.0,0.0,0.0,0.0,0.0,2.6979,2.6513,2.5705,0.0,2.7666,2.6465,2.7236,2.8973,2.865,2.8899,2.9302,2.8549,2.8285,0.0,0.0,2.6794,2.7308,0.0,2.668,2.6696,0.0,0.0,0.0,2.72,0.0,0.0,0.0,2.5401,2.5401,2.5401,0.0,0.0,0.0,0.0,0.0,0.0,0.0,0.0,0.0,0.0,0.0,0.0,0.0,0.0,0.0,2.7977,2.8552,2.8976,2.933,2.9871,3.0615,3.0649,3.0818,3.119,3.119,3.1732,3.2848,3.322,3.3627,3.4065,3.408,3.3572,3.2602,3.2216,3.2034,3.1989,3.1989,3.2168,3.2527,3.2856,3.3395,3.4053,3.4741,3.522,3.5519,3.5519,3.5519,3.5519,2.4667,2.5191,2.5993,2.7138,0.0,0.0,0.0,0.0,0.0,0.0,0.0,0.0,0.0,0.0,0.0,0.0,0.0,0.0,0.0,0.0,0.0,0.0,0.0,2.8594,0.0,0.0,0.0,0.0,0.0,0.0,0.0,0.0,0.0,0.0,0.0,0.0,0.0,0.0,0.0,2.7688,0.0,2.6319,2.7042,2.6906,2.7739,2.8987,2.8987,2.9145,2.9237,2.8768,0.0,3.0104,2.7605,2.8289,0.0,0.0,0.0,0.0,0.0,0.0,0.0,0.0,0.0,2.666,0.0,0.0,0.0,2.5952,0.0,0.0,0.0,0.0,0.0,0.0,0.0,0.0,0.0,0.0,0.0,0.0,0.0,0.0,0.0,2.6539,2.7503,2.8299,2.8468,2.8874,2.9634,2.9803,3.0243,3.0954,3.0987,3.1461,3.2496,3.2959,3.3317,3.3523,3.3437,3.3024,3.2355,3.1768,3.1809,3.2258,3.175,3.1809,3.2288,3.2288,3.2796,3.3574,3.4264,3.4891,3.5519,3.5519,3.5519,3.5519,2.6319,2.6392,2.6823,2.798,0.0,0.0,0.0,0.0,0.0,0.0,0.0,0.0,0.0,0.0,0.0,0.0,0.0,0.0,3.2326,0.0,0.0,0.0,0.0,0.0,2.797,0.0,0.0,0.0,0.0,0.0,0.0,0.0,0.0,0.0,2.6576,0.0,0.0,0.0,2.7798,0.0,2.7603,2.8007,0.0,2.7934,2.8227,2.8987,2.8987,2.901,2.9154,0.0,2.9655,2.9409,0.0,2.9534,2.8467,0.0,0.0,0.0,0.0,0.0,0.0,0.0,2.9879,0.0,0.0,0.0,2.5988,2.474,0.0,0.0,0.0,0.0,0.0,0.0,0.0,0.0,0.0,0.0,0.0,0.0,0.0,0.0,0.0,0.0,2.5169,2.5947,2.659,2.7266,2.8027,2.8755,2.9465,3.0209,3.0224,3.1224,3.3254,3.2763,3.2887,3.3572,3.2966,3.2327,3.1596,3.1539,3.154,3.16,3.154,3.154,3.16,3.16,3.2348,3.3574,3.4264,3.4891,3.5519,3.5519,3.5519,3.5519,2.6785,2.7336,2.8212,2.8894,0.0,0.0,0.0,0.0,0.0,0.0,0.0,0.0,0.0,0.0,0.0,0.0,0.0,3.2032,0.0,0.0,0.0,0.0,0.0,0.0,0.0,0.0,0.0,0.0,2.8546,0.0,0.0,0.0,0.0,0.0,2.7776,0.0,2.8301,0.0,2.8521,0.0,0.0,0.0,0.0,2.8117,2.8301,2.895,2.8473,2.8583,2.8987,0.0,2.9512,0.0,0.0,0.0,0.0,0.0,0.0,0.0,0.0,0.0,0.0,0.0,0.0,0.0,2.6355,0.0,2.5291,0.0,0.0,0.0,0.0,0.0,0.0,0.0,0.0,0.0,0.0,0.0,0.0,0.0,0.0,0.0,0.0,0.0,0.0,0.0,0.0,2.6387,2.7131,2.8333,2.933,3.0055,3.0514,3.12,3.2152,3.1935,3.1987,3.2316,3.2115,3.1848,3.1511,3.1511,3.1511,3.1511,3.1511,3.1511,3.1511,3.1511,3.2288,3.3514,3.3814,3.4562,3.5519,3.5519,3.5519,3.5519,2.8154,2.8693,2.949,0.0,0.0,0.0,0.0,0.0,0.0,0.0,0.0,0.0,3.7456,3.656,0.0,0.0,3.4174,3.366,0.0,0.0,3.1935,0.0,0.0,0.0,0.0,0.0,0.0,0.0,0.0,0.0,0.0,0.0,0.0,0.0,0.0,2.9145,2.8789,0.0,2.8987,2.8987,2.8987,2.8987,2.895,2.8338,2.8473,2.8913,2.8338,2.8521,2.895,2.8594,2.9622,0.0,2.9267,0.0,0.0,0.0,0.0,0.0,3.1678,0.0,0.0,0.0,0.0,0.0,0.0,0.0,0.0,0.0,0.0,0.0,0.0,0.0,0.0,0.0,0.0,0.0,0.0,0.0,0.0,0.0,0.0,0.0,0.0,0.0,0.0,0.0,0.0,0.0,2.6065,2.7554,2.8807,2.977,3.0514,3.1046,3.132,3.1385,3.1422,3.1438,3.1551,3.1536,3.1481,3.1301,3.1212,3.1212,3.1212,3.1212,3.1241,3.1421,3.2168,3.3245,3.3425,3.4203,3.525,3.5429,3.5519,3.5519,3.125,3.065,0.0,0.0,0.0,0.0,0.0,0.0,0.0,0.0,0.0,0.0,0.0,0.0,0.0,0.0,0.0,3.4137,3.4857,0.0,3.1555,0.0,0.0,3.2265,0.0,0.0,0.0,0.0,0.0,0.0,0.0,0.0,0.0,0.0,0.0,3.0577,3.1164,2.9647,2.8987,2.8987,2.8987,2.8987,2.8987,0.0,2.8987,2.8987,2.8987,0.0,0.0,2.9879,3.0173,0.0,0.0,0.0,0.0,0.0,0.0,0.0,0.0,0.0,0.0,3.0014,0.0,0.0,0.0,0.0,2.8436,0.0,0.0,0.0,0.0,0.0,0.0,0.0,0.0,0.0,0.0,0.0,0.0,0.0,0.0,0.0,0.0,0.0,0.0,0.0,0.0,0.0,2.4541,2.5963,2.7469,2.8976,2.9736,3.0529,3.1374,3.1385,3.1469,3.1579,3.1518,3.1509,3.1481,3.0823,3.0522,3.0522,3.0522,3.0522,3.0582,3.1241,3.1899,3.2617,3.3245,3.3903,3.4623,3.525,3.5519,3.5519,3.2779,0.0,0.0,0.0,0.0,0.0,0.0,3.5936,0.0,0.0,0.0,0.0,0.0,3.9371,3.882,0.0,0.0,3.6707,3.5899,3.5349,0.0,0.0,0.0,3.383,0.0,0.0,0.0,0.0,0.0,0.0,0.0,0.0,0.0,0.0,0.0,3.0834,0.0,0.0,0.0,0.0,0.0,3.0907,3.1152,0.0,0.0,2.8913,2.8411,2.8546,0.0,2.9317,2.9769,3.0136,2.9867,3.0356,3.1066,3.1323,3.1788,0.0,0.0,0.0,3.5018,3.1458,0.0,0.0,0.0,0.0,0.0,0.0,0.0,0.0,0.0,0.0,0.0,0.0,0.0,0.0,0.0,0.0,0.0,0.0,0.0,0.0,0.0,0.0,0.0,0.0,0.0,0.0,0.0,2.5895,2.7419,2.8942,2.9345,2.9914,3.0729,2.9911,2.9943,3.0879,3.0003,3.0016,3.0793,3.0193,3.0103,3.0492,3.0492,3.0761,3.1182,3.1421,3.2138,3.3185,3.3395,3.4173,3.519,3.5429,3.5519,3.5519,3.4027,3.405,0.0,0.0,0.0,0.0,0.0,0.0,0.0,0.0,3.9827,0.0,4.1425,0.0,4.1095,0.0,3.9717,3.8762,3.6853,3.7,0.0,3.4637,3.5151,0.0,0.0,0.0,0.0,0.0,0.0,3.2522,0.0,0.0,0.0,0.0,0.0,0.0,3.1054,0.0,3.0907,0.0,0.0,3.1715,0.0,0.0,2.9402,2.9732,0.0,2.8546,2.8987,2.8987,2.9537,3.0099,2.9574,3.032,3.1397,3.1397,3.1971,3.2693,3.322,3.4578,0.0,3.2485,3.2669,0.0,2.9402,0.0,0.0,0.0,0.0,0.0,0.0,0.0,0.0,0.0,0.0,0.0,0.0,2.4006,0.0,0.0,0.0,0.0,0.0,0.0,0.0,0.0,2.297,0.0,0.0,0.0,2.7672,2.8976,2.9599,2.9962,3.0055,2.947,2.9385,2.9834,2.9235,2.9385,3.0163,2.9801,2.9804,3.0193,3.0402,3.0761,3.1152,3.1391,3.2138,3.3155,3.3395,3.4173,3.516,3.54,3.5519,3.5519,3.5078,3.5738,0.0,0.0,3.4637,0.0,0.0,0.0,3.9056,0.0,4.0671,4.1462,4.2286,4.2359,4.2359,4.2359,4.1645,4.023,3.7896,3.8432,0.0,0.0,3.5569,3.5605,3.3917,0.0,0.0,0.0,0.0,0.0,0.0,0.0,0.0,0.0,3.3844,0.0,3.2583,3.2583,3.2155,3.147,3.1507,3.1544,3.158,3.1507,3.147,3.1323,2.9684,2.9133,2.9133,2.9133,2.961,3.0246,3.0246,3.076,3.1397,3.147,3.2008,3.2619,3.2693,3.3867,3.4711,3.3096,0.0,0.0,0.0,0.0,3.4344,0.0,0.0,0.0,0.0,0.0,0.0,0.0,0.0,0.0,0.0,0.0,0.0,0.0,0.0,0.0,0.0,0.0,2.2313,2.2347,2.3004,2.3748,0.0,0.0,2.8094,2.8939,3.0326,3.0493,2.9361,3.0009,2.9717,2.8607,2.9205,2.9532,2.9562,2.9532,2.9562,2.9651,3.0193,3.0492,3.0612,3.1271,3.1929,3.2617,3.3275,3.3933,3.4623,3.528,3.5519,3.5519,3.5973,3.6156,3.6523,0.0,3.711,3.7184,0.0,0.0,0.0,0.0,4.1846,4.2286,4.3094,4.3167,4.3167,4.3167,4.2983,0.0,0.0,0.0,0.0,3.7551,3.7845,3.7037,3.4747,3.5532,0.0,3.3807,0.0,0.0,3.3807,0.0,0.0,0.0,0.0,0.0,3.2583,3.2583,3.2472,3.2339,3.2926,3.355,0.0,0.0,3.2669,3.2963,3.1347,3.076,3.076,3.076,3.0907,3.1091,3.1091,3.125,3.1544,3.2118,3.2436,3.2876,3.405,3.5151,3.5716,3.4637,3.4711,3.4637,0.0,0.0,0.0,0.0,0.0,0.0,0.0,0.0,0.0,0.0,0.0,0.0,0.0,0.0,0.0,0.0,0.0,0.0,0.0,0.0,2.253,2.3071,2.3274,2.3951,0.0,0.0,0.0,2.8296,2.8707,2.8839,2.8717,2.8904,2.8867,2.8607,2.8274,2.8393,2.8846,2.8334,2.8663,2.9621,2.9744,3.0372,3.1301,3.1959,3.2647,3.3305,3.3963,3.4651,3.525,3.5429,3.5519,3.5519,3.7294,3.7918,0.0,3.9606,0.0,0.0,3.9753,0.0,0.0,4.2176,4.2616,0.0,4.3441,4.3515,4.3515,4.3515,4.3515,0.0,4.2359,0.0,0.0,3.9848,3.9423,3.8248,3.6156,3.6229,0.0,3.4307,0.0,0.0,3.4344,0.0,0.0,0.0,0.0,3.4491,0.0,3.328,3.355,3.4211,3.3917,0.0,0.0,3.377,3.3844,3.4688,3.3036,3.2021,3.1397,3.1397,3.1641,3.1935,3.1935,3.2155,3.2522,3.2999,3.3109,3.3316,3.4234,3.5078,3.5591,3.5114,3.5298,3.5334,3.4491,3.4674,3.4784,0.0,0.0,0.0,0.0,0.0,0.0,0.0,0.0,0.0,0.0,0.0,0.0,0.0,2.4084,0.0,0.0,2.2554,2.2733,2.3797,2.3898,0.0,0.0,0.0,0.0,2.8082,2.9272,2.9458,2.8511,2.9076,2.897,2.8184,2.7794,2.7794,2.8184,2.8094,2.8603,2.9621,2.9864,3.0582,3.154,3.2198,3.2916,3.3604,3.4562,3.516,3.5519,3.5519,3.5519,3.5519,3.8872,4.0141,0.0,0.0,0.0,0.0,0.0,4.2176,0.0,4.2616,0.0,4.3608,4.3515,4.3515,4.3515,4.3515,0.0,4.3204,4.2506,4.3094,4.2837,4.1315,4.0487,3.9255,3.7529,3.6831,0.0,0.0,0.0,0.0,0.0,0.0,0.0,0.0,0.0,0.0,0.0,3.4394,3.4908,3.6009,3.4651,3.4981,3.6119,3.4688,3.5018,3.6119,3.4651,3.3146,3.1861,3.1764,3.2192,3.2766,3.2766,3.3256,3.3807,3.3807,3.3807,3.3807,3.3917,3.4454,3.5004,3.5004,3.5555,3.5936,3.5188,3.5004,3.4821,3.41,3.3316,3.2693,0.0,0.0,0.0,0.0,0.0,0.0,0.0,0.0,0.0,0.0,0.0,0.0,0.0,0.0,2.3105,2.4406,2.4575,0.0,0.0,0.0,0.0,2.7997,3.0359,0.0,2.8645,0.0,2.9552,2.7974,2.7914,2.7854,2.7884,2.8457,2.9086,2.9771,3.0283,3.0941,3.169,3.2348,3.3095,3.3873,3.504,3.5519,3.5519,3.5519,3.5519,3.5519,4.0655,0.0,0.0,0.0,0.0,4.3461,4.3994,4.4195,4.4305,4.4305,4.4415,4.4232,4.3588,4.3515,4.3515,4.3515,4.3515,0.0,0.0,0.0,0.0,4.2139,4.1332,3.9827,3.7566,3.7345,3.6523,0.0,0.0,0.0,0.0,0.0,0.0,0.0,0.0,0.0,3.5041,3.5605,0.0,3.5261,3.5679,3.6046,3.6266,3.5973,3.6046,3.6266,3.5973,3.5238,3.427,3.3587,3.3476,3.3587,3.3587,3.3697,3.3807,3.3807,3.3807,3.3954,3.4601,3.4894,3.5004,3.5004,3.5114,3.5188,3.5041,3.5004,3.4968,3.4821,3.416,3.3183,3.1861,0.0,0.0,0.0,0.0,0.0,0.0,0.0,0.0,0.0,0.0,0.0,0.0,0.0,0.0,0.0,0.0,0.0,0.0,0.0,0.0,0.0,2.788,0.0,0.0,0.0,2.9771,2.9983,2.9502,2.9262,2.9262,2.9382,2.9744,3.0342,3.0462,3.121,3.2407,3.3066,3.4053,3.516,3.54,3.5519,3.5519,3.5519,3.5519,3.5519,0.0,0.0,0.0,0.0,0.0,0.0,0.0,4.6324,0.0,4.5443,4.4966,4.4562,4.4158,4.3754,4.3515,4.3515,4.3515,4.3515,4.3515,4.3515,4.3331,4.2947,4.1772,0.0,3.8778,3.7529,3.6684,3.6303,0.0,0.0,0.0,0.0,0.0,0.0,0.0,3.667,0.0,0.0,0.0,3.6876,3.6486,3.6817,3.7441,3.6633,3.6817,3.7441,3.6597,3.6303,3.6156,3.5385,3.5092,3.5018,3.4578,3.4724,3.4945,3.4064,3.41,3.4417,3.438,3.438,3.438,3.438,3.438,3.438,3.438,3.438,3.427,3.383,3.3305,3.2429,3.0777,2.9477,0.0,0.0,0.0,0.0,0.0,0.0,0.0,0.0,0.0,0.0,0.0,0.0,0.0,0.0,0.0,0.0,0.0,0.0,0.0,0.0,0.0,0.0,0.0,0.0,0.0,3.0013,2.9741,2.9621,2.9621,2.9621,2.9924,3.0492,3.0492,3.127,3.2587,3.3604,3.4592,3.5519,3.5519,3.5519,3.5519,3.5519,3.5519,3.5519,0.0,4.3461,0.0,0.0,4.5645,0.0,4.702,4.766,4.7585,4.6085,4.5369,4.4819,4.4488,4.3864,4.3515,4.3515,4.3515,4.3515,4.3515,4.3515,4.3515,4.3515,4.1956,4.0744,3.99,3.7698,3.6795,0.0,0.0,0.0,0.0,0.0,0.0,0.0,0.0,0.0,0.0,0.0,3.6802,3.8358,3.7257,3.7588,3.8579,3.7294,3.7588,3.8542,3.7257,3.7221,3.7676,3.7,3.6597,3.6193,3.5481,3.5752,3.6046,3.4724,3.4798,3.5151,3.4504,3.4211,3.4064,3.4064,3.3863,3.3662,3.3662,3.3592,3.3354,3.2721,3.2125,3.1254,2.9764,2.8838,0.0,0.0,0.0,0.0,0.0,0.0,0.0,0.0,0.0,0.0,0.0,0.0,0.0,0.0,0.0,2.6082,2.6657,2.7297,0.0,0.0,0.0,2.995,2.8996,0.0,3.0821,0.0,3.0073,2.9983,2.9983,2.9983,3.0342,3.0941,3.0941,3.1689,3.3036,3.4203,3.5011,3.5519,3.5519,3.5519,3.5519,3.5519,3.5519,3.5519,0.0,0.0,0.0,0.0,0.0,0.0,4.711,4.7308,4.7114,4.6048,4.5847,4.5223,4.3754,4.3551,4.3515,4.3515,4.3515,4.3515,4.3515,4.3515,4.3515,4.3515,4.1956,4.0744,3.99,3.8264,3.7088,0.0,0.0,0.0,0.0,0.0,0.0,0.0,0.0,0.0,0.0,3.8102,3.8065,3.7676,3.8248,3.8579,3.8689,3.8542,3.8579,3.8689,3.8542,3.8505,3.8579,3.8505,3.7514,3.6303,3.6193,3.6229,3.6266,3.6119,3.6119,3.6156,3.6083,3.5481,3.4894,3.4894,3.4069,3.3276,3.3276,3.2937,3.2614,3.2527,3.1375,3.0133,2.931,2.8479,2.7855,0.0,0.0,0.0,0.0,0.0,0.0,0.0,0.0,0.0,0.0,2.6623,0.0,0.0,2.6623,2.6623,2.6691,2.7014,2.7166,2.719,0.0,2.8646,3.0313,2.9953,0.0,3.2228,3.16,3.1331,3.1331,3.1331,3.166,3.2317,3.2317,3.3066,3.4384,3.51,3.5459,3.5519,3.5519,3.5519,3.5519,3.5519,3.5519,3.5519,0.0,0.0,0.0,0.0,0.0,0.0,0.0,4.7352,4.6765,4.5075,4.5435,4.5663,4.5002,4.4085,4.3515,4.3515,4.3515,4.3515,4.3515,4.3515,4.3515,4.3515,4.2433,4.1662,4.1332,3.9276,3.8285,0.0,0.0,0.0,0.0,0.0,0.0,0.0,0.0,3.8374,3.8212,3.8028,3.8065,3.8248,3.8579,3.8689,3.8689,3.8689,3.8689,3.8689,3.8689,3.8689,3.8689,3.8689,3.8285,3.7661,3.7162,3.7331,3.7551,3.6597,3.6648,3.6905,3.6413,3.6046,3.5789,3.5789,3.519,3.4449,3.4011,3.3521,3.2891,3.1971,3.0702,2.9682,2.9384,2.9089,2.8895,0.0,0.0,0.0,0.0,0.0,0.0,0.0,0.0,0.0,0.0,0.0,2.735,0.0,0.0,2.6691,2.6691,2.6872,2.7049,2.719,0.0,2.9042,2.9951,3.0492,3.1122,3.1899,3.163,3.172,3.2079,3.2079,3.2467,3.3125,3.3514,3.3993,3.4563,3.522,3.5519,3.5519,3.5519,3.5519,3.5519,3.5519,3.5782,3.6101,4.6104,0.0,4.6708,0.0,4.7239,4.7213,4.7118,4.6955,4.6359,4.4949,4.5488,4.5807,4.5351,4.4234,4.3625,4.3828,4.3644,4.3515,4.3515,4.3515,4.3515,4.3515,4.2727,0.0,4.2286,4.0414,3.946,3.9533,3.9203,0.0,0.0,3.968,0.0,0.0,3.8358,3.8395,3.8652,3.8102,3.8175,3.8689,3.8689,3.8689,3.8689,3.8689,3.8689,3.8689,3.8689,3.8689,3.8726,3.8982,3.9056,3.8909,3.8102,3.8248,3.8469,3.7331,3.7404,3.7734,3.7147,3.6817,3.6633,3.6633,3.5986,3.5156,3.465,3.4022,3.3104,3.1568,3.0577,2.9849,2.942,2.9351,2.9455,2.974,0.0,0.0,0.0,0.0,0.0,0.0,2.7672,2.7385,2.7385,2.7841,0.0,0.0,0.0,0.0,2.7385,2.7485,0.0,0.0,0.0,0.0,0.0,3.0672,3.1301,3.1511,3.1511,3.1839,3.2497,3.2916,3.3335,3.3814,3.4472,3.4771,3.4831,3.531,3.5519,3.5519,3.5519,3.5519,3.5519,3.5519,3.5975,3.6538,4.6929,4.7736,4.8114,4.7512,4.7553,4.7381,4.6554,4.589,4.5715,4.6318,4.6275,4.5616,4.4104,4.367,4.3828,4.4618,4.3975,4.3515,4.3515,4.3515,4.3515,0.0,0.0,4.2286,4.2286,4.1499,4.0288,3.8726,0.0,0.0,3.7566,3.9182,3.946,3.8726,3.9533,3.9423,3.8689,3.8689,3.8689,3.8689,3.8689,3.8689,3.8689,3.8689,3.8689,3.8689,3.8689,3.8689,3.8836,3.9606,3.99,3.9753,3.8946,3.8689,3.8689,3.8689,3.8689,3.8689,3.8689,3.8102,3.7492,3.7492,3.6158,3.4818,3.4783,3.4075,3.3004,3.1515,3.121,3.0736,2.9247,2.901,2.9028,2.9028,0.0,0.0,0.0,0.0,0.0,0.0,2.8976,2.8976,2.8976,0.0,0.0,0.0,0.0,0.0,0.0,0.0,0.0,2.8297,2.9077,0.0,2.9592,3.0193,3.0823,3.1511,3.1511,3.1839,3.2527,3.3873,3.4474,3.4533,3.519,3.5489,3.5489,3.5519,3.5519,3.5519,3.5519,3.5519,3.5519,3.5519,3.5975,3.66,4.7736,4.8122,4.8094,4.7491,4.7471,4.7105,4.595,4.5622,4.5217,4.4439,4.4699,4.4764,4.4284,4.4301,4.4195,0.0,4.3662,4.3515,0.0,4.316,4.294,4.294,4.2722,4.2558,4.2558,4.2152,4.1662,4.1148,0.0,0.0,0.0,4.1038,4.0818,3.9533,4.0377,4.0598,4.0325,4.0325,4.0325,4.0288,3.9753,3.9533,3.9533,3.9533,3.9166,3.8762,3.9313,3.9252,3.8932,3.9203,3.9409,3.9511,3.926,3.9695,4.0325,4.0325,3.9937,3.9533,3.9533,3.8668,3.7785,3.7785,3.6827,3.5754,3.5269,3.4232,3.3288,3.2814,3.2713,3.2577,3.207,3.1582,3.1244,3.1244,3.0838,0.0,0.0,0.0,0.0,0.0,2.9314,2.901,0.0,2.9431,0.0,0.0,0.0,0.0,0.0,0.0,0.0,0.0,2.9562,0.0,3.0193,3.0881,3.1301,3.1511,3.1959,3.2766,3.3873,3.4771,3.519,3.519,3.54,3.5519,3.5519,3.5519,3.5519,3.5519,3.5519,3.5519,3.5519,3.5519,3.5975,3.66,4.7866,4.7777,4.7406,4.6796,4.6682,4.6329,4.532,4.5169,4.4837,4.3965,4.4369,4.4646,4.4385,4.4662,0.0,4.4108,4.3979,4.3828,4.3515,4.3196,4.2902,4.2693,4.2884,4.292,4.2693,0.0,0.0,4.2286,4.1992,4.1589,4.1095,4.1625,4.1332,4.0377,4.0875,4.1095,4.1095,4.1095,4.1095,4.1058,4.0561,4.0341,4.0341,4.0341,4.0047,3.968,4.0157,4.0125,3.9801,3.986,4.0016,4.017,4.0253,4.0779,4.1252,4.0637,4.027,3.9899,3.9438,3.8707,3.7972,3.7703,3.702,3.625,3.5559,3.4798,3.4167,3.3863,3.3829,3.3728,3.3457,3.278,3.2293,3.2293,3.1684,3.119,3.119,0.0,0.0,0.0,0.0,0.0,0.0,3.092,0.0,0.0,0.0,0.0,0.0,0.0,0.0,2.9181,3.031,0.0,3.0881,3.178,3.2228,3.2258,3.2946,3.3694,3.4533,3.519,3.5519,3.5519,3.5519,3.5519,3.5519,3.5519,3.5519,3.5519,3.5519,3.5519,3.5519,3.5519,3.5975,3.663,4.7342,4.6878,0.0,0.0,4.5598,0.0,4.476,4.4649,4.4615,4.4615,4.5089,4.5174,4.4397,4.4854,4.5146,4.4962,0.0,0.0,0.0,4.348,4.3214,4.2655,4.3124,4.3142,4.2596,4.3124,4.3061,4.2345,4.1542,4.1123,4.1119,4.1123,4.1123,4.1119,4.1192,4.1209,4.1279,4.1279,4.1279,4.1242,4.1205,4.1168,4.1168,4.1168,4.1115,4.1046,4.1082,4.1086,4.1041,4.1215,4.1279,4.1343,4.1605,4.1725,4.1464,3.9994,3.9893,3.9964,3.8773,3.8369,3.8066,3.7399,3.6796,3.6207,3.57,3.56,3.5397,3.4709,3.4573,3.437,3.3694,3.2949,3.2429,3.2395,3.1752,3.1258,3.119,0.0,0.0,0.0,0.0,0.0,0.0,3.2921,3.2521,0.0,0.0,0.0,0.0,0.0,2.996,3.0459,3.119,3.157,3.157,3.2856,3.3514,3.3574,3.4204,3.4533,3.4593,3.522,3.5519,3.5519,3.5519,3.5519,3.5519,3.5519,3.5519,3.5519,3.5519,3.5519,3.5519,3.5519,3.5911,3.663,0.0,0.0,4.709,4.6465,4.6334,4.6129,4.5513,4.4959,4.4615,4.4615,4.472,4.4763,4.4531,4.507,4.5157,4.4513,4.4207,4.3886,4.3517,4.3124,4.2635,4.2041,4.2144,4.1937,4.1318,4.1881,4.2334,4.2611,4.1956,4.1525,4.1325,4.1541,4.1544,4.1361,4.2031,4.2541,4.291,4.291,4.291,4.2873,4.2249,4.2029,4.2029,4.2029,4.1353,4.0474,4.1107,4.0779,4.0038,4.0084,4.0226,4.0408,4.047,4.0791,4.1113,4.1202,4.0896,4.0461,4.0161,3.8915,3.7659,3.745,3.6599,3.5778,3.5644,3.56,3.5532,3.5363,3.5329,3.5295,3.5092,3.4472,3.3795,3.322,3.253,3.1853,3.1258,3.119,0.0,0.0,3.2293,3.2311,3.2354,3.2541,3.2413,0.0,0.0,0.0,0.0,3.1779,3.1377,3.0531,3.1656,3.2258,3.2258,3.3095,3.3754,3.4264,3.4444,3.4773,3.528,3.5429,3.5519,3.5519,3.5519,3.5519,3.5519,3.5519,3.5519,3.5519,3.5519,3.5519,3.5519,3.5519,3.5619,3.5973,4.6996,4.683,4.6723,4.6721,4.6398,4.6054,4.576,4.506,4.4615,4.4615,4.4615,4.4615,4.4615,4.4879,4.4886,4.4328,4.44,4.4262,4.3776,4.314,4.2533,4.1981,4.1837,4.1495,4.0886,4.1473,4.1958,4.2302,4.1958,4.1869,4.1989,4.2147,4.2131,4.1989,4.2513,4.2713,4.2734,4.2734,4.2734,4.2698,4.2245,4.2231,4.2468,4.2468,4.2014,4.1393,4.1844,4.1421,4.0612,4.0342,4.0352,4.0441,4.0179,4.0294,4.0601,4.0932,4.0894,4.0609,4.0028,3.902,3.8037,3.7352,3.6661,3.6062,3.5667,3.56,3.56,3.56,3.56,3.56,3.56,3.5013,3.4269,3.3525,3.278,3.2056,3.1292,3.1495,0.0,3.2713,3.3389,3.3671,3.3383,3.3961,3.3811,3.2463,0.0,0.0,3.2477,3.2765,3.2497,3.145,3.2706,3.3395,3.3395,3.4083,3.4592,3.4951,3.4951,3.513,3.5519,3.5519,3.5519,3.5519,3.5519,3.5519,3.5519,3.5519,3.5519,3.5519,3.5519,3.5519,3.5519,3.5519,3.5519,3.5683,4.7451,4.6641,4.6075,4.6684,4.6177,4.5703,4.5703,4.5162,4.475,4.4615,4.4784,4.4852,4.4615,4.4716,4.464,4.438,4.4788,4.4812,4.4069,4.3408,4.2773,4.2133,4.1958,4.1503,4.078,4.1286,4.1595,4.1647,4.1595,4.1853,4.2422,4.2342,4.2378,4.2458,4.2422,4.22,4.181,4.181,4.181,4.181,4.181,4.2118,4.2577,4.2577,4.2518,4.2422,4.2422,4.2041,4.1464,4.0967,4.078,4.0685,4.0254,4.0113,4.0113,4.0113,4.0441,4.0524,3.9481,3.9073,3.8667,3.7337,3.6965,3.6772,3.6073,3.5938,3.5904,3.5802,3.5769,3.5735,3.5633,3.5081,3.4404,3.3694,3.2949,3.2259,3.1596,0.0,3.2666,3.3626,3.4822,3.5371,3.4718,3.5815,3.5497,3.2903,3.3831,3.3995,0.0,3.3455,3.3484,3.2826,3.3903,3.4563,3.4653,3.522,3.5519,3.5519,3.5519,3.5519,3.5519,3.5519,3.5519,3.5519,3.5519,3.5519,3.5519,3.5519,3.5519,3.5519,3.5519,3.5519,3.5519,3.5519,3.5519,3.5619,4.7009,4.6772,4.665,4.6786,4.6177,4.5703,4.5703,4.5602,4.5297,4.4682,4.5698,4.5974,4.475,4.5162,4.5286,4.4618,4.4627,4.4509,4.4036,4.3893,4.3312,4.2168,4.2066,4.1481,4.0254,4.0328,4.0577,4.1024,4.0577,4.0648,4.1161,4.072,4.0778,4.1253,4.1196,4.1407,4.181,4.181,4.181,4.181,4.181,4.1853,4.1937,4.1937,4.1603,4.1161,4.1161,4.0838,4.0353,4.0254,4.0229,4.0204,4.0138,4.0113,4.0113,4.0113,4.0154,4.017,3.9968,3.9445,3.8802,3.7956,3.7719,3.7719,3.7584,3.755,3.7381,3.6738,3.6626,3.64,3.5735,3.5498,3.5216,3.4438,3.3694,3.3186,3.3085,0.0,3.3038,3.5025,3.5464,3.5575,3.5529,3.5744,3.5398,3.4241,3.439,3.4419,3.4204,3.4831,3.4891,3.4234,3.4384,3.4773,3.534,3.5459,3.5519,3.5519,3.5519,3.5519,3.5519,3.5519,3.5519,3.5519,3.5519,3.5519,3.5519,3.5519,3.5519,3.5519,3.5519,3.5519,3.5519,3.5519,3.5519,3.5619,4.7861,4.7327,4.7056,4.7834,4.7394,4.6887,4.6887,4.6549,4.6177,4.5805,4.638,4.6515,4.5867,4.6075,4.6143,4.5805,4.5399,4.5109,4.4941,4.4138,4.3416,4.28,4.2424,4.1716,4.0722,4.0316,4.0229,4.049,4.0229,4.0368,4.0886,4.0672,4.0672,4.092,4.092,4.0897,4.0885,4.0885,4.0885,4.0885,4.0885,4.1059,4.1296,4.1296,4.1138,4.092,4.092,4.0552,4.0113,4.0113,4.0113,4.0113,4.0113,4.0113,4.0113,4.0113,4.0113,4.0113,4.0113,3.9842,3.9436,3.8667,3.8497,3.8396,3.799,3.7922,3.7821,3.7449,3.7381,3.7144,3.64,3.6231,3.5994,3.5216,3.4472,0.0,0.0,3.4032,3.4472,3.5464,3.6681,3.7119,3.63,3.6578,3.6328,3.5108,3.504,3.504,3.504,3.534,3.537,3.504,3.504,3.519,3.5519,3.5519,3.5519,3.5519,3.5519,3.5519,3.5519,3.5519,3.5519,3.5519,3.5519,3.5519,3.5519,3.5519,3.5519,3.5519,3.5519,3.5519,3.5519,3.5519,3.5519,3.5554,4.8748,4.7936,4.7394,4.8545,4.8139,4.7635,4.7635,4.7327,4.6989,4.6819,4.709,4.7192,4.6819,4.6955,4.6989,4.6819,4.6278,4.5872,4.5703,4.4587,4.3747,4.3409,4.2692,4.1948,4.1238,4.0629,4.0282,4.0113,4.0113,4.0294,4.0709,4.0709,4.0709,4.0709,4.0709,4.048,4.0113,4.0113,4.0113,4.0113,4.0113,4.0343,4.0709,4.0709,4.0709,4.0709,4.0709,4.0466,4.0113,4.0113,4.0113,4.0113,4.0113,4.0113,4.0113,4.0113,4.0113,4.0113,4.0113,4.0113,3.9977,3.9377,3.9242,3.9106,3.8531,3.8396,3.8362,3.8193,3.8159,3.7922,3.7178,3.7066,3.684,3.6242,0.0,0.0,0.0,3.5622,3.6028,3.6343,3.7922,3.8479,3.7102,3.7473,3.7145,3.5619,3.5519,3.5519,3.5519,3.5519,3.5519,3.5519,3.5519,3.5519,3.5519,3.5519,3.5519,3.5519,3.5519,3.5519,3.5519,3.5519,3.5519,3.5519,3.5519,3.5519,3.5519,3.5519,3.5519,3.5519,3.5519,3.5519,3.5519,3.5519,3.5519,3.5519,4.8849,4.8376,4.7838,4.7939,4.7361,4.6887,4.6887,4.7428,4.7597,4.6887,4.8003,4.8308,4.6955,4.7428,4.7564,4.6853,4.6752,4.6413,4.5737,4.5602,4.4891,4.3443,4.2692,4.1948,4.1238,4.117,4.0764,4.0113,4.0113,4.0138,4.0154,4.0154,4.0154,4.0154,4.0154,4.0163,4.0113,4.0113,4.0113,4.0113,4.0113,4.0138,4.0154,4.0154,4.0154,4.0154,4.0154,4.0129,4.0113,4.0113,4.0113,4.0113,4.0113,4.0113,4.0113,4.0113,4.0113,4.0113,4.0113,4.0113,4.0079,4.0045,4.0011,4.0011,3.9943,3.9943,3.974,3.9039,3.8903,3.87,3.7956,3.7821,3.7821,3.7753,0.0,0.0,3.755,3.711,3.7235,3.8565,3.8903,3.8679,3.7805,3.7761,3.7145,3.5619,3.5519,3.5519,3.5519,3.5519,3.5519,3.5519,3.5519,3.5519,3.5519,3.5519,3.5519,3.5519,3.5519,3.5519,3.5519,3.5519,3.5519,3.5519,3.5519,3.5519,3.5519,3.5519,3.5519,3.5519,3.5519,3.5519,3.5519,3.5519,3.5519,3.5519,4.8849,4.8409,4.8041,4.8511,4.8342,4.8173,4.8173,4.8409,4.8477,4.8206,4.8646,4.8781,4.824,4.8409,4.8477,4.8173,4.7767,4.7361,4.706,4.621,4.5229,4.4181,4.3403,4.2861,4.2564,4.2117,4.1508,4.0764,4.0764,4.0527,4.0113,4.0113,4.035,4.0764,4.0316,4.035,4.073,4.0282,4.0113,4.0113,4.0113,4.0113,4.0113,4.0113,4.0113,4.0113,4.0113,4.0113,4.0113,4.0113,4.0113,4.0113,4.0113,4.0113,4.018,4.0629,4.0764,4.0764,4.0764,4.0451,4.0113,4.0113,4.0113,4.0113,4.0113,4.0113,4.0011,3.974,3.9673,3.9469,3.8734,3.8565,3.8565,3.8565,0.0,3.7719,3.8464,3.8328,3.8362,3.8937,3.9377,3.936,3.8547,3.8048,3.7354,3.6259,3.575,3.5519,3.5519,3.5519,3.5519,3.5519,3.5519,3.5519,3.5519,3.5519,3.5519,3.5519,3.5519,3.5519,3.5519,3.5519,3.5519,3.5519,3.5519,3.5519,3.5519,3.5519,3.5519,3.5519,3.5519,3.5782,3.6134,3.5683,3.5782,3.6165,4.8849,4.8612,4.8379,4.8917,4.9018,4.9018,4.9018,4.9018,4.9018,4.9018,4.9018,4.9018,4.9018,4.9018,4.9018,4.9018,4.8545,4.8173,4.7906,4.6515,4.5365,4.4649,4.4079,4.3673,4.3409,4.2895,4.2286,4.1542,4.1542,4.1271,4.079,4.079,4.1035,4.1508,4.1027,4.0933,4.117,4.0663,4.0316,4.0113,4.035,4.0451,4.0485,4.0722,4.079,4.079,4.079,4.079,4.079,4.079,4.0654,4.0451,4.0451,4.0451,4.0595,4.1339,4.1542,4.1542,4.1542,4.117,4.0756,4.0519,4.062,4.079,4.079,4.062,4.0451,4.0451,4.0282,3.9943,3.9436,3.9368,3.9368,3.9368,3.8903,3.8768,3.9276,3.9368,3.9368,3.9368,3.9808,3.9789,3.8962,3.8205,3.7541,3.6874,3.6205,3.5908,3.6088,3.5729,3.5609,3.5818,3.5609,3.5519,3.5519,3.5519,3.5519,3.5519,3.5699,3.5699,3.5519,3.5729,3.5699,3.5519,3.5519,3.5519,3.5519,3.5519,3.5519,3.5519,3.5519,3.5814,3.6228,3.5943,3.6165,3.663,4.8849,4.9018,4.9018,4.9018,4.9018,4.9018,4.9018,4.9018,4.9018,4.9018,4.9018,4.9018,4.9018,4.9018,4.9018,4.9018,4.9018,4.8714,4.7939,4.6549,4.5399,4.4649,4.4615,4.4215,4.3409,4.3409,4.3064,4.2286,4.2286,4.2286,4.2286,4.2286,4.2286,4.2286,4.2286,4.188,4.1238,4.1204,4.0798,4.018,4.0899,4.1204,4.1305,4.2016,4.2286,4.2286,4.2286,4.2286,4.2286,4.2286,4.1813,4.1204,4.1204,4.1204,4.1339,4.2083,4.2286,4.2286,4.2286,4.2286,4.2117,4.1407,4.1745,4.2286,4.2286,4.1745,4.1204,4.1204,4.0629,4.0113,4.0113,4.0113,4.0113,4.0113,4.0113,4.0113,4.0113,4.0113,4.0113,4.0113,4.0087,3.9754,3.8902,3.8208,3.7681,3.7421,3.6836,3.6776,3.7375,3.6207,3.5818,3.6477,3.5848,3.5519,3.5519,3.5519,3.5519,3.5519,3.6178,3.6148,3.5549,3.6178,3.6118,3.5519,3.5519,3.5519,3.5519,3.5519,3.5519,3.5519,3.5519,3.5519,3.5619,3.6352,3.66,3.6722,4.8951,4.9018,4.9018,4.9018,4.9018,4.9018,4.9018,4.9018,4.9018,4.9018,4.9018,4.9018,4.9018,4.9018,4.9018,4.9018,4.9018,4.8714,4.7939,4.7466,4.6921,4.6177,4.5156,4.4513,4.4248,4.4215,4.3842,4.3064,4.3064,4.2828,4.2286,4.2286,4.2591,4.3064,4.2523,4.2455,4.2699,4.2185,4.1847,4.167,4.188,4.1982,4.1982,4.2219,4.2286,4.2286,4.2286,4.2286,4.2286,4.2286,4.2151,4.1982,4.1982,4.1982,4.2117,4.2861,4.3064,4.3064,4.3064,4.347,4.3599,4.2286,4.2117,4.2286,4.2286,4.2117,4.1982,4.1982,4.1779,4.1636,4.1636,4.1636,4.1474,4.0967,4.0865,4.0696,4.018,4.0019,3.9972,3.9972,3.9931,3.9774,3.9521,3.881,3.8338,3.8251,3.7563,3.7225,3.7404,3.7045,3.6716,3.6507,3.6297,3.5968,3.5519,3.5519,3.5729,3.6178,3.6387,3.6596,3.6836,3.6596,3.6387,3.6178,3.5699,3.5519,3.5519,3.5519,3.5519,3.5549,3.5998,3.6592,3.7118,3.725,3.7671,3.8339,4.9018,4.9018,4.9018,4.9018,4.9018,4.9018,4.9018,4.9018,4.9018,4.9018,4.9018,4.9018,4.9018,4.9018,4.9018,4.9018,4.9018,4.8815,4.8376,4.8041,4.7699,4.7259,4.6075,4.5495,4.5495,4.5162,4.479,4.4316,4.4012,4.3639,4.3227,4.3227,4.3436,4.3842,4.3403,4.3267,4.3375,4.2929,4.2557,4.232,4.2625,4.2726,4.276,4.3064,4.3227,4.3234,4.3538,4.3639,4.3639,4.3639,4.3436,4.3234,4.3538,4.3639,4.3775,4.4519,4.4756,4.4688,4.4418,4.4891,4.519,4.3944,4.3403,4.3227,4.3227,4.2963,4.2726,4.2726,4.2489,4.2286,4.2286,4.2011,4.1626,4.1191,4.0851,4.0492,4.0029,3.9907,3.9881,3.9881,3.9826,3.9783,3.9755,3.9025,3.8571,3.8516,3.8069,3.7913,3.8182,3.7704,3.7345,3.7255,3.6985,3.6656,3.6267,3.6267,3.6327,3.6507,3.6985,3.7285,3.7404,3.7285,3.7105,3.6836,3.6417,3.6267,3.6237,3.5998,3.5908,3.5938,3.6327,3.684,3.7419,3.8213,3.8503,3.865,4.9018,4.9018,4.9018,4.9018,4.9018,4.9018,4.9018,4.9018,4.9018,4.9018,4.9018,4.9018,4.9018,4.9018,4.9018,4.9018,4.9052,4.912,4.9187,4.8511,4.8075,4.8075,4.7394,4.6989,4.6989,4.621,4.5771,4.5703,4.5094,4.475,4.4615,4.4682,4.4682,4.4615,4.4615,4.4181,4.3538,4.3538,4.3132,4.2557,4.3234,4.3538,4.3578,4.4384,4.4716,4.4818,4.5534,4.5805,4.5805,4.5805,4.5331,4.4919,4.5602,4.5805,4.594,4.6583,4.6786,4.665,4.5974,4.6278,4.6616,4.5974,4.5297,4.4818,4.4818,4.4181,4.3612,4.3612,4.3064,4.2591,4.2523,4.1849,4.1247,4.1124,4.048,3.9935,3.9842,3.9782,3.9783,3.9783,3.9784,3.9724,3.9596,3.9036,3.8611,3.8492,3.8482,3.8751,3.9379,3.8242,3.7823,3.8362,3.7823,3.7464,3.7404,3.7464,3.7225,3.6656,3.7823,3.8093,3.7614,3.8153,3.8063,3.7494,3.7434,3.7404,3.7375,3.6817,3.664,3.67,3.68,3.6899,3.7278,3.9334,3.9282,3.848,4.9018,4.9018,4.9018,4.9018,4.9018,4.9018,4.9018,4.9018,4.9018,4.9018,4.9018,4.9018,4.9018,4.9018,4.9018,4.9018,4.9526,5.0101,5.071,5.0033,4.9627,4.9627,4.8917,4.8511,4.8511,4.7225,4.6278,4.5703,4.6109,4.5703,4.4615,4.5196,4.5128,4.4615,4.4615,4.4513,4.4316,4.4316,4.4276,4.4141,4.4276,4.4316,4.4418,4.5162,4.5466,4.5568,4.6278,4.6549,4.6549,4.6549,4.6447,4.6346,4.6515,4.6549,4.6583,4.6752,4.6786,4.6752,4.6583,4.6684,4.6752,4.6583,4.6413,4.6312,4.6312,4.5737,4.5196,4.5196,4.5094,4.479,4.4209,4.3968,4.3422,4.2158,4.1796,4.1241,3.9998,3.9691,3.9646,3.9646,3.9538,3.9481,3.9455,3.9299,3.9198,3.92,3.92,3.926,3.9373,3.9104,3.8811,3.8392,3.8242,3.7913,3.7404,3.7913,3.8123,3.7973,3.8272,3.8601,3.8925,3.8571,3.8302,3.8153,3.7644,3.7404,3.7379,3.7384,3.7675,3.8297,3.8937,3.9582,4.0319,4.1318,4.1555,4.1379,4.9018,4.9018,4.9018,4.9018,4.9018,4.9018,4.9018,4.9289,4.9526,4.9526,4.983,5.0067,5.0067,5.0067,5.0067,5.0067,5.0405,5.0811,5.1183,5.0845,5.0608,5.0608,5.027,4.9898,4.9526,4.8748,4.7834,4.6752,4.6786,4.6413,4.5635,4.6041,4.6007,4.5664,4.5664,4.5664,4.5664,4.5664,4.5664,4.5664,4.5664,4.5664,4.5669,4.6075,4.621,4.6312,4.7056,4.7327,4.7394,4.7733,4.7631,4.7394,4.7733,4.7834,4.7834,4.7834,4.7834,4.7767,4.7428,4.7564,4.7767,4.7428,4.7327,4.7225,4.6887,4.6481,4.621,4.621,4.621,4.5959,4.5139,4.4649,4.3932,4.2655,4.2102,4.1384,4.0259,4.0029,3.9873,3.9538,3.942,3.9559,3.9858,3.9888,4.0008,4.0337,4.0068,3.9888,3.9888,3.9553,3.926,3.8901,3.8871,3.8721,3.8362,3.8721,3.8871,3.8871,3.8871,3.908,3.9373,3.905,3.8871,3.8871,3.8512,3.8362,3.8337,3.8061,3.8437,3.9239,3.9628,4.0373,4.1276,4.1885,4.2147,4.2273,4.9018,4.912,4.9187,4.9187,4.9289,4.939,4.939,4.9898,5.027,5.027,5.0845,5.1185,5.1185,5.1185,5.1219,5.1386,5.1386,5.1454,5.1557,5.1455,5.1386,5.1386,5.1252,5.0913,5.0304,5.027,4.9492,4.7906,4.7428,4.7056,4.6786,4.6921,4.6921,4.6786,4.6786,4.6786,4.6786,4.6786,4.6786,4.6786,4.6786,4.6786,4.6819,4.6921,4.6989,4.709,4.7834,4.8142,4.8376,4.8984,4.8781,4.8376,4.9018,4.912,4.9018,4.9018,4.9018,4.8883,4.8274,4.8545,4.8849,4.821,4.8075,4.7936,4.7327,4.709,4.6989,4.6989,4.6989,4.6713,4.581,4.4919,4.3992,4.3091,4.2218,4.1363,4.0673,4.0576,4.0367,3.9828,3.9738,3.9978,4.0516,4.0576,4.0786,4.1354,4.0876,4.0576,4.0576,3.9948,3.9553,3.9553,3.9433,3.9373,3.9373,3.9493,3.9553,3.9553,3.9709,3.9709,3.9589,3.9433,3.9433,3.9589,3.9433,3.9373,3.9379,3.8838,3.9116,3.9889,4.0061,4.0732,4.1642,4.2254,4.2533,4.2605,4.9018,4.9492,4.9932,4.9932,5.0473,5.0913,5.0913,5.1014,5.1082,5.1082,5.115,5.1185,5.1185,5.1185,5.1488,5.2097,5.2164,5.2469,5.3145,5.2536,5.2164,5.2164,5.1555,5.1151,5.1082,5.1082,5.0033,4.7906,4.8443,4.8037,4.6819,4.7462,4.7428,4.6786,4.6786,4.6786,4.6786,4.6786,4.6786,4.6786,4.6786,4.6786,4.6853,4.753,4.7736,4.7868,4.8612,4.9255,4.983,4.9898,4.9864,4.983,4.9898,4.9492,4.9018,4.9018,4.9018,4.8984,4.8883,4.8917,4.8984,4.8883,4.8849,4.8849,4.8748,4.8206,4.7736,4.7736,4.7736,4.7504,4.6739,4.5839,4.4951,4.4026,4.3126,4.2224,4.1378,4.1235,4.1205,4.1115,4.1115,4.1145,4.1272,4.1235,4.1294,4.1422,4.1332,4.1235,4.1235,4.0636,4.0277,4.0277,3.9709,3.9373,3.9373,3.9978,4.0277,4.0277,4.0846,4.0816,4.0247,3.9679,3.9738,4.0247,3.9679,3.9373,3.9385,3.9432,3.9871,4.0642,4.1525,4.2354,4.3149,4.3939,4.4259,4.4277,5.0236,5.0507,5.071,5.071,5.098,5.1185,5.1185,5.1555,5.1826,5.1826,5.2232,5.2503,5.2503,5.2503,5.2638,5.2942,5.2976,5.3112,5.3484,5.3179,5.2976,5.2976,5.2672,5.2266,5.1826,5.1826,5.115,4.9731,4.9661,4.9052,4.8037,4.8781,4.8748,4.8037,4.8443,4.8409,4.8037,4.8037,4.8274,4.8646,4.8646,4.8883,4.9289,4.9627,4.9492,4.912,4.9052,4.9729,5.0642,5.0236,5.0371,5.0642,5.0236,4.9864,4.9593,4.9593,4.9593,4.9695,5.0135,5.0236,5.0236,5.0236,4.9932,4.9593,4.9593,4.9052,4.8511,4.8511,4.8511,4.8099,4.6748,4.6125,4.5349,4.3888,4.3318,4.2773,4.2059,4.1961,4.1841,4.1414,4.1422,4.1572,4.1931,4.1961,4.2073,4.2432,4.2132,4.1961,4.1961,4.1294,4.0935,4.0935,4.0666,4.0516,4.0516,4.0816,4.0935,4.0935,4.1235,4.1235,4.0935,4.0277,4.0127,4.0367,3.9709,3.9373,3.9379,3.9441,3.9994,4.0795,4.1725,4.26,4.3413,4.4298,4.4298,4.3948]}]]